Wetterdaten: Donnerstag, 24.11.2016
Datum Zeit Temp. A. Feuchte A. Luftdruck Regen Wind Richtung Richtung Sonnenschein ET UV Solar Taupunkt Windchill Windben Empfang
24.11.2016 00:00 6,0 C 99 % 1018,9 hPa 0,0 l/m 5,3 km/h (1 Bft) N-NO 31 0 min 0,000 mm 0,0 UV-I 0 W/m 5,9 C 6,0 C 8,0 km/h (2 Bft) 100,00 %
24.11.2016 00:02 6,0 C 99 % 1019,0 hPa 0,0 l/m 4,5 km/h (1 Bft) N-NO 30 0 min 0,000 mm 0,0 UV-I 0 W/m 5,9 C 6,0 C 8,0 km/h (2 Bft) 97,67 %
24.11.2016 00:04 6,0 C 99 % 1019,0 hPa 0,0 l/m 4,0 km/h (1 Bft) NO 40 0 min 0,000 mm 0,0 UV-I 0 W/m 5,9 C 6,0 C 6,4 km/h (2 Bft) 100,00 %
24.11.2016 00:06 6,0 C 99 % 1019,0 hPa 0,0 l/m 6,1 km/h (2 Bft) N-NO 25 0 min 0,000 mm 0,0 UV-I 0 W/m 5,9 C 6,0 C 9,7 km/h (2 Bft) 100,00 %
24.11.2016 00:08 6,0 C 99 % 1019,0 hPa 0,0 l/m 6,9 km/h (2 Bft) N-NO 24 0 min 0,000 mm 0,0 UV-I 0 W/m 5,9 C 5,6 C 11,3 km/h (2 Bft) 100,00 %
24.11.2016 00:10 5,9 C 99 % 1018,9 hPa 0,0 l/m 7,7 km/h (2 Bft) NO 48 0 min 0,000 mm 0,0 UV-I 0 W/m 5,8 C 4,8 C 11,3 km/h (2 Bft) 100,00 %
24.11.2016 00:12 5,9 C 99 % 1018,9 hPa 0,0 l/m 7,4 km/h (2 Bft) NO 51 0 min 0,000 mm 0,0 UV-I 0 W/m 5,8 C 5,0 C 11,3 km/h (2 Bft) 100,00 %
24.11.2016 00:14 5,9 C 99 % 1018,9 hPa 0,0 l/m 7,8 km/h (2 Bft) NO 36 0 min 0,000 mm 0,0 UV-I 0 W/m 5,8 C 4,7 C 11,3 km/h (2 Bft) 100,00 %
24.11.2016 00:16 5,9 C 99 % 1018,9 hPa 0,0 l/m 7,0 km/h (2 Bft) NO 47 0 min 0,000 mm 0,0 UV-I 0 W/m 5,8 C 5,4 C 9,7 km/h (2 Bft) 100,00 %
24.11.2016 00:18 5,9 C 99 % 1018,9 hPa 0,0 l/m 5,4 km/h (1 Bft) O-NO 60 0 min 0,000 mm 0,0 UV-I 0 W/m 5,8 C 5,9 C 8,0 km/h (2 Bft) 100,00 %
24.11.2016 00:20 5,9 C 99 % 1018,9 hPa 0,0 l/m 4,4 km/h (1 Bft) NO 44 0 min 0,000 mm 0,0 UV-I 0 W/m 5,8 C 5,9 C 9,7 km/h (2 Bft) 98,00 %
24.11.2016 00:22 5,9 C 99 % 1018,9 hPa 0,0 l/m 4,5 km/h (1 Bft) NO 40 0 min 0,000 mm 0,0 UV-I 0 W/m 5,8 C 5,9 C 8,0 km/h (2 Bft) 97,37 %
24.11.2016 00:24 5,9 C 99 % 1018,9 hPa 0,0 l/m 5,2 km/h (1 Bft) NO 34 0 min 0,000 mm 0,0 UV-I 0 W/m 5,8 C 5,9 C 8,0 km/h (2 Bft) 97,87 %
24.11.2016 00:26 5,9 C 99 % 1018,9 hPa 0,0 l/m 5,6 km/h (1 Bft) NO 52 0 min 0,000 mm 0,0 UV-I 0 W/m 5,8 C 5,9 C 9,7 km/h (2 Bft) 96,23 %
24.11.2016 00:28 5,9 C 99 % 1018,9 hPa 0,0 l/m 3,3 km/h (1 Bft) NO 50 0 min 0,000 mm 0,0 UV-I 0 W/m 5,8 C 5,9 C 4,8 km/h (1 Bft) 97,56 %
24.11.2016 00:30 5,9 C 99 % 1018,9 hPa 0,0 l/m 4,7 km/h (1 Bft) O-NO 59 0 min 0,000 mm 0,0 UV-I 0 W/m 5,8 C 5,9 C 8,0 km/h (2 Bft) 96,43 %
24.11.2016 00:32 5,9 C 99 % 1018,8 hPa 0,0 l/m 5,4 km/h (1 Bft) NO 37 0 min 0,000 mm 0,0 UV-I 0 W/m 5,8 C 5,9 C 9,7 km/h (2 Bft) 97,87 %
24.11.2016 00:34 5,9 C 99 % 1018,8 hPa 0,0 l/m 6,0 km/h (2 Bft) NO 53 0 min 0,000 mm 0,0 UV-I 0 W/m 5,8 C 5,9 C 8,0 km/h (2 Bft) 94,87 %
24.11.2016 00:36 5,9 C 99 % 1018,8 hPa 0,0 l/m 4,3 km/h (1 Bft) NO 53 0 min 0,000 mm 0,0 UV-I 0 W/m 5,8 C 5,9 C 6,4 km/h (2 Bft) 97,87 %
24.11.2016 00:38 5,9 C 99 % 1018,8 hPa 0,0 l/m 4,8 km/h (1 Bft) NO 34 0 min 0,000 mm 0,0 UV-I 0 W/m 5,8 C 5,9 C 8,0 km/h (2 Bft) 94,00 %
24.11.2016 00:40 5,9 C 99 % 1018,8 hPa 0,0 l/m 6,0 km/h (2 Bft) NO 40 0 min 0,000 mm 0,0 UV-I 0 W/m 5,8 C 5,9 C 8,0 km/h (2 Bft) 98,00 %
24.11.2016 00:42 5,9 C 99 % 1018,8 hPa 0,0 l/m 4,9 km/h (1 Bft) NO 51 0 min 0,000 mm 0,0 UV-I 0 W/m 5,8 C 5,9 C 8,0 km/h (2 Bft) 97,73 %
24.11.2016 00:44 5,9 C 99 % 1018,7 hPa 0,0 l/m 6,6 km/h (2 Bft) O-NO 61 0 min 0,000 mm 0,0 UV-I 0 W/m 5,8 C 5,8 C 9,7 km/h (2 Bft) 97,37 %
24.11.2016 00:46 5,8 C 99 % 1018,7 hPa 0,0 l/m 7,1 km/h (2 Bft) NO 53 0 min 0,000 mm 0,0 UV-I 0 W/m 5,7 C 5,2 C 9,7 km/h (2 Bft) 98,00 %
24.11.2016 00:48 5,9 C 99 % 1018,7 hPa 0,0 l/m 6,1 km/h (2 Bft) NO 50 0 min 0,000 mm 0,0 UV-I 0 W/m 5,8 C 5,9 C 9,7 km/h (2 Bft) 98,00 %
24.11.2016 00:50 5,9 C 99 % 1018,7 hPa 0,0 l/m 4,5 km/h (1 Bft) O-NO 57 0 min 0,000 mm 0,0 UV-I 0 W/m 5,8 C 5,9 C 6,4 km/h (2 Bft) 98,11 %
24.11.2016 00:52 5,9 C 99 % 1018,7 hPa 0,0 l/m 4,5 km/h (1 Bft) NO 40 0 min 0,000 mm 0,0 UV-I 0 W/m 5,8 C 5,9 C 8,0 km/h (2 Bft) 97,37 %
24.11.2016 00:54 5,9 C 99 % 1018,6 hPa 0,0 l/m 5,7 km/h (1 Bft) O-NO 66 0 min 0,000 mm 0,0 UV-I 0 W/m 5,8 C 5,9 C 9,7 km/h (2 Bft) 96,23 %
24.11.2016 00:56 5,9 C 99 % 1018,6 hPa 0,0 l/m 6,4 km/h (2 Bft) O-NO 63 0 min 0,000 mm 0,0 UV-I 0 W/m 5,8 C 5,9 C 12,9 km/h (3 Bft) 98,00 %
24.11.2016 00:58 5,9 C 99 % 1018,6 hPa 0,0 l/m 6,6 km/h (2 Bft) NO 53 0 min 0,000 mm 0,0 UV-I 0 W/m 5,8 C 5,8 C 9,7 km/h (2 Bft) 100,00 %
24.11.2016 01:00 5,8 C 99 % 1018,6 hPa 0,0 l/m 5,1 km/h (1 Bft) O-NO 57 0 min 0,000 mm 0,0 UV-I 0 W/m 5,7 C 5,8 C 6,4 km/h (2 Bft) 97,37 %
24.11.2016 01:02 5,8 C 99 % 1018,6 hPa 0,0 l/m 6,0 km/h (2 Bft) O-NO 58 0 min 0,000 mm 0,0 UV-I 0 W/m 5,7 C 5,8 C 8,0 km/h (2 Bft) 98,00 %
24.11.2016 01:04 5,8 C 99 % 1018,5 hPa 0,0 l/m 6,8 km/h (2 Bft) NO 40 0 min 0,000 mm 0,0 UV-I 0 W/m 5,7 C 5,5 C 12,9 km/h (3 Bft) 100,00 %
24.11.2016 01:06 5,8 C 99 % 1018,5 hPa 0,0 l/m 6,8 km/h (2 Bft) N-NO 16 0 min 0,000 mm 0,0 UV-I 0 W/m 5,7 C 5,5 C 9,7 km/h (2 Bft) 100,00 %
24.11.2016 01:08 5,8 C 99 % 1018,5 hPa 0,0 l/m 7,5 km/h (2 Bft) NO 43 0 min 0,000 mm 0,0 UV-I 0 W/m 5,7 C 4,9 C 9,7 km/h (2 Bft) 100,00 %
24.11.2016 01:10 5,8 C 99 % 1018,6 hPa 0,0 l/m 4,0 km/h (1 Bft) NO 43 0 min 0,000 mm 0,0 UV-I 0 W/m 5,7 C 5,8 C 8,0 km/h (2 Bft) 100,00 %
24.11.2016 01:12 5,9 C 99 % 1018,7 hPa 0,0 l/m 4,5 km/h (1 Bft) NO 42 0 min 0,000 mm 0,0 UV-I 0 W/m 5,8 C 5,9 C 6,4 km/h (2 Bft) 100,00 %
24.11.2016 01:14 5,8 C 99 % 1018,6 hPa 0,0 l/m 5,3 km/h (1 Bft) NO 40 0 min 0,000 mm 0,0 UV-I 0 W/m 5,7 C 5,8 C 8,0 km/h (2 Bft) 100,00 %
24.11.2016 01:16 5,9 C 99 % 1018,6 hPa 0,0 l/m 6,2 km/h (2 Bft) NO 39 0 min 0,000 mm 0,0 UV-I 0 W/m 5,8 C 5,9 C 8,0 km/h (2 Bft) 100,00 %
24.11.2016 01:18 5,8 C 99 % 1018,7 hPa 0,0 l/m 5,6 km/h (1 Bft) NO 36 0 min 0,000 mm 0,0 UV-I 0 W/m 5,7 C 5,8 C 8,0 km/h (2 Bft) 100,00 %
24.11.2016 01:20 5,8 C 99 % 1018,7 hPa 0,0 l/m 5,0 km/h (1 Bft) NO 40 0 min 0,000 mm 0,0 UV-I 0 W/m 5,7 C 5,8 C 6,4 km/h (2 Bft) 100,00 %
24.11.2016 01:22 5,8 C 99 % 1018,7 hPa 0,0 l/m 3,8 km/h (1 Bft) NO 40 0 min 0,000 mm 0,0 UV-I 0 W/m 5,7 C 5,8 C 6,4 km/h (2 Bft) 100,00 %
24.11.2016 01:24 5,8 C 99 % 1018,7 hPa 0,0 l/m 1,5 km/h (1 Bft) NO 40 0 min 0,000 mm 0,0 UV-I 0 W/m 5,7 C 5,8 C 3,2 km/h (1 Bft) 100,00 %
24.11.2016 01:26 5,8 C 99 % 1018,8 hPa 0,0 l/m 1,8 km/h (1 Bft) NO 40 0 min 0,000 mm 0,0 UV-I 0 W/m 5,7 C 5,8 C 3,2 km/h (1 Bft) 100,00 %
24.11.2016 01:28 5,8 C 99 % 1018,8 hPa 0,0 l/m 4,5 km/h (1 Bft) O-NO 59 0 min 0,000 mm 0,0 UV-I 0 W/m 5,7 C 5,8 C 8,0 km/h (2 Bft) 100,00 %
24.11.2016 01:30 5,8 C 99 % 1018,7 hPa 0,0 l/m 4,8 km/h (1 Bft) O-NO 64 0 min 0,000 mm 0,0 UV-I 0 W/m 5,7 C 5,8 C 6,4 km/h (2 Bft) 100,00 %
24.11.2016 01:32 5,8 C 99 % 1018,8 hPa 0,0 l/m 3,7 km/h (1 Bft) O-NO 64 0 min 0,000 mm 0,0 UV-I 0 W/m 5,7 C 5,8 C 4,8 km/h (1 Bft) 100,00 %
24.11.2016 01:34 5,8 C 99 % 1018,7 hPa 0,0 l/m 3,0 km/h (1 Bft) NO 55 0 min 0,000 mm 0,0 UV-I 0 W/m 5,7 C 5,8 C 4,8 km/h (1 Bft) 100,00 %
24.11.2016 01:36 5,8 C 99 % 1018,7 hPa 0,0 l/m 2,7 km/h (1 Bft) NO 55 0 min 0,000 mm 0,0 UV-I 0 W/m 5,7 C 5,8 C 4,8 km/h (1 Bft) 95,74 %
24.11.2016 01:38 5,8 C 99 % 1018,8 hPa 0,0 l/m 1,7 km/h (1 Bft) NO 55 0 min 0,000 mm 0,0 UV-I 0 W/m 5,7 C 5,8 C 3,2 km/h (1 Bft) 97,87 %
24.11.2016 01:40 5,8 C 99 % 1018,8 hPa 0,0 l/m 2,9 km/h (1 Bft) NO 55 0 min 0,000 mm 0,0 UV-I 0 W/m 5,7 C 5,8 C 4,8 km/h (1 Bft) 97,73 %
24.11.2016 01:42 5,8 C 99 % 1018,8 hPa 0,0 l/m 1,6 km/h (1 Bft) NO 53 0 min 0,000 mm 0,0 UV-I 0 W/m 5,7 C 5,8 C 4,8 km/h (1 Bft) 100,00 %
24.11.2016 01:44 5,8 C 99 % 1018,8 hPa 0,0 l/m 3,6 km/h (1 Bft) NO 40 0 min 0,000 mm 0,0 UV-I 0 W/m 5,7 C 5,8 C 4,8 km/h (1 Bft) 100,00 %
24.11.2016 01:46 5,8 C 99 % 1018,8 hPa 0,0 l/m 3,7 km/h (1 Bft) NO 40 0 min 0,000 mm 0,0 UV-I 0 W/m 5,7 C 5,8 C 6,4 km/h (2 Bft) 97,87 %
24.11.2016 01:48 5,8 C 99 % 1018,7 hPa 0,0 l/m 4,2 km/h (1 Bft) NO 40 0 min 0,000 mm 0,0 UV-I 0 W/m 5,7 C 5,8 C 6,4 km/h (2 Bft) 98,00 %
24.11.2016 01:50 5,8 C 99 % 1018,6 hPa 0,0 l/m 7,2 km/h (2 Bft) NO 49 0 min 0,000 mm 0,0 UV-I 0 W/m 5,7 C 5,1 C 9,7 km/h (2 Bft) 100,00 %
24.11.2016 01:52 5,8 C 99 % 1018,6 hPa 0,0 l/m 7,5 km/h (2 Bft) NO 42 0 min 0,000 mm 0,0 UV-I 0 W/m 5,7 C 4,9 C 9,7 km/h (2 Bft) 98,00 %
24.11.2016 01:54 5,8 C 99 % 1018,6 hPa 0,0 l/m 7,2 km/h (2 Bft) NO 45 0 min 0,000 mm 0,0 UV-I 0 W/m 5,7 C 5,1 C 9,7 km/h (2 Bft) 100,00 %
24.11.2016 01:56 5,8 C 99 % 1018,6 hPa 0,0 l/m 6,3 km/h (2 Bft) NO 42 0 min 0,000 mm 0,0 UV-I 0 W/m 5,7 C 5,8 C 8,0 km/h (2 Bft) 100,00 %
24.11.2016 01:58 5,8 C 99 % 1018,6 hPa 0,0 l/m 3,9 km/h (1 Bft) NO 40 0 min 0,000 mm 0,0 UV-I 0 W/m 5,7 C 5,8 C 4,8 km/h (1 Bft) 100,00 %
24.11.2016 02:00 5,8 C 99 % 1018,7 hPa 0,0 l/m 4,5 km/h (1 Bft) NO 46 0 min 0,000 mm 0,0 UV-I 0 W/m 5,7 C 5,8 C 6,4 km/h (2 Bft) 100,00 %
24.11.2016 02:02 5,8 C 99 % 1018,7 hPa 0,0 l/m 3,2 km/h (1 Bft) NO 44 0 min 0,000 mm 0,0 UV-I 0 W/m 5,7 C 5,8 C 4,8 km/h (1 Bft) 100,00 %
24.11.2016 02:04 5,8 C 99 % 1018,7 hPa 0,0 l/m 1,4 km/h (1 Bft) NO 44 0 min 0,000 mm 0,0 UV-I 0 W/m 5,7 C 5,8 C 4,8 km/h (1 Bft) 100,00 %
24.11.2016 02:06 5,8 C 99 % 1018,7 hPa 0,0 l/m 0,9 km/h (0 Bft) NO 44 0 min 0,000 mm 0,0 UV-I 0 W/m 5,7 C 5,8 C 3,2 km/h (1 Bft) 100,00 %
24.11.2016 02:08 5,8 C 99 % 1018,7 hPa 0,0 l/m 3,3 km/h (1 Bft) NO 49 0 min 0,000 mm 0,0 UV-I 0 W/m 5,7 C 5,8 C 4,8 km/h (1 Bft) 100,00 %
24.11.2016 02:10 5,7 C 99 % 1018,7 hPa 0,0 l/m 3,6 km/h (1 Bft) NO 49 0 min 0,000 mm 0,0 UV-I 0 W/m 5,6 C 5,7 C 4,8 km/h (1 Bft) 100,00 %
24.11.2016 02:12 5,7 C 99 % 1018,6 hPa 0,0 l/m 4,3 km/h (1 Bft) NO 52 0 min 0,000 mm 0,0 UV-I 0 W/m 5,6 C 5,7 C 6,4 km/h (2 Bft) 98,00 %
24.11.2016 02:14 5,7 C 99 % 1018,5 hPa 0,0 l/m 4,2 km/h (1 Bft) NO 52 0 min 0,000 mm 0,0 UV-I 0 W/m 5,6 C 5,7 C 6,4 km/h (2 Bft) 100,00 %
24.11.2016 02:16 5,7 C 99 % 1018,4 hPa 0,0 l/m 6,1 km/h (2 Bft) O-NO 57 0 min 0,000 mm 0,0 UV-I 0 W/m 5,6 C 5,7 C 8,0 km/h (2 Bft) 100,00 %
24.11.2016 02:18 5,7 C 99 % 1018,4 hPa 0,0 l/m 5,3 km/h (1 Bft) NO 55 0 min 0,000 mm 0,0 UV-I 0 W/m 5,6 C 5,7 C 8,0 km/h (2 Bft) 100,00 %
24.11.2016 02:20 5,7 C 99 % 1018,4 hPa 0,0 l/m 6,2 km/h (2 Bft) O-NO 57 0 min 0,000 mm 0,0 UV-I 0 W/m 5,6 C 5,7 C 9,7 km/h (2 Bft) 100,00 %
24.11.2016 02:22 5,7 C 99 % 1018,4 hPa 0,0 l/m 7,0 km/h (2 Bft) NO 46 0 min 0,000 mm 0,0 UV-I 0 W/m 5,6 C 5,2 C 11,3 km/h (2 Bft) 100,00 %
24.11.2016 02:24 5,7 C 99 % 1018,4 hPa 0,0 l/m 6,4 km/h (2 Bft) NO 38 0 min 0,000 mm 0,0 UV-I 0 W/m 5,6 C 5,7 C 9,7 km/h (2 Bft) 100,00 %
24.11.2016 02:26 5,7 C 99 % 1018,4 hPa 0,0 l/m 5,6 km/h (1 Bft) NO 54 0 min 0,000 mm 0,0 UV-I 0 W/m 5,6 C 5,7 C 8,0 km/h (2 Bft) 98,11 %
24.11.2016 02:28 5,7 C 99 % 1018,4 hPa 0,0 l/m 5,0 km/h (1 Bft) O-NO 63 0 min 0,000 mm 0,0 UV-I 0 W/m 5,6 C 5,7 C 8,0 km/h (2 Bft) 98,00 %
24.11.2016 02:30 5,7 C 99 % 1018,5 hPa 0,0 l/m 6,4 km/h (2 Bft) NO 55 0 min 0,000 mm 0,0 UV-I 0 W/m 5,6 C 5,7 C 9,7 km/h (2 Bft) 97,44 %
24.11.2016 02:32 5,7 C 99 % 1018,4 hPa 0,0 l/m 5,9 km/h (2 Bft) O-NO 60 0 min 0,000 mm 0,0 UV-I 0 W/m 5,6 C 5,7 C 8,0 km/h (2 Bft) 96,15 %
24.11.2016 02:34 5,7 C 99 % 1018,4 hPa 0,0 l/m 6,6 km/h (2 Bft) O-NO 71 0 min 0,000 mm 0,0 UV-I 0 W/m 5,6 C 5,6 C 8,0 km/h (2 Bft) 98,00 %
24.11.2016 02:36 5,7 C 99 % 1018,4 hPa 0,0 l/m 6,7 km/h (2 Bft) O-NO 62 0 min 0,000 mm 0,0 UV-I 0 W/m 5,6 C 5,5 C 11,3 km/h (2 Bft) 97,44 %
24.11.2016 02:38 5,7 C 99 % 1018,4 hPa 0,0 l/m 6,8 km/h (2 Bft) O-NO 68 0 min 0,000 mm 0,0 UV-I 0 W/m 5,6 C 5,4 C 9,7 km/h (2 Bft) 97,56 %
24.11.2016 02:40 5,7 C 99 % 1018,4 hPa 0,0 l/m 5,3 km/h (1 Bft) O-NO 67 0 min 0,000 mm 0,0 UV-I 0 W/m 5,6 C 5,7 C 8,0 km/h (2 Bft) 96,23 %
24.11.2016 02:42 5,7 C 99 % 1018,4 hPa 0,0 l/m 5,6 km/h (1 Bft) O-NO 72 0 min 0,000 mm 0,0 UV-I 0 W/m 5,6 C 5,7 C 8,0 km/h (2 Bft) 98,11 %
24.11.2016 02:44 5,7 C 99 % 1018,4 hPa 0,0 l/m 6,7 km/h (2 Bft) NO 51 0 min 0,000 mm 0,0 UV-I 0 W/m 5,6 C 5,5 C 12,9 km/h (3 Bft) 94,29 %
24.11.2016 02:46 5,6 C 99 % 1018,4 hPa 0,0 l/m 8,9 km/h (2 Bft) O-NO 58 0 min 0,000 mm 0,0 UV-I 0 W/m 5,5 C 3,5 C 16,1 km/h (3 Bft) 98,31 %
24.11.2016 02:48 5,6 C 99 % 1018,4 hPa 0,0 l/m 9,9 km/h (2 Bft) O-NO 60 0 min 0,000 mm 0,0 UV-I 0 W/m 5,5 C 2,8 C 14,5 km/h (3 Bft) 94,44 %
24.11.2016 02:50 5,6 C 99 % 1018,3 hPa 0,0 l/m 7,8 km/h (2 Bft) O-NO 71 0 min 0,000 mm 0,0 UV-I 0 W/m 5,5 C 4,4 C 9,7 km/h (2 Bft) 98,11 %
24.11.2016 02:52 5,6 C 99 % 1018,3 hPa 0,0 l/m 8,4 km/h (2 Bft) NO 46 0 min 0,000 mm 0,0 UV-I 0 W/m 5,5 C 3,9 C 12,9 km/h (3 Bft) 97,73 %
24.11.2016 02:54 5,6 C 99 % 1018,3 hPa 0,0 l/m 8,0 km/h (2 Bft) NO 47 0 min 0,000 mm 0,0 UV-I 0 W/m 5,5 C 4,2 C 11,3 km/h (2 Bft) 96,23 %
24.11.2016 02:56 5,6 C 99 % 1018,3 hPa 0,0 l/m 8,4 km/h (2 Bft) NO 53 0 min 0,000 mm 0,0 UV-I 0 W/m 5,5 C 3,9 C 14,5 km/h (3 Bft) 97,73 %
24.11.2016 02:58 5,6 C 99 % 1018,3 hPa 0,0 l/m 9,3 km/h (2 Bft) O-NO 64 0 min 0,000 mm 0,0 UV-I 0 W/m 5,5 C 3,2 C 12,9 km/h (3 Bft) 98,11 %
24.11.2016 03:00 5,6 C 99 % 1018,3 hPa 0,0 l/m 6,7 km/h (2 Bft) O-NO 61 0 min 0,000 mm 0,0 UV-I 0 W/m 5,5 C 5,4 C 11,3 km/h (2 Bft) 97,37 %
24.11.2016 03:02 5,6 C 99 % 1018,3 hPa 0,0 l/m 7,6 km/h (2 Bft) O-NO 71 0 min 0,000 mm 0,0 UV-I 0 W/m 5,5 C 4,6 C 9,7 km/h (2 Bft) 98,00 %
24.11.2016 03:04 5,6 C 99 % 1018,4 hPa 0,0 l/m 5,4 km/h (1 Bft) O-NO 59 0 min 0,000 mm 0,0 UV-I 0 W/m 5,5 C 5,6 C 6,4 km/h (2 Bft) 100,00 %
24.11.2016 03:06 5,6 C 99 % 1018,3 hPa 0,0 l/m 6,7 km/h (2 Bft) NO 47 0 min 0,000 mm 0,0 UV-I 0 W/m 5,5 C 5,4 C 11,3 km/h (2 Bft) 100,00 %
24.11.2016 03:08 5,6 C 99 % 1018,3 hPa 0,0 l/m 6,7 km/h (2 Bft) NO 45 0 min 0,000 mm 0,0 UV-I 0 W/m 5,5 C 5,4 C 11,3 km/h (2 Bft) 98,11 %
24.11.2016 03:10 5,5 C 99 % 1018,3 hPa 0,0 l/m 7,2 km/h (2 Bft) O-NO 60 0 min 0,000 mm 0,0 UV-I 0 W/m 5,4 C 4,8 C 9,7 km/h (2 Bft) 100,00 %
24.11.2016 03:12 5,5 C 99 % 1018,3 hPa 0,0 l/m 7,9 km/h (2 Bft) O-NO 67 0 min 0,000 mm 0,0 UV-I 0 W/m 5,4 C 4,2 C 9,7 km/h (2 Bft) 98,11 %
24.11.2016 03:14 5,5 C 99 % 1018,3 hPa 0,0 l/m 7,0 km/h (2 Bft) O-NO 58 0 min 0,000 mm 0,0 UV-I 0 W/m 5,4 C 5,0 C 9,7 km/h (2 Bft) 100,00 %
24.11.2016 03:16 5,5 C 99 % 1018,2 hPa 0,0 l/m 8,0 km/h (2 Bft) NO 54 0 min 0,000 mm 0,0 UV-I 0 W/m 5,4 C 4,1 C 9,7 km/h (2 Bft) 100,00 %
24.11.2016 03:18 5,5 C 99 % 1018,1 hPa 0,0 l/m 7,5 km/h (2 Bft) O-NO 65 0 min 0,000 mm 0,0 UV-I 0 W/m 5,4 C 4,5 C 9,7 km/h (2 Bft) 100,00 %
24.11.2016 03:20 5,5 C 99 % 1018,0 hPa 0,0 l/m 6,6 km/h (2 Bft) NO 54 0 min 0,000 mm 0,0 UV-I 0 W/m 5,4 C 5,3 C 8,0 km/h (2 Bft) 100,00 %
24.11.2016 03:22 5,5 C 99 % 1018,0 hPa 0,0 l/m 7,4 km/h (2 Bft) O-NO 64 0 min 0,000 mm 0,0 UV-I 0 W/m 5,4 C 4,6 C 9,7 km/h (2 Bft) 98,00 %
24.11.2016 03:24 5,5 C 99 % 1018,0 hPa 0,0 l/m 7,2 km/h (2 Bft) NO 53 0 min 0,000 mm 0,0 UV-I 0 W/m 5,4 C 4,8 C 9,7 km/h (2 Bft) 97,56 %
24.11.2016 03:26 5,5 C 99 % 1018,0 hPa 0,0 l/m 5,9 km/h (2 Bft) NO 45 0 min 0,000 mm 0,0 UV-I 0 W/m 5,4 C 5,5 C 8,0 km/h (2 Bft) 98,00 %
24.11.2016 03:28 5,4 C 99 % 1018,3 hPa 0,0 l/m 4,9 km/h (1 Bft) O-NO 65 0 min 0,000 mm 0,0 UV-I 0 W/m 5,3 C 5,4 C 8,0 km/h (2 Bft) 100,00 %
24.11.2016 03:30 5,4 C 99 % 1018,3 hPa 0,0 l/m 4,9 km/h (1 Bft) NO 55 0 min 0,000 mm 0,0 UV-I 0 W/m 5,3 C 5,4 C 8,0 km/h (2 Bft) 100,00 %
24.11.2016 03:32 5,4 C 99 % 1018,3 hPa 0,0 l/m 5,4 km/h (1 Bft) NO 56 0 min 0,000 mm 0,0 UV-I 0 W/m 5,3 C 5,4 C 8,0 km/h (2 Bft) 100,00 %
24.11.2016 03:34 5,4 C 99 % 1018,2 hPa 0,0 l/m 5,0 km/h (1 Bft) NO 49 0 min 0,000 mm 0,0 UV-I 0 W/m 5,3 C 5,4 C 8,0 km/h (2 Bft) 100,00 %
24.11.2016 03:36 5,4 C 99 % 1018,2 hPa 0,0 l/m 5,2 km/h (1 Bft) O-NO 62 0 min 0,000 mm 0,0 UV-I 0 W/m 5,3 C 5,4 C 6,4 km/h (2 Bft) 100,00 %
24.11.2016 03:38 5,4 C 99 % 1018,2 hPa 0,0 l/m 3,7 km/h (1 Bft) O-NO 62 0 min 0,000 mm 0,0 UV-I 0 W/m 5,3 C 5,4 C 6,4 km/h (2 Bft) 100,00 %
24.11.2016 03:40 5,4 C 99 % 1018,3 hPa 0,0 l/m 3,7 km/h (1 Bft) NO 55 0 min 0,000 mm 0,0 UV-I 0 W/m 5,3 C 5,4 C 6,4 km/h (2 Bft) 100,00 %
24.11.2016 03:42 5,4 C 99 % 1018,2 hPa 0,0 l/m 4,4 km/h (1 Bft) O-NO 58 0 min 0,000 mm 0,0 UV-I 0 W/m 5,3 C 5,4 C 6,4 km/h (2 Bft) 100,00 %
24.11.2016 03:44 5,4 C 99 % 1018,3 hPa 0,0 l/m 3,1 km/h (1 Bft) O-NO 58 0 min 0,000 mm 0,0 UV-I 0 W/m 5,3 C 5,4 C 4,8 km/h (1 Bft) 100,00 %
24.11.2016 03:46 5,4 C 99 % 1018,3 hPa 0,0 l/m 2,8 km/h (1 Bft) O-NO 67 0 min 0,000 mm 0,0 UV-I 0 W/m 5,3 C 5,4 C 4,8 km/h (1 Bft) 100,00 %
24.11.2016 03:48 5,4 C 99 % 1018,3 hPa 0,0 l/m 5,6 km/h (1 Bft) O-NO 67 0 min 0,000 mm 0,0 UV-I 0 W/m 5,3 C 5,4 C 8,0 km/h (2 Bft) 97,92 %
24.11.2016 03:50 5,4 C 99 % 1018,4 hPa 0,0 l/m 5,1 km/h (1 Bft) O-NO 68 0 min 0,000 mm 0,0 UV-I 0 W/m 5,3 C 5,4 C 8,0 km/h (2 Bft) 100,00 %
24.11.2016 03:52 5,4 C 99 % 1018,4 hPa 0,0 l/m 5,6 km/h (1 Bft) O-NO 63 0 min 0,000 mm 0,0 UV-I 0 W/m 5,3 C 5,4 C 6,4 km/h (2 Bft) 100,00 %
24.11.2016 03:54 5,4 C 99 % 1018,3 hPa 0,0 l/m 5,1 km/h (1 Bft) NO 44 0 min 0,000 mm 0,0 UV-I 0 W/m 5,3 C 5,4 C 6,4 km/h (2 Bft) 100,00 %
24.11.2016 03:56 5,4 C 99 % 1018,4 hPa 0,0 l/m 3,3 km/h (1 Bft) NO 51 0 min 0,000 mm 0,0 UV-I 0 W/m 5,3 C 5,4 C 6,4 km/h (2 Bft) 100,00 %
24.11.2016 03:58 5,4 C 99 % 1018,3 hPa 0,0 l/m 5,2 km/h (1 Bft) NO 49 0 min 0,000 mm 0,0 UV-I 0 W/m 5,3 C 5,4 C 8,0 km/h (2 Bft) 100,00 %
24.11.2016 04:00 5,4 C 99 % 1018,3 hPa 0,0 l/m 5,5 km/h (1 Bft) O-NO 59 0 min 0,000 mm 0,0 UV-I 0 W/m 5,3 C 5,4 C 8,0 km/h (2 Bft) 100,00 %
24.11.2016 04:02 5,4 C 99 % 1018,2 hPa 0,0 l/m 5,3 km/h (1 Bft) O-NO 63 0 min 0,000 mm 0,0 UV-I 0 W/m 5,3 C 5,4 C 8,0 km/h (2 Bft) 100,00 %
24.11.2016 04:04 5,4 C 99 % 1018,2 hPa 0,0 l/m 5,6 km/h (1 Bft) O-NO 59 0 min 0,000 mm 0,0 UV-I 0 W/m 5,3 C 5,4 C 8,0 km/h (2 Bft) 100,00 %
24.11.2016 04:06 5,4 C 99 % 1018,2 hPa 0,0 l/m 6,4 km/h (2 Bft) O-NO 57 0 min 0,000 mm 0,0 UV-I 0 W/m 5,3 C 5,4 C 8,0 km/h (2 Bft) 100,00 %
24.11.2016 04:08 5,4 C 99 % 1018,2 hPa 0,0 l/m 7,1 km/h (2 Bft) O-NO 59 0 min 0,000 mm 0,0 UV-I 0 W/m 5,3 C 4,8 C 8,0 km/h (2 Bft) 100,00 %
24.11.2016 04:10 5,4 C 99 % 1018,2 hPa 0,0 l/m 5,6 km/h (1 Bft) NO 48 0 min 0,000 mm 0,0 UV-I 0 W/m 5,3 C 5,4 C 8,0 km/h (2 Bft) 100,00 %
24.11.2016 04:12 5,4 C 99 % 1018,3 hPa 0,0 l/m 4,8 km/h (1 Bft) O-NO 59 0 min 0,000 mm 0,0 UV-I 0 W/m 5,3 C 5,4 C 6,4 km/h (2 Bft) 100,00 %
24.11.2016 04:14 5,4 C 99 % 1018,2 hPa 0,0 l/m 4,8 km/h (1 Bft) O-NO 61 0 min 0,000 mm 0,0 UV-I 0 W/m 5,3 C 5,4 C 8,0 km/h (2 Bft) 100,00 %
24.11.2016 04:16 5,4 C 99 % 1018,1 hPa 0,0 l/m 6,6 km/h (2 Bft) NO 55 0 min 0,000 mm 0,0 UV-I 0 W/m 5,3 C 5,2 C 9,7 km/h (2 Bft) 100,00 %
24.11.2016 04:18 5,4 C 99 % 1018,1 hPa 0,0 l/m 6,5 km/h (2 Bft) O-NO 59 0 min 0,000 mm 0,0 UV-I 0 W/m 5,3 C 5,3 C 8,0 km/h (2 Bft) 100,00 %
24.11.2016 04:20 5,4 C 99 % 1018,1 hPa 0,0 l/m 5,5 km/h (1 Bft) N-NO 29 0 min 0,000 mm 0,0 UV-I 0 W/m 5,3 C 5,4 C 9,7 km/h (2 Bft) 100,00 %
24.11.2016 04:22 5,4 C 99 % 1018,1 hPa 0,0 l/m 4,4 km/h (1 Bft) NO 53 0 min 0,000 mm 0,0 UV-I 0 W/m 5,3 C 5,4 C 8,0 km/h (2 Bft) 100,00 %
24.11.2016 04:24 5,4 C 99 % 1018,2 hPa 0,0 l/m 4,9 km/h (1 Bft) NO 53 0 min 0,000 mm 0,0 UV-I 0 W/m 5,3 C 5,4 C 6,4 km/h (2 Bft) 100,00 %
24.11.2016 04:26 5,5 C 99 % 1018,2 hPa 0,0 l/m 3,8 km/h (1 Bft) NO 54 0 min 0,000 mm 0,0 UV-I 0 W/m 5,4 C 5,5 C 4,8 km/h (1 Bft) 100,00 %
24.11.2016 04:28 5,5 C 99 % 1018,2 hPa 0,0 l/m 4,1 km/h (1 Bft) O-NO 69 0 min 0,000 mm 0,0 UV-I 0 W/m 5,4 C 5,5 C 6,4 km/h (2 Bft) 100,00 %
24.11.2016 04:30 5,5 C 99 % 1018,1 hPa 0,0 l/m 6,2 km/h (2 Bft) NO 54 0 min 0,000 mm 0,0 UV-I 0 W/m 5,4 C 5,5 C 9,7 km/h (2 Bft) 98,44 %
24.11.2016 04:32 5,4 C 99 % 1018,2 hPa 0,0 l/m 4,9 km/h (1 Bft) O-NO 63 0 min 0,000 mm 0,0 UV-I 0 W/m 5,3 C 5,4 C 8,0 km/h (2 Bft) 97,44 %
24.11.2016 04:34 5,4 C 99 % 1018,2 hPa 0,0 l/m 5,8 km/h (2 Bft) N-NO 32 0 min 0,000 mm 0,0 UV-I 0 W/m 5,3 C 5,4 C 8,0 km/h (2 Bft) 96,00 %
24.11.2016 04:36 5,5 C 99 % 1018,1 hPa 0,0 l/m 6,9 km/h (2 Bft) NO 52 0 min 0,000 mm 0,0 UV-I 0 W/m 5,4 C 5,1 C 11,3 km/h (2 Bft) 98,00 %
24.11.2016 04:38 5,5 C 99 % 1018,1 hPa 0,0 l/m 5,7 km/h (1 Bft) NO 34 0 min 0,000 mm 0,0 UV-I 0 W/m 5,4 C 5,5 C 8,0 km/h (2 Bft) 97,37 %
24.11.2016 04:40 5,5 C 99 % 1018,1 hPa 0,0 l/m 6,8 km/h (2 Bft) NO 39 0 min 0,000 mm 0,0 UV-I 0 W/m 5,4 C 5,2 C 9,7 km/h (2 Bft) 94,34 %
24.11.2016 04:42 5,5 C 99 % 1018,1 hPa 0,0 l/m 5,0 km/h (1 Bft) NO 39 0 min 0,000 mm 0,0 UV-I 0 W/m 5,4 C 5,5 C 8,0 km/h (2 Bft) 98,00 %
24.11.2016 04:44 5,5 C 99 % 1018,1 hPa 0,0 l/m 3,9 km/h (1 Bft) NO 56 0 min 0,000 mm 0,0 UV-I 0 W/m 5,4 C 5,5 C 6,4 km/h (2 Bft) 95,45 %
24.11.2016 04:46 5,6 C 99 % 1018,1 hPa 0,0 l/m 5,4 km/h (1 Bft) O-NO 61 0 min 0,000 mm 0,0 UV-I 0 W/m 5,5 C 5,6 C 6,4 km/h (2 Bft) 95,12 %
24.11.2016 04:48 5,6 C 99 % 1018,1 hPa 0,0 l/m 5,5 km/h (1 Bft) O-NO 68 0 min 0,000 mm 0,0 UV-I 0 W/m 5,5 C 5,6 C 9,7 km/h (2 Bft) 98,11 %
24.11.2016 04:50 5,6 C 99 % 1018,1 hPa 0,0 l/m 5,5 km/h (1 Bft) O-NO 60 0 min 0,000 mm 0,0 UV-I 0 W/m 5,5 C 5,6 C 8,0 km/h (2 Bft) 98,11 %
24.11.2016 04:52 5,5 C 99 % 1018,2 hPa 0,0 l/m 4,3 km/h (1 Bft) O-NO 60 0 min 0,000 mm 0,0 UV-I 0 W/m 5,4 C 5,5 C 6,4 km/h (2 Bft) 95,12 %
24.11.2016 04:54 5,5 C 99 % 1018,1 hPa 0,0 l/m 5,2 km/h (1 Bft) NO 53 0 min 0,000 mm 0,0 UV-I 0 W/m 5,4 C 5,5 C 8,0 km/h (2 Bft) 97,37 %
24.11.2016 04:56 5,5 C 99 % 1018,0 hPa 0,0 l/m 5,8 km/h (2 Bft) NO 54 0 min 0,000 mm 0,0 UV-I 0 W/m 5,4 C 5,5 C 8,0 km/h (2 Bft) 96,43 %
24.11.2016 04:58 5,6 C 99 % 1018,0 hPa 0,0 l/m 6,6 km/h (2 Bft) N-NO 33 0 min 0,000 mm 0,0 UV-I 0 W/m 5,5 C 5,4 C 8,0 km/h (2 Bft) 98,00 %
24.11.2016 05:00 5,6 C 99 % 1017,9 hPa 0,0 l/m 6,8 km/h (2 Bft) NO 51 0 min 0,000 mm 0,0 UV-I 0 W/m 5,5 C 5,3 C 9,7 km/h (2 Bft) 97,87 %
24.11.2016 05:02 5,6 C 99 % 1017,9 hPa 0,0 l/m 6,1 km/h (2 Bft) NO 48 0 min 0,000 mm 0,0 UV-I 0 W/m 5,5 C 5,6 C 9,7 km/h (2 Bft) 97,37 %
24.11.2016 05:04 5,6 C 99 % 1017,9 hPa 0,0 l/m 6,3 km/h (2 Bft) O-NO 64 0 min 0,000 mm 0,0 UV-I 0 W/m 5,5 C 5,6 C 8,0 km/h (2 Bft) 98,21 %
24.11.2016 05:06 5,6 C 99 % 1017,9 hPa 0,0 l/m 5,4 km/h (1 Bft) O-NO 67 0 min 0,000 mm 0,0 UV-I 0 W/m 5,5 C 5,6 C 8,0 km/h (2 Bft) 100,00 %
24.11.2016 05:08 5,6 C 99 % 1017,9 hPa 0,0 l/m 7,3 km/h (2 Bft) O-NO 77 0 min 0,000 mm 0,0 UV-I 0 W/m 5,5 C 4,8 C 9,7 km/h (2 Bft) 100,00 %
24.11.2016 05:10 5,6 C 99 % 1017,9 hPa 0,0 l/m 6,8 km/h (2 Bft) O-NO 65 0 min 0,000 mm 0,0 UV-I 0 W/m 5,5 C 5,3 C 12,9 km/h (3 Bft) 100,00 %
24.11.2016 05:12 5,6 C 99 % 1017,8 hPa 0,0 l/m 8,3 km/h (2 Bft) O-NO 59 0 min 0,000 mm 0,0 UV-I 0 W/m 5,5 C 4,0 C 12,9 km/h (3 Bft) 97,87 %
24.11.2016 05:14 5,5 C 99 % 1017,7 hPa 0,0 l/m 8,3 km/h (2 Bft) NO 49 0 min 0,000 mm 0,0 UV-I 0 W/m 5,4 C 3,9 C 12,9 km/h (3 Bft) 97,87 %
24.11.2016 05:16 5,5 C 99 % 1017,7 hPa 0,0 l/m 8,1 km/h (2 Bft) O-NO 61 0 min 0,000 mm 0,0 UV-I 0 W/m 5,4 C 4,0 C 12,9 km/h (3 Bft) 100,00 %
24.11.2016 05:18 5,5 C 99 % 1017,7 hPa 0,0 l/m 9,3 km/h (2 Bft) NO 36 0 min 0,000 mm 0,0 UV-I 0 W/m 5,4 C 3,1 C 14,5 km/h (3 Bft) 97,37 %
24.11.2016 05:20 5,5 C 99 % 1017,7 hPa 0,0 l/m 6,9 km/h (2 Bft) NO 46 0 min 0,000 mm 0,0 UV-I 0 W/m 5,4 C 5,1 C 9,7 km/h (2 Bft) 100,00 %
24.11.2016 05:22 5,5 C 99 % 1017,7 hPa 0,0 l/m 5,2 km/h (1 Bft) NO 40 0 min 0,000 mm 0,0 UV-I 0 W/m 5,4 C 5,5 C 8,0 km/h (2 Bft) 100,00 %
24.11.2016 05:24 5,5 C 99 % 1017,8 hPa 0,0 l/m 5,0 km/h (1 Bft) N-NO 30 0 min 0,000 mm 0,0 UV-I 0 W/m 5,4 C 5,5 C 9,7 km/h (2 Bft) 100,00 %
24.11.2016 05:26 5,5 C 99 % 1017,8 hPa 0,0 l/m 5,0 km/h (1 Bft) NO 36 0 min 0,000 mm 0,0 UV-I 0 W/m 5,4 C 5,5 C 6,4 km/h (2 Bft) 100,00 %
24.11.2016 05:28 5,5 C 99 % 1017,9 hPa 0,0 l/m 5,1 km/h (1 Bft) O-NO 69 0 min 0,000 mm 0,0 UV-I 0 W/m 5,4 C 5,5 C 8,0 km/h (2 Bft) 100,00 %
24.11.2016 05:30 5,6 C 99 % 1017,9 hPa 0,0 l/m 4,4 km/h (1 Bft) O-NO 62 0 min 0,000 mm 0,0 UV-I 0 W/m 5,5 C 5,6 C 6,4 km/h (2 Bft) 100,00 %
24.11.2016 05:32 5,6 C 99 % 1018,1 hPa 0,0 l/m 4,8 km/h (1 Bft) NO 55 0 min 0,000 mm 0,0 UV-I 0 W/m 5,5 C 5,6 C 6,4 km/h (2 Bft) 100,00 %
24.11.2016 05:34 5,6 C 99 % 1018,1 hPa 0,0 l/m 2,7 km/h (1 Bft) NO 55 0 min 0,000 mm 0,0 UV-I 0 W/m 5,5 C 5,6 C 4,8 km/h (1 Bft) 100,00 %
24.11.2016 05:36 5,6 C 99 % 1018,1 hPa 0,0 l/m 1,7 km/h (1 Bft) NO 55 0 min 0,000 mm 0,0 UV-I 0 W/m 5,5 C 5,6 C 3,2 km/h (1 Bft) 100,00 %
24.11.2016 05:38 5,6 C 99 % 1018,1 hPa 0,0 l/m 2,7 km/h (1 Bft) O-NO 63 0 min 0,000 mm 0,0 UV-I 0 W/m 5,5 C 5,6 C 4,8 km/h (1 Bft) 100,00 %
24.11.2016 05:40 5,6 C 99 % 1018,0 hPa 0,0 l/m 2,9 km/h (1 Bft) O-NO 63 0 min 0,000 mm 0,0 UV-I 0 W/m 5,5 C 5,6 C 4,8 km/h (1 Bft) 100,00 %
24.11.2016 05:42 5,6 C 99 % 1018,0 hPa 0,0 l/m 3,6 km/h (1 Bft) O-NO 63 0 min 0,000 mm 0,0 UV-I 0 W/m 5,5 C 5,6 C 4,8 km/h (1 Bft) 97,87 %
24.11.2016 05:44 5,6 C 99 % 1018,0 hPa 0,0 l/m 3,1 km/h (1 Bft) O-NO 63 0 min 0,000 mm 0,0 UV-I 0 W/m 5,5 C 5,6 C 4,8 km/h (1 Bft) 97,37 %
24.11.2016 05:46 5,6 C 99 % 1018,0 hPa 0,0 l/m 3,6 km/h (1 Bft) O-NO 63 0 min 0,000 mm 0,0 UV-I 0 W/m 5,5 C 5,6 C 6,4 km/h (2 Bft) 97,96 %
24.11.2016 05:48 5,6 C 99 % 1018,0 hPa 0,0 l/m 4,7 km/h (1 Bft) O-NO 63 0 min 0,000 mm 0,0 UV-I 0 W/m 5,5 C 5,6 C 6,4 km/h (2 Bft) 100,00 %
24.11.2016 05:50 5,6 C 99 % 1018,0 hPa 0,0 l/m 4,0 km/h (1 Bft) O-NO 63 0 min 0,000 mm 0,0 UV-I 0 W/m 5,5 C 5,6 C 6,4 km/h (2 Bft) 100,00 %
24.11.2016 05:52 5,6 C 99 % 1018,0 hPa 0,0 l/m 3,6 km/h (1 Bft) NO 55 0 min 0,000 mm 0,0 UV-I 0 W/m 5,5 C 5,6 C 6,4 km/h (2 Bft) 100,00 %
24.11.2016 05:54 5,6 C 99 % 1017,9 hPa 0,0 l/m 4,8 km/h (1 Bft) NO 55 0 min 0,000 mm 0,0 UV-I 0 W/m 5,5 C 5,6 C 6,4 km/h (2 Bft) 100,00 %
24.11.2016 05:56 5,6 C 99 % 1017,9 hPa 0,0 l/m 6,2 km/h (2 Bft) O-NO 59 0 min 0,000 mm 0,0 UV-I 0 W/m 5,5 C 5,6 C 8,0 km/h (2 Bft) 97,87 %
24.11.2016 05:58 5,6 C 99 % 1018,0 hPa 0,0 l/m 4,9 km/h (1 Bft) NO 36 0 min 0,000 mm 0,0 UV-I 0 W/m 5,5 C 5,6 C 8,0 km/h (2 Bft) 100,00 %
24.11.2016 06:00 5,6 C 99 % 1018,0 hPa 0,0 l/m 5,7 km/h (1 Bft) NO 56 0 min 0,000 mm 0,0 UV-I 0 W/m 5,5 C 5,6 C 8,0 km/h (2 Bft) 100,00 %
24.11.2016 06:02 5,6 C 99 % 1018,1 hPa 0,0 l/m 3,8 km/h (1 Bft) NO 56 0 min 0,000 mm 0,0 UV-I 0 W/m 5,5 C 5,6 C 4,8 km/h (1 Bft) 100,00 %
24.11.2016 06:04 5,6 C 99 % 1018,0 hPa 0,0 l/m 5,1 km/h (1 Bft) O-NO 72 0 min 0,000 mm 0,0 UV-I 0 W/m 5,5 C 5,6 C 6,4 km/h (2 Bft) 100,00 %
24.11.2016 06:06 5,6 C 99 % 1018,0 hPa 0,0 l/m 4,5 km/h (1 Bft) O-NO 65 0 min 0,000 mm 0,0 UV-I 0 W/m 5,5 C 5,6 C 6,4 km/h (2 Bft) 100,00 %
24.11.2016 06:08 5,6 C 99 % 1018,0 hPa 0,0 l/m 4,9 km/h (1 Bft) O-NO 64 0 min 0,000 mm 0,0 UV-I 0 W/m 5,5 C 5,6 C 6,4 km/h (2 Bft) 100,00 %
24.11.2016 06:10 5,6 C 99 % 1017,9 hPa 0,0 l/m 5,4 km/h (1 Bft) O-NO 63 0 min 0,000 mm 0,0 UV-I 0 W/m 5,5 C 5,6 C 8,0 km/h (2 Bft) 100,00 %
24.11.2016 06:12 5,6 C 99 % 1017,9 hPa 0,0 l/m 5,6 km/h (1 Bft) O-NO 67 0 min 0,000 mm 0,0 UV-I 0 W/m 5,5 C 5,6 C 8,0 km/h (2 Bft) 100,00 %
24.11.2016 06:14 5,6 C 99 % 1017,8 hPa 0,0 l/m 5,1 km/h (1 Bft) NO 55 0 min 0,000 mm 0,0 UV-I 0 W/m 5,5 C 5,6 C 8,0 km/h (2 Bft) 100,00 %
24.11.2016 06:16 5,6 C 99 % 1017,8 hPa 0,0 l/m 5,1 km/h (1 Bft) NO 37 0 min 0,000 mm 0,0 UV-I 0 W/m 5,5 C 5,6 C 8,0 km/h (2 Bft) 100,00 %
24.11.2016 06:18 5,6 C 99 % 1017,9 hPa 0,0 l/m 5,5 km/h (1 Bft) NO 47 0 min 0,000 mm 0,0 UV-I 0 W/m 5,5 C 5,6 C 8,0 km/h (2 Bft) 100,00 %
24.11.2016 06:20 5,6 C 99 % 1017,8 hPa 0,0 l/m 6,8 km/h (2 Bft) NO 36 0 min 0,000 mm 0,0 UV-I 0 W/m 5,5 C 5,3 C 9,7 km/h (2 Bft) 98,21 %
24.11.2016 06:22 5,6 C 99 % 1017,9 hPa 0,0 l/m 5,8 km/h (2 Bft) NO 43 0 min 0,000 mm 0,0 UV-I 0 W/m 5,5 C 5,6 C 9,7 km/h (2 Bft) 100,00 %
24.11.2016 06:24 5,6 C 99 % 1017,9 hPa 0,0 l/m 4,2 km/h (1 Bft) O 80 0 min 0,000 mm 0,0 UV-I 0 W/m 5,5 C 5,6 C 6,4 km/h (2 Bft) 97,87 %
24.11.2016 06:26 5,6 C 99 % 1017,9 hPa 0,0 l/m 6,5 km/h (2 Bft) O-NO 62 0 min 0,000 mm 0,0 UV-I 0 W/m 5,5 C 5,5 C 9,7 km/h (2 Bft) 98,11 %
24.11.2016 06:28 5,6 C 99 % 1017,9 hPa 0,0 l/m 7,1 km/h (2 Bft) O-NO 61 0 min 0,000 mm 0,0 UV-I 0 W/m 5,5 C 5,0 C 11,3 km/h (2 Bft) 100,00 %
24.11.2016 06:30 5,6 C 99 % 1017,9 hPa 0,0 l/m 4,9 km/h (1 Bft) O-NO 62 0 min 0,000 mm 0,0 UV-I 0 W/m 5,5 C 5,6 C 8,0 km/h (2 Bft) 97,87 %
24.11.2016 06:32 5,6 C 99 % 1017,9 hPa 0,0 l/m 4,7 km/h (1 Bft) O-NO 59 0 min 0,000 mm 0,0 UV-I 0 W/m 5,5 C 5,6 C 8,0 km/h (2 Bft) 98,00 %
24.11.2016 06:34 5,7 C 99 % 1017,9 hPa 0,0 l/m 4,6 km/h (1 Bft) NO 51 0 min 0,000 mm 0,0 UV-I 0 W/m 5,6 C 5,7 C 6,4 km/h (2 Bft) 97,56 %
24.11.2016 06:36 5,7 C 99 % 1017,9 hPa 0,0 l/m 5,8 km/h (2 Bft) NO 49 0 min 0,000 mm 0,0 UV-I 0 W/m 5,6 C 5,7 C 9,7 km/h (2 Bft) 96,00 %
24.11.2016 06:38 5,7 C 99 % 1017,9 hPa 0,0 l/m 6,4 km/h (2 Bft) NO 53 0 min 0,000 mm 0,0 UV-I 0 W/m 5,6 C 5,7 C 9,7 km/h (2 Bft) 98,00 %
24.11.2016 06:40 5,7 C 99 % 1017,9 hPa 0,0 l/m 4,6 km/h (1 Bft) NO 53 0 min 0,000 mm 0,0 UV-I 0 W/m 5,6 C 5,7 C 8,0 km/h (2 Bft) 95,74 %
24.11.2016 06:42 5,7 C 99 % 1017,9 hPa 0,0 l/m 6,4 km/h (2 Bft) NO 46 0 min 0,000 mm 0,0 UV-I 0 W/m 5,6 C 5,7 C 9,7 km/h (2 Bft) 97,92 %
24.11.2016 06:44 5,7 C 99 % 1017,9 hPa 0,0 l/m 7,8 km/h (2 Bft) O-NO 68 0 min 0,000 mm 0,0 UV-I 0 W/m 5,6 C 4,5 C 12,9 km/h (3 Bft) 95,12 %
24.11.2016 06:46 5,7 C 99 % 1017,8 hPa 0,0 l/m 7,2 km/h (2 Bft) O-NO 69 0 min 0,000 mm 0,0 UV-I 0 W/m 5,6 C 5,0 C 9,7 km/h (2 Bft) 98,21 %
24.11.2016 06:48 5,7 C 99 % 1017,8 hPa 0,0 l/m 7,4 km/h (2 Bft) O-NO 57 0 min 0,000 mm 0,0 UV-I 0 W/m 5,6 C 4,8 C 12,9 km/h (3 Bft) 97,14 %
24.11.2016 06:50 5,7 C 99 % 1017,8 hPa 0,0 l/m 6,6 km/h (2 Bft) O-NO 61 0 min 0,000 mm 0,0 UV-I 0 W/m 5,6 C 5,6 C 9,7 km/h (2 Bft) 98,11 %
24.11.2016 06:52 5,7 C 99 % 1017,8 hPa 0,0 l/m 4,8 km/h (1 Bft) NO 47 0 min 0,000 mm 0,0 UV-I 0 W/m 5,6 C 5,7 C 8,0 km/h (2 Bft) 98,00 %
24.11.2016 06:54 5,7 C 99 % 1017,8 hPa 0,0 l/m 4,5 km/h (1 Bft) O-NO 67 0 min 0,000 mm 0,0 UV-I 0 W/m 5,6 C 5,7 C 8,0 km/h (2 Bft) 97,87 %
24.11.2016 06:56 5,7 C 99 % 1017,8 hPa 0,0 l/m 5,7 km/h (1 Bft) NO 42 0 min 0,000 mm 0,0 UV-I 0 W/m 5,6 C 5,7 C 8,0 km/h (2 Bft) 97,37 %
24.11.2016 06:58 5,7 C 99 % 1017,7 hPa 0,0 l/m 7,4 km/h (2 Bft) N-NO 23 0 min 0,000 mm 0,0 UV-I 0 W/m 5,6 C 4,8 C 9,7 km/h (2 Bft) 96,00 %
24.11.2016 07:00 5,7 C 99 % 1017,7 hPa 0,0 l/m 8,4 km/h (2 Bft) NO 55 0 min 0,000 mm 0,0 UV-I 0 W/m 5,6 C 4,0 C 12,9 km/h (3 Bft) 97,87 %
24.11.2016 07:02 5,7 C 99 % 1017,8 hPa 0,0 l/m 7,5 km/h (2 Bft) O-NO 63 0 min 0,000 mm 0,0 UV-I 0 W/m 5,6 C 4,8 C 14,5 km/h (3 Bft) 98,11 %
24.11.2016 07:04 5,7 C 99 % 1017,8 hPa 0,0 l/m 6,3 km/h (2 Bft) O-NO 62 0 min 0,000 mm 0,0 UV-I 0 W/m 5,6 C 5,7 C 12,9 km/h (3 Bft) 97,44 %
24.11.2016 07:06 5,7 C 99 % 1017,8 hPa 0,0 l/m 8,0 km/h (2 Bft) NO 47 0 min 0,000 mm 0,0 UV-I 0 W/m 5,6 C 4,3 C 12,9 km/h (3 Bft) 96,15 %
24.11.2016 07:08 5,7 C 99 % 1017,8 hPa 0,0 l/m 5,4 km/h (1 Bft) O-NO 57 0 min 0,000 mm 0,0 UV-I 0 W/m 5,6 C 5,7 C 8,0 km/h (2 Bft) 94,87 %
24.11.2016 07:10 5,7 C 99 % 1017,9 hPa 0,0 l/m 5,4 km/h (1 Bft) NO 50 0 min 0,000 mm 0,0 UV-I 0 W/m 5,6 C 5,7 C 8,0 km/h (2 Bft) 98,11 %
24.11.2016 07:12 5,7 C 99 % 1017,9 hPa 0,0 l/m 5,3 km/h (1 Bft) NO 56 0 min 0,000 mm 0,0 UV-I 0 W/m 5,6 C 5,7 C 8,0 km/h (2 Bft) 100,00 %
24.11.2016 07:14 5,7 C 99 % 1017,9 hPa 0,0 l/m 6,4 km/h (2 Bft) NO 36 0 min 0,000 mm 0,0 UV-I 0 W/m 5,6 C 5,7 C 9,7 km/h (2 Bft) 98,00 %
24.11.2016 07:16 5,7 C 99 % 1017,9 hPa 0,0 l/m 7,6 km/h (2 Bft) NO 44 0 min 0,000 mm 0,0 UV-I 0 W/m 5,6 C 4,7 C 9,7 km/h (2 Bft) 100,00 %
24.11.2016 07:18 5,7 C 99 % 1017,9 hPa 0,0 l/m 5,8 km/h (2 Bft) NO 44 0 min 0,000 mm 0,0 UV-I 0 W/m 5,6 C 5,7 C 8,0 km/h (2 Bft) 95,45 %
24.11.2016 07:20 5,7 C 99 % 1018,0 hPa 0,0 l/m 6,4 km/h (2 Bft) O-NO 68 0 min 0,000 mm 0,0 UV-I 0 W/m 5,6 C 5,7 C 8,0 km/h (2 Bft) 100,00 %
24.11.2016 07:22 5,7 C 99 % 1018,0 hPa 0,0 l/m 5,6 km/h (1 Bft) O-NO 59 0 min 0,000 mm 0,0 UV-I 0 W/m 5,6 C 5,7 C 8,0 km/h (2 Bft) 100,00 %
24.11.2016 07:24 5,7 C 99 % 1018,0 hPa 0,0 l/m 4,5 km/h (1 Bft) NO 43 0 min 0,000 mm 0,0 UV-I 0 W/m 5,6 C 5,7 C 8,0 km/h (2 Bft) 98,11 %
24.11.2016 07:26 5,8 C 99 % 1018,0 hPa 0,0 l/m 3,9 km/h (1 Bft) NO 42 0 min 0,000 mm 0,0 UV-I 0 W/m 5,7 C 5,8 C 6,4 km/h (2 Bft) 100,00 %
24.11.2016 07:28 5,7 C 99 % 1018,0 hPa 0,0 l/m 5,1 km/h (1 Bft) NO 49 0 min 0,000 mm 0,0 UV-I 0 W/m 5,6 C 5,7 C 8,0 km/h (2 Bft) 97,56 %
24.11.2016 07:30 5,8 C 99 % 1018,2 hPa 0,0 l/m 4,9 km/h (1 Bft) O-NO 58 0 min 0,000 mm 0,0 UV-I 0 W/m 5,7 C 5,8 C 6,4 km/h (2 Bft) 100,00 %
24.11.2016 07:32 5,8 C 99 % 1018,2 hPa 0,0 l/m 5,4 km/h (1 Bft) NO 56 0 min 0,000 mm 0,0 UV-I 1 W/m 5,7 C 5,8 C 9,7 km/h (2 Bft) 100,00 %
24.11.2016 07:34 5,8 C 99 % 1018,2 hPa 0,0 l/m 4,8 km/h (1 Bft) NO 56 0 min 0,000 mm 0,0 UV-I 5 W/m 5,7 C 5,8 C 8,0 km/h (2 Bft) 98,00 %
24.11.2016 07:36 5,8 C 99 % 1018,3 hPa 0,0 l/m 4,3 km/h (1 Bft) O-NO 61 0 min 0,000 mm 0,0 UV-I 5 W/m 5,7 C 5,8 C 6,4 km/h (2 Bft) 100,00 %
24.11.2016 07:38 5,8 C 99 % 1018,3 hPa 0,0 l/m 4,0 km/h (1 Bft) O-NO 60 0 min 0,000 mm 0,0 UV-I 5 W/m 5,7 C 5,8 C 6,4 km/h (2 Bft) 100,00 %
24.11.2016 07:40 5,8 C 99 % 1018,2 hPa 0,0 l/m 5,1 km/h (1 Bft) NO 54 0 min 0,000 mm 0,0 UV-I 5 W/m 5,7 C 5,8 C 8,0 km/h (2 Bft) 100,00 %
24.11.2016 07:42 5,8 C 99 % 1018,3 hPa 0,0 l/m 5,4 km/h (1 Bft) O-NO 60 0 min 0,000 mm 0,0 UV-I 5 W/m 5,7 C 5,8 C 8,0 km/h (2 Bft) 100,00 %
24.11.2016 07:44 5,8 C 99 % 1018,3 hPa 0,0 l/m 5,2 km/h (1 Bft) O-NO 58 0 min 0,000 mm 0,0 UV-I 6 W/m 5,7 C 5,8 C 6,4 km/h (2 Bft) 100,00 %
24.11.2016 07:46 5,8 C 99 % 1018,3 hPa 0,0 l/m 5,8 km/h (2 Bft) O-NO 63 0 min 0,000 mm 0,0 UV-I 7 W/m 5,7 C 5,8 C 8,0 km/h (2 Bft) 100,00 %
24.11.2016 07:48 5,8 C 99 % 1018,3 hPa 0,0 l/m 5,7 km/h (1 Bft) O-NO 64 0 min 0,000 mm 0,0 UV-I 7 W/m 5,7 C 5,8 C 8,0 km/h (2 Bft) 100,00 %
24.11.2016 07:50 5,8 C 99 % 1018,2 hPa 0,0 l/m 6,3 km/h (2 Bft) O-NO 59 0 min 0,000 mm 0,0 UV-I 7 W/m 5,7 C 5,8 C 9,7 km/h (2 Bft) 100,00 %
24.11.2016 07:52 5,8 C 99 % 1018,2 hPa 0,0 l/m 5,7 km/h (1 Bft) O-NO 63 0 min 0,000 mm 0,0 UV-I 9 W/m 5,7 C 5,8 C 8,0 km/h (2 Bft) 100,00 %
24.11.2016 07:54 5,8 C 99 % 1018,3 hPa 0,0 l/m 5,9 km/h (2 Bft) NO 42 0 min 0,000 mm 0,0 UV-I 9 W/m 5,7 C 5,8 C 8,0 km/h (2 Bft) 100,00 %
24.11.2016 07:56 5,8 C 99 % 1018,3 hPa 0,0 l/m 4,8 km/h (1 Bft) NO 53 0 min 0,000 mm 0,0 UV-I 9 W/m 5,7 C 5,8 C 8,0 km/h (2 Bft) 96,00 %
24.11.2016 07:58 5,8 C 99 % 1018,3 hPa 0,0 l/m 3,7 km/h (1 Bft) NO 36 0 min 0,000 mm 0,0 UV-I 9 W/m 5,7 C 5,8 C 6,4 km/h (2 Bft) 98,11 %
24.11.2016 08:00 5,9 C 99 % 1018,4 hPa 0,0 l/m 5,5 km/h (1 Bft) NO 49 0 min 0,000 mm 0,0 UV-I 9 W/m 5,8 C 5,9 C 8,0 km/h (2 Bft) 100,00 %
24.11.2016 08:02 5,9 C 99 % 1018,4 hPa 0,0 l/m 4,0 km/h (1 Bft) NO 52 0 min 0,000 mm 0,0 UV-I 11 W/m 5,8 C 5,9 C 6,4 km/h (2 Bft) 98,11 %
24.11.2016 08:04 5,9 C 99 % 1018,4 hPa 0,0 l/m 5,4 km/h (1 Bft) NO 45 0 min 0,000 mm 0,0 UV-I 12 W/m 5,8 C 5,9 C 8,0 km/h (2 Bft) 100,00 %
24.11.2016 08:06 5,9 C 99 % 1018,4 hPa 0,0 l/m 4,9 km/h (1 Bft) NO 45 0 min 0,000 mm 0,0 UV-I 12 W/m 5,8 C 5,9 C 8,0 km/h (2 Bft) 100,00 %
24.11.2016 08:08 5,9 C 99 % 1018,4 hPa 0,0 l/m 3,1 km/h (1 Bft) N-NO 30 0 min 0,000 mm 0,0 UV-I 14 W/m 5,8 C 5,9 C 6,4 km/h (2 Bft) 100,00 %
24.11.2016 08:10 5,9 C 99 % 1018,4 hPa 0,0 l/m 5,2 km/h (1 Bft) NO 47 0 min 0,000 mm 0,0 UV-I 17 W/m 5,8 C 5,9 C 8,0 km/h (2 Bft) 100,00 %
24.11.2016 08:12 5,9 C 99 % 1018,5 hPa 0,0 l/m 5,1 km/h (1 Bft) O-NO 59 0 min 0,000 mm 0,0 UV-I 18 W/m 5,8 C 5,9 C 6,4 km/h (2 Bft) 100,00 %
24.11.2016 08:14 5,9 C 99 % 1018,5 hPa 0,0 l/m 4,5 km/h (1 Bft) O-NO 59 0 min 0,000 mm 0,0 UV-I 18 W/m 5,8 C 5,9 C 6,4 km/h (2 Bft) 100,00 %
24.11.2016 08:16 5,9 C 99 % 1018,5 hPa 0,0 l/m 6,4 km/h (2 Bft) NO 49 0 min 0,000 mm 0,0 UV-I 18 W/m 5,8 C 5,9 C 8,0 km/h (2 Bft) 97,73 %
24.11.2016 08:18 6,0 C 99 % 1018,5 hPa 0,0 l/m 5,6 km/h (1 Bft) NO 40 0 min 0,000 mm 0,0 UV-I 18 W/m 5,9 C 6,0 C 6,4 km/h (2 Bft) 97,73 %
24.11.2016 08:20 6,0 C 99 % 1018,6 hPa 0,0 l/m 8,6 km/h (2 Bft) O-NO 67 0 min 0,000 mm 0,0 UV-I 19 W/m 5,9 C 4,2 C 12,9 km/h (3 Bft) 100,00 %
24.11.2016 08:22 6,0 C 99 % 1018,6 hPa 0,0 l/m 6,6 km/h (2 Bft) O-NO 58 0 min 0,000 mm 0,0 UV-I 20 W/m 5,9 C 5,9 C 8,0 km/h (2 Bft) 100,00 %
24.11.2016 08:24 6,0 C 99 % 1018,6 hPa 0,0 l/m 4,5 km/h (1 Bft) O-NO 61 0 min 0,000 mm 0,0 UV-I 19 W/m 5,9 C 6,0 C 6,4 km/h (2 Bft) 95,12 %
24.11.2016 08:26 6,1 C 99 % 1018,6 hPa 0,0 l/m 6,4 km/h (2 Bft) N-NO 30 0 min 0,000 mm 0,0 UV-I 20 W/m 6,0 C 6,1 C 8,0 km/h (2 Bft) 100,00 %
24.11.2016 08:28 6,1 C 99 % 1018,7 hPa 0,0 l/m 8,1 km/h (2 Bft) O-NO 73 0 min 0,000 mm 0,0 UV-I 23 W/m 6,0 C 4,7 C 11,3 km/h (2 Bft) 100,00 %
24.11.2016 08:30 6,1 C 99 % 1018,7 hPa 0,0 l/m 5,9 km/h (2 Bft) O-NO 63 0 min 0,000 mm 0,0 UV-I 23 W/m 6,0 C 6,1 C 9,7 km/h (2 Bft) 97,37 %
24.11.2016 08:32 6,1 C 99 % 1018,7 hPa 0,0 l/m 6,9 km/h (2 Bft) NO 46 0 min 0,000 mm 0,0 UV-I 22 W/m 6,0 C 5,7 C 12,9 km/h (3 Bft) 100,00 %
24.11.2016 08:34 6,1 C 99 % 1018,7 hPa 0,0 l/m 7,1 km/h (2 Bft) O-NO 65 0 min 0,000 mm 0,0 UV-I 24 W/m 6,0 C 5,5 C 11,3 km/h (2 Bft) 100,00 %
24.11.2016 08:36 6,1 C 99 % 1018,7 hPa 0,0 l/m 8,1 km/h (2 Bft) NO 36 0 min 0,000 mm 0,0 UV-I 25 W/m 6,0 C 4,7 C 11,3 km/h (2 Bft) 97,37 %
24.11.2016 08:38 6,1 C 99 % 1018,7 hPa 0,0 l/m 10,7 km/h (2 Bft) NO 40 0 min 0,000 mm 0,0 UV-I 24 W/m 6,0 C 2,8 C 14,5 km/h (3 Bft) 100,00 %
24.11.2016 08:40 6,1 C 99 % 1018,7 hPa 0,0 l/m 11,5 km/h (2 Bft) N-NO 25 0 min 0,000 mm 0,0 UV-I 25 W/m 6,0 C 2,3 C 16,1 km/h (3 Bft) 97,56 %
24.11.2016 08:42 6,2 C 99 % 1018,7 hPa 0,0 l/m 7,5 km/h (2 Bft) O-NO 58 0 min 0,000 mm 0,0 UV-I 25 W/m 6,1 C 5,3 C 11,3 km/h (2 Bft) 97,73 %
24.11.2016 08:44 6,2 C 99 % 1018,7 hPa 0,0 l/m 7,0 km/h (2 Bft) NO 55 0 min 0,000 mm 0,0 UV-I 25 W/m 6,1 C 5,7 C 11,3 km/h (2 Bft) 96,43 %
24.11.2016 08:46 6,2 C 99 % 1018,7 hPa 0,0 l/m 7,5 km/h (2 Bft) O-NO 60 0 min 0,000 mm 0,0 UV-I 26 W/m 6,1 C 5,3 C 14,5 km/h (3 Bft) 97,56 %
24.11.2016 08:48 6,2 C 99 % 1018,7 hPa 0,0 l/m 8,6 km/h (2 Bft) O-NO 68 0 min 0,000 mm 0,0 UV-I 26 W/m 6,1 C 4,4 C 17,7 km/h (3 Bft) 98,00 %
24.11.2016 08:50 6,2 C 99 % 1018,7 hPa 0,0 l/m 9,5 km/h (2 Bft) NO 50 0 min 0,000 mm 0,0 UV-I 27 W/m 6,1 C 3,7 C 14,5 km/h (3 Bft) 98,00 %
24.11.2016 08:52 6,2 C 99 % 1018,8 hPa 0,0 l/m 8,8 km/h (2 Bft) O-NO 61 0 min 0,000 mm 0,0 UV-I 29 W/m 6,1 C 4,2 C 12,9 km/h (3 Bft) 97,37 %
24.11.2016 08:54 6,2 C 99 % 1018,7 hPa 0,0 l/m 8,7 km/h (2 Bft) O-NO 61 0 min 0,000 mm 0,0 UV-I 32 W/m 6,1 C 4,3 C 14,5 km/h (3 Bft) 98,00 %
24.11.2016 08:56 6,2 C 99 % 1018,7 hPa 0,0 l/m 8,1 km/h (2 Bft) NO 42 0 min 0,000 mm 0,0 UV-I 32 W/m 6,1 C 4,8 C 14,5 km/h (3 Bft) 98,00 %
24.11.2016 08:58 6,2 C 99 % 1018,7 hPa 0,0 l/m 10,3 km/h (2 Bft) NO 51 0 min 0,000 mm 0,0 UV-I 33 W/m 6,1 C 3,2 C 16,1 km/h (3 Bft) 96,00 %
24.11.2016 09:00 6,2 C 99 % 1018,7 hPa 0,0 l/m 11,5 km/h (2 Bft) O-NO 61 0 min 0,000 mm 0,0 UV-I 34 W/m 6,1 C 2,4 C 16,1 km/h (3 Bft) 95,12 %
24.11.2016 09:02 6,2 C 99 % 1018,7 hPa 0,0 l/m 12,8 km/h (3 Bft) NO 40 0 min 0,000 mm 0,0 UV-I 36 W/m 6,1 C 1,7 C 16,1 km/h (3 Bft) 98,11 %
24.11.2016 09:04 6,2 C 99 % 1018,7 hPa 0,0 l/m 10,3 km/h (2 Bft) O-NO 60 0 min 0,000 mm 0,0 UV-I 40 W/m 6,1 C 3,2 C 16,1 km/h (3 Bft) 95,12 %
24.11.2016 09:06 6,2 C 99 % 1018,8 hPa 0,0 l/m 9,6 km/h (2 Bft) O-NO 71 0 min 0,000 mm 0,0 UV-I 39 W/m 6,1 C 3,7 C 16,1 km/h (3 Bft) 97,62 %
24.11.2016 09:08 6,2 C 99 % 1018,7 hPa 0,0 l/m 9,7 km/h (2 Bft) O-NO 58 0 min 0,000 mm 0,0 UV-I 37 W/m 6,1 C 3,6 C 16,1 km/h (3 Bft) 98,11 %
24.11.2016 09:10 6,2 C 99 % 1018,7 hPa 0,0 l/m 14,9 km/h (3 Bft) O-NO 68 0 min 0,000 mm 0,0 UV-I 40 W/m 6,1 C 0,6 C 20,9 km/h (4 Bft) 98,00 %
24.11.2016 09:12 6,2 C 99 % 1018,7 hPa 0,0 l/m 12,7 km/h (3 Bft) NO 56 0 min 0,000 mm 0,0 UV-I 43 W/m 6,1 C 1,7 C 16,1 km/h (3 Bft) 97,37 %
24.11.2016 09:14 6,2 C 99 % 1018,7 hPa 0,0 l/m 9,4 km/h (2 Bft) NO 52 0 min 0,000 mm 0,0 UV-I 45 W/m 6,1 C 3,8 C 14,5 km/h (3 Bft) 98,11 %
24.11.2016 09:16 6,2 C 99 % 1018,7 hPa 0,0 l/m 10,1 km/h (2 Bft) NO 46 0 min 0,000 mm 0,0 UV-I 46 W/m 6,1 C 3,3 C 14,5 km/h (3 Bft) 97,37 %
24.11.2016 09:18 6,3 C 99 % 1018,7 hPa 0,0 l/m 9,3 km/h (2 Bft) O-NO 58 0 min 0,000 mm 0,0 UV-I 46 W/m 6,2 C 4,0 C 14,5 km/h (3 Bft) 98,21 %
24.11.2016 09:20 6,3 C 99 % 1018,7 hPa 0,0 l/m 10,0 km/h (2 Bft) O-NO 69 0 min 0,000 mm 0,0 UV-I 50 W/m 6,2 C 3,5 C 16,1 km/h (3 Bft) 100,00 %
24.11.2016 09:22 6,3 C 99 % 1018,7 hPa 0,0 l/m 13,6 km/h (3 Bft) O-NO 65 0 min 0,000 mm 0,0 UV-I 52 W/m 6,2 C 1,4 C 16,1 km/h (3 Bft) 97,37 %
24.11.2016 09:24 6,2 C 98 % 1018,7 hPa 0,0 l/m 13,3 km/h (3 Bft) O-NO 74 0 min 0,000 mm 0,0 UV-I 52 W/m 5,9 C 1,4 C 20,9 km/h (4 Bft) 97,87 %
24.11.2016 09:26 6,3 C 98 % 1018,6 hPa 0,0 l/m 12,8 km/h (3 Bft) O-NO 68 0 min 0,000 mm 0,0 UV-I 47 W/m 6,0 C 1,8 C 17,7 km/h (3 Bft) 100,00 %
24.11.2016 09:28 6,3 C 98 % 1018,6 hPa 0,0 l/m 9,6 km/h (2 Bft) NO 53 0 min 0,000 mm 0,0 UV-I 46 W/m 6,0 C 3,8 C 16,1 km/h (3 Bft) 100,00 %
24.11.2016 09:30 6,3 C 98 % 1018,7 hPa 0,0 l/m 9,4 km/h (2 Bft) O-NO 69 0 min 0,000 mm 0,0 UV-I 44 W/m 6,0 C 3,9 C 16,1 km/h (3 Bft) 100,00 %
24.11.2016 09:32 6,3 C 98 % 1018,7 hPa 0,0 l/m 10,6 km/h (2 Bft) O-NO 62 0 min 0,000 mm 0,0 UV-I 44 W/m 6,0 C 3,1 C 16,1 km/h (3 Bft) 100,00 %
24.11.2016 09:34 6,3 C 98 % 1018,7 hPa 0,0 l/m 9,5 km/h (2 Bft) NO 53 0 min 0,000 mm 0,0 UV-I 45 W/m 6,0 C 3,9 C 14,5 km/h (3 Bft) 100,00 %
24.11.2016 09:36 6,3 C 98 % 1018,7 hPa 0,0 l/m 7,4 km/h (2 Bft) NO 52 0 min 0,000 mm 0,0 UV-I 46 W/m 6,0 C 5,5 C 11,3 km/h (2 Bft) 97,87 %
24.11.2016 09:38 6,3 C 98 % 1018,7 hPa 0,0 l/m 6,9 km/h (2 Bft) O-NO 57 0 min 0,000 mm 0,0 UV-I 44 W/m 6,0 C 5,9 C 9,7 km/h (2 Bft) 100,00 %
24.11.2016 09:40 6,3 C 98 % 1018,7 hPa 0,0 l/m 7,8 km/h (2 Bft) NO 46 0 min 0,000 mm 0,0 UV-I 46 W/m 6,0 C 5,1 C 11,3 km/h (2 Bft) 100,00 %
24.11.2016 09:42 6,3 C 98 % 1018,7 hPa 0,0 l/m 7,2 km/h (2 Bft) NO 49 0 min 0,000 mm 0,0 UV-I 50 W/m 6,0 C 5,6 C 11,3 km/h (2 Bft) 100,00 %
24.11.2016 09:44 6,3 C 98 % 1018,7 hPa 0,0 l/m 11,1 km/h (2 Bft) NO 34 0 min 0,000 mm 0,0 UV-I 51 W/m 6,0 C 2,8 C 14,5 km/h (3 Bft) 100,00 %
24.11.2016 09:46 6,3 C 98 % 1018,7 hPa 0,0 l/m 10,5 km/h (2 Bft) O-NO 61 0 min 0,000 mm 0,0 UV-I 51 W/m 6,0 C 3,2 C 17,7 km/h (3 Bft) 100,00 %
24.11.2016 09:48 6,3 C 98 % 1018,7 hPa 0,0 l/m 11,3 km/h (2 Bft) O-NO 65 0 min 0,000 mm 0,0 UV-I 52 W/m 6,0 C 2,7 C 16,1 km/h (3 Bft) 100,00 %
24.11.2016 09:50 6,4 C 98 % 1018,8 hPa 0,0 l/m 9,2 km/h (2 Bft) O-NO 78 0 min 0,000 mm 0,0 UV-I 58 W/m 6,1 C 4,2 C 14,5 km/h (3 Bft) 100,00 %
24.11.2016 09:52 6,4 C 98 % 1018,7 hPa 0,0 l/m 10,0 km/h (2 Bft) N-NO 30 0 min 0,000 mm 0,0 UV-I 55 W/m 6,1 C 3,6 C 17,7 km/h (3 Bft) 100,00 %
24.11.2016 09:54 6,4 C 98 % 1018,8 hPa 0,0 l/m 11,7 km/h (2 Bft) N-NO 30 0 min 0,000 mm 0,0 UV-I 52 W/m 6,1 C 2,5 C 17,7 km/h (3 Bft) 100,00 %
24.11.2016 09:56 6,4 C 97 % 1018,8 hPa 0,0 l/m 10,4 km/h (2 Bft) O-NO 63 0 min 0,000 mm 0,0 UV-I 53 W/m 6,0 C 3,4 C 16,1 km/h (3 Bft) 100,00 %
24.11.2016 09:58 6,4 C 97 % 1018,8 hPa 0,0 l/m 8,2 km/h (2 Bft) NO 34 0 min 0,000 mm 0,0 UV-I 51 W/m 6,0 C 4,9 C 14,5 km/h (3 Bft) 100,00 %
24.11.2016 10:00 6,4 C 97 % 1018,8 hPa 0,0 l/m 12,2 km/h (2 Bft) NO 56 0 min 0,025 mm 0,0 UV-I 50 W/m 6,0 C 2,3 C 19,3 km/h (3 Bft) 100,00 %
24.11.2016 10:02 6,4 C 97 % 1018,8 hPa 0,0 l/m 9,5 km/h (2 Bft) NO 49 0 min 0,000 mm 0,0 UV-I 54 W/m 6,0 C 4,0 C 16,1 km/h (3 Bft) 98,11 %
24.11.2016 10:04 6,4 C 97 % 1018,8 hPa 0,0 l/m 8,6 km/h (2 Bft) N-NO 24 0 min 0,000 mm 0,0 UV-I 55 W/m 6,0 C 4,6 C 14,5 km/h (3 Bft) 100,00 %
24.11.2016 10:06 6,4 C 97 % 1018,8 hPa 0,0 l/m 9,7 km/h (2 Bft) N-NO 22 0 min 0,000 mm 0,0 UV-I 54 W/m 6,0 C 3,8 C 17,7 km/h (3 Bft) 95,74 %
24.11.2016 10:08 6,5 C 97 % 1018,9 hPa 0,0 l/m 9,3 km/h (2 Bft) O-NO 66 0 min 0,000 mm 0,0 UV-I 52 W/m 6,1 C 4,2 C 14,5 km/h (3 Bft) 100,00 %
24.11.2016 10:10 6,5 C 97 % 1019,0 hPa 0,0 l/m 8,6 km/h (2 Bft) O 80 0 min 0,000 mm 0,0 UV-I 49 W/m 6,1 C 4,7 C 14,5 km/h (3 Bft) 100,00 %
24.11.2016 10:12 6,5 C 97 % 1019,0 hPa 0,0 l/m 9,4 km/h (2 Bft) O-NO 63 0 min 0,000 mm 0,0 UV-I 48 W/m 6,1 C 4,1 C 14,5 km/h (3 Bft) 100,00 %
24.11.2016 10:14 6,5 C 97 % 1019,0 hPa 0,0 l/m 7,5 km/h (2 Bft) N-NO 32 0 min 0,000 mm 0,0 UV-I 51 W/m 6,1 C 5,6 C 12,9 km/h (3 Bft) 97,37 %
24.11.2016 10:16 6,5 C 97 % 1019,0 hPa 0,0 l/m 9,1 km/h (2 Bft) NO 46 0 min 0,000 mm 0,0 UV-I 55 W/m 6,1 C 4,4 C 14,5 km/h (3 Bft) 100,00 %
24.11.2016 10:18 6,5 C 97 % 1019,0 hPa 0,0 l/m 10,2 km/h (2 Bft) O-NO 76 0 min 0,000 mm 0,0 UV-I 56 W/m 6,1 C 3,6 C 14,5 km/h (3 Bft) 100,00 %
24.11.2016 10:20 6,5 C 97 % 1019,0 hPa 0,0 l/m 9,4 km/h (2 Bft) NO 34 0 min 0,000 mm 0,0 UV-I 56 W/m 6,1 C 4,1 C 14,5 km/h (3 Bft) 100,00 %
24.11.2016 10:22 6,6 C 97 % 1019,1 hPa 0,0 l/m 11,7 km/h (2 Bft) NO 42 0 min 0,000 mm 0,0 UV-I 54 W/m 6,2 C 2,8 C 16,1 km/h (3 Bft) 100,00 %
24.11.2016 10:24 6,6 C 97 % 1019,1 hPa 0,0 l/m 7,5 km/h (2 Bft) O-NO 67 0 min 0,000 mm 0,0 UV-I 49 W/m 6,2 C 5,7 C 11,3 km/h (2 Bft) 97,44 %
24.11.2016 10:26 6,6 C 97 % 1019,1 hPa 0,0 l/m 8,9 km/h (2 Bft) NO 50 0 min 0,000 mm 0,0 UV-I 53 W/m 6,2 C 4,6 C 12,9 km/h (3 Bft) 100,00 %
24.11.2016 10:28 6,6 C 96 % 1019,1 hPa 0,0 l/m 7,2 km/h (2 Bft) O-NO 60 0 min 0,000 mm 0,0 UV-I 52 W/m 6,0 C 5,9 C 11,3 km/h (2 Bft) 100,00 %
24.11.2016 10:30 6,6 C 96 % 1019,1 hPa 0,0 l/m 5,7 km/h (1 Bft) NO 47 0 min 0,000 mm 0,0 UV-I 52 W/m 6,0 C 6,6 C 9,7 km/h (2 Bft) 100,00 %
24.11.2016 10:32 6,6 C 96 % 1019,1 hPa 0,0 l/m 8,5 km/h (2 Bft) N-NO 24 0 min 0,000 mm 0,0 UV-I 49 W/m 6,0 C 4,9 C 12,9 km/h (3 Bft) 100,00 %
24.11.2016 10:34 6,6 C 96 % 1019,0 hPa 0,0 l/m 9,7 km/h (2 Bft) NO 40 0 min 0,000 mm 0,0 UV-I 49 W/m 6,0 C 4,0 C 14,5 km/h (3 Bft) 100,00 %
24.11.2016 10:36 6,6 C 96 % 1019,0 hPa 0,0 l/m 9,7 km/h (2 Bft) O-NO 58 0 min 0,000 mm 0,0 UV-I 54 W/m 6,0 C 4,0 C 16,1 km/h (3 Bft) 100,00 %
24.11.2016 10:38 6,6 C 96 % 1019,1 hPa 0,0 l/m 9,1 km/h (2 Bft) O-NO 59 0 min 0,000 mm 0,0 UV-I 52 W/m 6,0 C 4,5 C 14,5 km/h (3 Bft) 100,00 %
24.11.2016 10:40 6,6 C 96 % 1019,1 hPa 0,0 l/m 8,3 km/h (2 Bft) O-NO 57 0 min 0,000 mm 0,0 UV-I 50 W/m 6,0 C 5,1 C 11,3 km/h (2 Bft) 100,00 %
24.11.2016 10:42 6,6 C 96 % 1019,1 hPa 0,0 l/m 9,0 km/h (2 Bft) N-NO 30 0 min 0,000 mm 0,0 UV-I 50 W/m 6,0 C 4,5 C 14,5 km/h (3 Bft) 100,00 %
24.11.2016 10:44 6,6 C 96 % 1019,1 hPa 0,0 l/m 7,7 km/h (2 Bft) NO 52 0 min 0,000 mm 0,0 UV-I 50 W/m 6,0 C 5,5 C 14,5 km/h (3 Bft) 98,11 %
24.11.2016 10:46 6,6 C 96 % 1019,1 hPa 0,0 l/m 11,1 km/h (2 Bft) NO 41 0 min 0,000 mm 0,0 UV-I 49 W/m 6,0 C 3,1 C 17,7 km/h (3 Bft) 97,73 %
24.11.2016 10:48 6,6 C 96 % 1019,1 hPa 0,0 l/m 8,8 km/h (2 Bft) N-NO 30 0 min 0,000 mm 0,0 UV-I 51 W/m 6,0 C 4,7 C 16,1 km/h (3 Bft) 98,11 %
24.11.2016 10:50 6,6 C 96 % 1019,0 hPa 0,0 l/m 8,6 km/h (2 Bft) O-NO 57 0 min 0,000 mm 0,0 UV-I 51 W/m 6,0 C 4,8 C 16,1 km/h (3 Bft) 97,87 %
24.11.2016 10:52 6,6 C 96 % 1019,0 hPa 0,0 l/m 9,4 km/h (2 Bft) O-NO 57 0 min 0,000 mm 0,0 UV-I 53 W/m 6,0 C 4,2 C 14,5 km/h (3 Bft) 97,87 %
24.11.2016 10:54 6,5 C 96 % 1019,0 hPa 0,0 l/m 11,4 km/h (2 Bft) NO 49 0 min 0,000 mm 0,0 UV-I 53 W/m 5,9 C 2,8 C 16,1 km/h (3 Bft) 93,62 %
24.11.2016 10:56 6,5 C 96 % 1019,1 hPa 0,0 l/m 9,9 km/h (2 Bft) NO 43 0 min 0,000 mm 0,0 UV-I 53 W/m 5,9 C 3,8 C 16,1 km/h (3 Bft) 94,74 %
24.11.2016 10:58 6,5 C 96 % 1019,1 hPa 0,0 l/m 11,3 km/h (2 Bft) O-NO 61 0 min 0,000 mm 0,0 UV-I 55 W/m 5,9 C 2,9 C 17,7 km/h (3 Bft) 96,43 %
24.11.2016 11:00 6,6 C 96 % 1019,0 hPa 0,0 l/m 11,8 km/h (2 Bft) NO 47 0 min 0,000 mm 0,0 UV-I 55 W/m 6,0 C 2,7 C 17,7 km/h (3 Bft) 97,73 %
24.11.2016 11:02 6,6 C 96 % 1019,0 hPa 0,0 l/m 11,7 km/h (2 Bft) O-NO 71 0 min 0,026 mm 0,0 UV-I 61 W/m 6,0 C 2,8 C 16,1 km/h (3 Bft) 97,44 %
24.11.2016 11:04 6,5 C 96 % 1018,9 hPa 0,0 l/m 13,5 km/h (3 Bft) O-NO 74 0 min 0,000 mm 0,0 UV-I 70 W/m 5,9 C 1,7 C 19,3 km/h (3 Bft) 96,23 %
24.11.2016 11:06 6,5 C 96 % 1018,9 hPa 0,0 l/m 10,6 km/h (2 Bft) N-NO 33 0 min 0,000 mm 0,0 UV-I 68 W/m 5,9 C 3,3 C 19,3 km/h (3 Bft) 97,96 %
24.11.2016 11:08 6,6 C 96 % 1018,9 hPa 0,0 l/m 13,1 km/h (3 Bft) NO 42 0 min 0,000 mm 0,0 UV-I 62 W/m 6,0 C 2,0 C 17,7 km/h (3 Bft) 97,44 %
24.11.2016 11:10 6,6 C 96 % 1018,9 hPa 0,0 l/m 14,3 km/h (3 Bft) NO 36 0 min 0,000 mm 0,0 UV-I 60 W/m 6,0 C 1,4 C 19,3 km/h (3 Bft) 98,21 %
24.11.2016 11:12 6,6 C 96 % 1018,9 hPa 0,0 l/m 12,2 km/h (2 Bft) NO 38 0 min 0,000 mm 0,0 UV-I 60 W/m 6,0 C 2,5 C 19,3 km/h (3 Bft) 97,56 %
24.11.2016 11:14 6,6 C 96 % 1018,9 hPa 0,0 l/m 13,8 km/h (3 Bft) NO 50 0 min 0,000 mm 0,0 UV-I 59 W/m 6,0 C 1,6 C 19,3 km/h (3 Bft) 96,23 %
24.11.2016 11:16 6,6 C 96 % 1019,0 hPa 0,0 l/m 13,2 km/h (3 Bft) O-NO 59 0 min 0,000 mm 0,0 UV-I 59 W/m 6,0 C 1,9 C 20,9 km/h (4 Bft) 97,56 %
24.11.2016 11:18 6,6 C 96 % 1019,0 hPa 0,0 l/m 8,6 km/h (2 Bft) O-NO 76 0 min 0,000 mm 0,0 UV-I 55 W/m 6,0 C 4,8 C 14,5 km/h (3 Bft) 98,00 %
24.11.2016 11:20 6,6 C 96 % 1018,9 hPa 0,0 l/m 12,3 km/h (3 Bft) O-NO 67 0 min 0,000 mm 0,0 UV-I 54 W/m 6,0 C 2,4 C 16,1 km/h (3 Bft) 97,56 %
24.11.2016 11:22 6,6 C 96 % 1018,8 hPa 0,0 l/m 10,8 km/h (2 Bft) NO 44 0 min 0,000 mm 0,0 UV-I 56 W/m 6,0 C 3,3 C 14,5 km/h (3 Bft) 98,11 %
24.11.2016 11:24 6,6 C 96 % 1018,8 hPa 0,0 l/m 11,5 km/h (2 Bft) O-NO 68 0 min 0,000 mm 0,0 UV-I 53 W/m 6,0 C 2,9 C 19,3 km/h (3 Bft) 100,00 %
24.11.2016 11:26 6,6 C 96 % 1018,7 hPa 0,0 l/m 13,1 km/h (3 Bft) NO 50 0 min 0,000 mm 0,0 UV-I 53 W/m 6,0 C 2,0 C 19,3 km/h (3 Bft) 98,00 %
24.11.2016 11:28 6,6 C 96 % 1018,7 hPa 0,0 l/m 14,1 km/h (3 Bft) NO 52 0 min 0,000 mm 0,0 UV-I 51 W/m 6,0 C 1,5 C 22,5 km/h (4 Bft) 97,73 %
24.11.2016 11:30 6,6 C 96 % 1018,7 hPa 0,0 l/m 14,9 km/h (3 Bft) NO 52 0 min 0,000 mm 0,0 UV-I 45 W/m 6,0 C 1,1 C 19,3 km/h (3 Bft) 98,21 %
24.11.2016 11:32 6,6 C 96 % 1018,8 hPa 0,0 l/m 14,3 km/h (3 Bft) NO 47 0 min 0,000 mm 0,0 UV-I 45 W/m 6,0 C 1,4 C 19,3 km/h (3 Bft) 100,00 %
24.11.2016 11:34 6,6 C 96 % 1018,8 hPa 0,0 l/m 12,3 km/h (3 Bft) O-NO 57 0 min 0,000 mm 0,0 UV-I 42 W/m 6,0 C 2,4 C 17,7 km/h (3 Bft) 100,00 %
24.11.2016 11:36 6,6 C 96 % 1018,9 hPa 0,0 l/m 8,6 km/h (2 Bft) O-NO 74 0 min 0,000 mm 0,0 UV-I 39 W/m 6,0 C 4,8 C 14,5 km/h (3 Bft) 97,87 %
24.11.2016 11:38 6,6 C 96 % 1018,9 hPa 0,0 l/m 10,0 km/h (2 Bft) O-NO 67 0 min 0,000 mm 0,0 UV-I 45 W/m 6,0 C 3,8 C 16,1 km/h (3 Bft) 100,00 %
24.11.2016 11:40 6,6 C 96 % 1018,9 hPa 0,0 l/m 7,0 km/h (2 Bft) O-NO 76 0 min 0,000 mm 0,0 UV-I 48 W/m 6,0 C 6,1 C 11,3 km/h (2 Bft) 100,00 %
24.11.2016 11:42 6,6 C 96 % 1018,9 hPa 0,0 l/m 11,9 km/h (2 Bft) O-NO 62 0 min 0,000 mm 0,0 UV-I 48 W/m 6,0 C 2,7 C 20,9 km/h (4 Bft) 100,00 %
24.11.2016 11:44 6,6 C 96 % 1018,9 hPa 0,0 l/m 9,3 km/h (2 Bft) NO 46 0 min 0,000 mm 0,0 UV-I 51 W/m 6,0 C 4,3 C 16,1 km/h (3 Bft) 98,08 %
24.11.2016 11:46 6,6 C 96 % 1018,8 hPa 0,0 l/m 12,2 km/h (2 Bft) N 11 0 min 0,000 mm 0,0 UV-I 54 W/m 6,0 C 2,5 C 17,7 km/h (3 Bft) 97,62 %
24.11.2016 11:48 6,6 C 96 % 1018,9 hPa 0,0 l/m 14,3 km/h (3 Bft) O-NO 59 0 min 0,000 mm 0,0 UV-I 50 W/m 6,0 C 1,4 C 19,3 km/h (3 Bft) 100,00 %
24.11.2016 11:50 6,6 C 96 % 1018,8 hPa 0,0 l/m 10,4 km/h (2 Bft) O-NO 64 0 min 0,000 mm 0,0 UV-I 50 W/m 6,0 C 3,6 C 16,1 km/h (3 Bft) 100,00 %
24.11.2016 11:52 6,6 C 96 % 1018,9 hPa 0,0 l/m 9,3 km/h (2 Bft) NO 54 0 min 0,000 mm 0,0 UV-I 54 W/m 6,0 C 4,3 C 14,5 km/h (3 Bft) 97,37 %
24.11.2016 11:54 6,6 C 96 % 1018,9 hPa 0,0 l/m 11,6 km/h (2 Bft) NO 42 0 min 0,000 mm 0,0 UV-I 52 W/m 6,0 C 2,8 C 16,1 km/h (3 Bft) 100,00 %
24.11.2016 11:56 6,6 C 96 % 1018,9 hPa 0,0 l/m 8,0 km/h (2 Bft) NO 56 0 min 0,000 mm 0,0 UV-I 48 W/m 6,0 C 5,3 C 14,5 km/h (3 Bft) 100,00 %
24.11.2016 11:58 6,6 C 96 % 1018,8 hPa 0,0 l/m 9,8 km/h (2 Bft) NO 55 0 min 0,000 mm 0,0 UV-I 50 W/m 6,0 C 4,0 C 16,1 km/h (3 Bft) 98,11 %
24.11.2016 12:00 6,6 C 96 % 1018,9 hPa 0,0 l/m 9,2 km/h (2 Bft) NO 42 0 min 0,025 mm 0,0 UV-I 48 W/m 6,0 C 4,4 C 14,5 km/h (3 Bft) 100,00 %
24.11.2016 12:02 6,7 C 96 % 1018,9 hPa 0,0 l/m 11,5 km/h (2 Bft) O 81 0 min 0,000 mm 0,0 UV-I 48 W/m 6,1 C 3,0 C 17,7 km/h (3 Bft) 100,00 %
24.11.2016 12:04 6,7 C 95 % 1018,8 hPa 0,0 l/m 9,6 km/h (2 Bft) NO 46 0 min 0,000 mm 0,0 UV-I 47 W/m 6,0 C 4,2 C 14,5 km/h (3 Bft) 100,00 %
24.11.2016 12:06 6,6 C 95 % 1018,8 hPa 0,0 l/m 13,8 km/h (3 Bft) O-NO 58 0 min 0,000 mm 0,0 UV-I 49 W/m 5,9 C 1,6 C 19,3 km/h (3 Bft) 100,00 %
24.11.2016 12:08 6,7 C 95 % 1018,8 hPa 0,0 l/m 12,6 km/h (3 Bft) N-NO 29 0 min 0,000 mm 0,0 UV-I 46 W/m 6,0 C 2,4 C 19,3 km/h (3 Bft) 100,00 %
24.11.2016 12:10 6,7 C 95 % 1018,7 hPa 0,0 l/m 15,8 km/h (3 Bft) O-NO 69 0 min 0,000 mm 0,0 UV-I 52 W/m 6,0 C 0,8 C 22,5 km/h (4 Bft) 100,00 %
24.11.2016 12:12 6,6 C 95 % 1018,7 hPa 0,0 l/m 15,7 km/h (3 Bft) O 79 0 min 0,000 mm 0,0 UV-I 54 W/m 5,9 C 0,7 C 20,9 km/h (4 Bft) 100,00 %
24.11.2016 12:14 6,6 C 95 % 1018,8 hPa 0,0 l/m 14,5 km/h (3 Bft) O 84 0 min 0,000 mm 0,0 UV-I 53 W/m 5,9 C 1,3 C 25,7 km/h (4 Bft) 100,00 %
24.11.2016 12:16 6,7 C 95 % 1018,8 hPa 0,0 l/m 13,2 km/h (3 Bft) O-NO 68 0 min 0,000 mm 0,0 UV-I 56 W/m 6,0 C 2,0 C 17,7 km/h (3 Bft) 97,56 %
24.11.2016 12:18 6,6 C 95 % 1018,8 hPa 0,0 l/m 13,8 km/h (3 Bft) O-NO 61 0 min 0,000 mm 0,0 UV-I 52 W/m 5,9 C 1,6 C 19,3 km/h (3 Bft) 100,00 %
24.11.2016 12:20 6,6 C 95 % 1018,8 hPa 0,0 l/m 15,0 km/h (3 Bft) O-NO 58 0 min 0,000 mm 0,0 UV-I 59 W/m 5,9 C 1,0 C 19,3 km/h (3 Bft) 100,00 %
24.11.2016 12:22 6,7 C 95 % 1018,8 hPa 0,0 l/m 15,6 km/h (3 Bft) NO 56 0 min 0,000 mm 0,0 UV-I 64 W/m 6,0 C 0,9 C 22,5 km/h (4 Bft) 100,00 %
24.11.2016 12:24 6,7 C 95 % 1018,7 hPa 0,0 l/m 14,2 km/h (3 Bft) O-NO 73 0 min 0,000 mm 0,0 UV-I 76 W/m 6,0 C 1,5 C 17,7 km/h (3 Bft) 100,00 %
24.11.2016 12:26 6,7 C 95 % 1018,7 hPa 0,0 l/m 11,6 km/h (2 Bft) O-NO 63 0 min 0,000 mm 0,0 UV-I 78 W/m 6,0 C 2,9 C 16,1 km/h (3 Bft) 100,00 %
24.11.2016 12:28 6,7 C 95 % 1018,7 hPa 0,0 l/m 11,4 km/h (2 Bft) O-NO 57 0 min 0,000 mm 0,0 UV-I 87 W/m 6,0 C 3,1 C 20,9 km/h (4 Bft) 97,56 %
24.11.2016 12:30 6,7 C 95 % 1018,7 hPa 0,0 l/m 11,2 km/h (2 Bft) O-NO 61 0 min 0,000 mm 0,0 UV-I 101 W/m 6,0 C 3,2 C 17,7 km/h (3 Bft) 98,39 %
24.11.2016 12:32 6,8 C 95 % 1018,7 hPa 0,0 l/m 19,5 km/h (3 Bft) O-NO 64 0 min 0,000 mm 0,0 UV-I 96 W/m 6,1 C -0,7 C 27,4 km/h (4 Bft) 94,29 %
24.11.2016 12:34 6,8 C 95 % 1018,7 hPa 0,0 l/m 16,1 km/h (3 Bft) O 86 0 min 0,000 mm 0,0 UV-I 93 W/m 6,1 C 0,7 C 22,5 km/h (4 Bft) 100,00 %
24.11.2016 12:36 6,8 C 94 % 1018,7 hPa 0,0 l/m 14,2 km/h (3 Bft) O-NO 77 0 min 0,000 mm 0,0 UV-I 96 W/m 5,9 C 1,6 C 20,9 km/h (4 Bft) 100,00 %
24.11.2016 12:38 6,8 C 94 % 1018,7 hPa 0,0 l/m 15,4 km/h (3 Bft) O 80 0 min 0,000 mm 0,0 UV-I 87 W/m 5,9 C 1,1 C 24,1 km/h (4 Bft) 100,00 %
24.11.2016 12:40 6,8 C 94 % 1018,8 hPa 0,0 l/m 15,0 km/h (3 Bft) O-NO 67 0 min 0,000 mm 0,0 UV-I 69 W/m 5,9 C 1,3 C 24,1 km/h (4 Bft) 100,00 %
24.11.2016 12:42 6,8 C 94 % 1018,8 hPa 0,0 l/m 15,5 km/h (3 Bft) O-NO 69 0 min 0,000 mm 0,0 UV-I 56 W/m 5,9 C 1,0 C 22,5 km/h (4 Bft) 95,12 %
24.11.2016 12:44 6,8 C 94 % 1018,8 hPa 0,0 l/m 16,8 km/h (3 Bft) O-NO 78 0 min 0,000 mm 0,0 UV-I 59 W/m 5,9 C 0,4 C 22,5 km/h (4 Bft) 98,11 %
24.11.2016 12:46 6,8 C 94 % 1018,8 hPa 0,0 l/m 15,7 km/h (3 Bft) NO 54 0 min 0,000 mm 0,0 UV-I 70 W/m 5,9 C 0,9 C 24,1 km/h (4 Bft) 100,00 %
24.11.2016 12:48 6,8 C 94 % 1018,7 hPa 0,0 l/m 18,2 km/h (3 Bft) O 89 0 min 0,000 mm 0,0 UV-I 66 W/m 5,9 C -0,2 C 25,7 km/h (4 Bft) 97,87 %
24.11.2016 12:50 6,8 C 94 % 1018,7 hPa 0,0 l/m 16,7 km/h (3 Bft) O 89 0 min 0,000 mm 0,0 UV-I 65 W/m 5,9 C 0,5 C 24,1 km/h (4 Bft) 98,00 %
24.11.2016 12:52 6,8 C 94 % 1018,6 hPa 0,0 l/m 16,0 km/h (3 Bft) O 80 0 min 0,000 mm 0,0 UV-I 70 W/m 5,9 C 0,8 C 20,9 km/h (4 Bft) 98,00 %
24.11.2016 12:54 6,8 C 94 % 1018,7 hPa 0,0 l/m 18,2 km/h (3 Bft) O-NO 74 0 min 0,000 mm 0,0 UV-I 80 W/m 5,9 C -0,2 C 22,5 km/h (4 Bft) 97,37 %
24.11.2016 12:56 6,8 C 94 % 1018,6 hPa 0,0 l/m 16,0 km/h (3 Bft) NO 52 0 min 0,000 mm 0,0 UV-I 85 W/m 5,9 C 0,8 C 27,4 km/h (4 Bft) 97,62 %
24.11.2016 12:58 6,8 C 94 % 1018,6 hPa 0,0 l/m 14,4 km/h (3 Bft) O-NO 76 0 min 0,000 mm 0,0 UV-I 87 W/m 5,9 C 1,5 C 20,9 km/h (4 Bft) 97,87 %
24.11.2016 13:00 6,8 C 94 % 1018,6 hPa 0,0 l/m 13,6 km/h (3 Bft) O 81 0 min 0,000 mm 0,0 UV-I 86 W/m 5,9 C 2,0 C 17,7 km/h (3 Bft) 96,55 %
24.11.2016 13:02 6,8 C 94 % 1018,6 hPa 0,0 l/m 13,0 km/h (3 Bft) O-NO 76 0 min 0,026 mm 0,0 UV-I 80 W/m 5,9 C 2,3 C 20,9 km/h (4 Bft) 95,74 %
24.11.2016 13:04 6,8 C 94 % 1018,6 hPa 0,0 l/m 16,2 km/h (3 Bft) O-SO 111 0 min 0,000 mm 0,0 UV-I 80 W/m 5,9 C 0,7 C 24,1 km/h (4 Bft) 100,00 %
24.11.2016 13:06 6,8 C 94 % 1018,5 hPa 0,0 l/m 20,6 km/h (4 Bft) O-SO 103 0 min 0,000 mm 0,0 UV-I 76 W/m 5,9 C -1,1 C 30,6 km/h (5 Bft) 94,74 %
24.11.2016 13:08 6,7 C 94 % 1018,6 hPa 0,0 l/m 17,3 km/h (3 Bft) O 80 0 min 0,000 mm 0,0 UV-I 78 W/m 5,8 C 0,1 C 24,1 km/h (4 Bft) 96,43 %
24.11.2016 13:10 6,7 C 94 % 1018,5 hPa 0,0 l/m 16,8 km/h (3 Bft) O-SO 116 0 min 0,000 mm 0,0 UV-I 81 W/m 5,8 C 0,3 C 25,7 km/h (4 Bft) 98,11 %
24.11.2016 13:12 6,7 C 95 % 1018,5 hPa 0,0 l/m 17,6 km/h (3 Bft) O-NO 69 0 min 0,000 mm 0,0 UV-I 74 W/m 6,0 C -0,0 C 22,5 km/h (4 Bft) 97,73 %
24.11.2016 13:14 6,7 C 95 % 1018,4 hPa 0,0 l/m 21,2 km/h (4 Bft) O-NO 71 0 min 0,000 mm 0,0 UV-I 68 W/m 6,0 C -1,4 C 30,6 km/h (5 Bft) 98,00 %
24.11.2016 13:16 6,7 C 95 % 1018,4 hPa 0,0 l/m 23,4 km/h (4 Bft) O-NO 58 0 min 0,000 mm 0,0 UV-I 69 W/m 6,0 C -2,1 C 30,6 km/h (5 Bft) 97,87 %
24.11.2016 13:18 6,7 C 95 % 1018,5 hPa 0,0 l/m 20,2 km/h (4 Bft) O-NO 63 0 min 0,000 mm 0,0 UV-I 59 W/m 6,0 C -1,1 C 27,4 km/h (4 Bft) 97,87 %
24.11.2016 13:20 6,7 C 95 % 1018,4 hPa 0,0 l/m 19,8 km/h (3 Bft) O-NO 74 0 min 0,000 mm 0,0 UV-I 48 W/m 6,0 C -0,9 C 27,4 km/h (4 Bft) 95,45 %
24.11.2016 13:22 6,7 C 95 % 1018,4 hPa 0,0 l/m 21,2 km/h (4 Bft) O-NO 69 0 min 0,000 mm 0,0 UV-I 47 W/m 6,0 C -1,4 C 29,0 km/h (5 Bft) 98,00 %
24.11.2016 13:24 6,7 C 95 % 1018,4 hPa 0,0 l/m 19,5 km/h (3 Bft) NO 40 0 min 0,000 mm 0,0 UV-I 40 W/m 6,0 C -0,8 C 27,4 km/h (4 Bft) 100,00 %
24.11.2016 13:26 6,6 C 95 % 1018,4 hPa 0,0 l/m 19,5 km/h (3 Bft) O-NO 71 0 min 0,000 mm 0,0 UV-I 38 W/m 5,9 C -0,9 C 24,1 km/h (4 Bft) 97,37 %
24.11.2016 13:28 6,6 C 95 % 1018,4 hPa 0,0 l/m 17,0 km/h (3 Bft) O-NO 65 0 min 0,000 mm 0,0 UV-I 32 W/m 5,9 C 0,1 C 24,1 km/h (4 Bft) 100,00 %
24.11.2016 13:30 6,6 C 95 % 1018,5 hPa 0,0 l/m 15,8 km/h (3 Bft) O-NO 60 0 min 0,000 mm 0,0 UV-I 32 W/m 5,9 C 0,6 C 20,9 km/h (4 Bft) 100,00 %
24.11.2016 13:32 6,6 C 95 % 1018,4 hPa 0,0 l/m 16,5 km/h (3 Bft) N-NO 28 0 min 0,000 mm 0,0 UV-I 30 W/m 5,9 C 0,3 C 20,9 km/h (4 Bft) 100,00 %
24.11.2016 13:34 6,6 C 95 % 1018,4 hPa 0,0 l/m 18,1 km/h (3 Bft) N-NO 33 0 min 0,000 mm 0,0 UV-I 30 W/m 5,9 C -0,4 C 22,5 km/h (4 Bft) 98,31 %
24.11.2016 13:36 6,6 C 95 % 1018,4 hPa 0,0 l/m 16,9 km/h (3 Bft) O-NO 62 0 min 0,000 mm 0,0 UV-I 30 W/m 5,9 C 0,1 C 22,5 km/h (4 Bft) 97,73 %
24.11.2016 13:38 6,6 C 95 % 1018,4 hPa 0,0 l/m 17,0 km/h (3 Bft) O-NO 70 0 min 0,000 mm 0,0 UV-I 29 W/m 5,9 C 0,1 C 22,5 km/h (4 Bft) 100,00 %
24.11.2016 13:40 6,6 C 95 % 1018,4 hPa 0,0 l/m 18,2 km/h (3 Bft) O-NO 66 0 min 0,000 mm 0,0 UV-I 29 W/m 5,9 C -0,4 C 24,1 km/h (4 Bft) 100,00 %
24.11.2016 13:42 6,6 C 95 % 1018,4 hPa 0,0 l/m 15,7 km/h (3 Bft) O-NO 63 0 min 0,000 mm 0,0 UV-I 28 W/m 5,9 C 0,7 C 20,9 km/h (4 Bft) 100,00 %
24.11.2016 13:44 6,6 C 95 % 1018,3 hPa 0,0 l/m 14,1 km/h (3 Bft) O-NO 63 0 min 0,000 mm 0,0 UV-I 32 W/m 5,9 C 1,5 C 19,3 km/h (3 Bft) 100,00 %
24.11.2016 13:46 6,6 C 95 % 1018,4 hPa 0,0 l/m 15,0 km/h (3 Bft) NO 50 0 min 0,000 mm 0,0 UV-I 35 W/m 5,9 C 1,0 C 24,1 km/h (4 Bft) 100,00 %
24.11.2016 13:48 6,6 C 95 % 1018,4 hPa 0,0 l/m 17,3 km/h (3 Bft) O 97 0 min 0,000 mm 0,0 UV-I 40 W/m 5,9 C -0,0 C 24,1 km/h (4 Bft) 98,21 %
24.11.2016 13:50 6,6 C 95 % 1018,4 hPa 0,0 l/m 16,2 km/h (3 Bft) O-NO 61 0 min 0,000 mm 0,0 UV-I 42 W/m 5,9 C 0,5 C 22,5 km/h (4 Bft) 97,37 %
24.11.2016 13:52 6,6 C 95 % 1018,4 hPa 0,0 l/m 17,0 km/h (3 Bft) NO 56 0 min 0,000 mm 0,0 UV-I 43 W/m 5,9 C 0,1 C 24,1 km/h (4 Bft) 100,00 %
24.11.2016 13:54 6,6 C 95 % 1018,4 hPa 0,0 l/m 16,8 km/h (3 Bft) NO 42 0 min 0,000 mm 0,0 UV-I 42 W/m 5,9 C 0,2 C 24,1 km/h (4 Bft) 100,00 %
24.11.2016 13:56 6,6 C 95 % 1018,3 hPa 0,0 l/m 16,8 km/h (3 Bft) O-NO 74 0 min 0,000 mm 0,0 UV-I 41 W/m 5,9 C 0,2 C 24,1 km/h (4 Bft) 100,00 %
24.11.2016 13:58 6,6 C 95 % 1018,3 hPa 0,0 l/m 12,9 km/h (3 Bft) O 98 0 min 0,000 mm 0,0 UV-I 43 W/m 5,9 C 2,1 C 17,7 km/h (3 Bft) 100,00 %
24.11.2016 14:00 6,6 C 95 % 1018,3 hPa 0,0 l/m 14,0 km/h (3 Bft) NO 49 0 min 0,000 mm 0,0 UV-I 46 W/m 5,9 C 1,5 C 20,9 km/h (4 Bft) 100,00 %
24.11.2016 14:02 6,6 C 95 % 1018,3 hPa 0,0 l/m 17,3 km/h (3 Bft) O-NO 76 0 min 0,025 mm 0,0 UV-I 47 W/m 5,9 C -0,0 C 22,5 km/h (4 Bft) 100,00 %
24.11.2016 14:04 6,6 C 95 % 1018,3 hPa 0,0 l/m 15,4 km/h (3 Bft) O-NO 69 0 min 0,000 mm 0,0 UV-I 50 W/m 5,9 C 0,8 C 20,9 km/h (4 Bft) 100,00 %
24.11.2016 14:06 6,6 C 95 % 1018,3 hPa 0,0 l/m 15,3 km/h (3 Bft) O-NO 77 0 min 0,000 mm 0,0 UV-I 51 W/m 5,9 C 0,9 C 24,1 km/h (4 Bft) 96,61 %
24.11.2016 14:08 6,6 C 95 % 1018,3 hPa 0,0 l/m 17,4 km/h (3 Bft) O-NO 76 0 min 0,000 mm 0,0 UV-I 49 W/m 5,9 C -0,1 C 24,1 km/h (4 Bft) 100,00 %
24.11.2016 14:10 6,6 C 95 % 1018,3 hPa 0,0 l/m 15,4 km/h (3 Bft) O-NO 70 0 min 0,000 mm 0,0 UV-I 45 W/m 5,9 C 0,8 C 20,9 km/h (4 Bft) 100,00 %
24.11.2016 14:12 6,6 C 95 % 1018,3 hPa 0,0 l/m 17,2 km/h (3 Bft) O-NO 66 0 min 0,000 mm 0,0 UV-I 47 W/m 5,9 C 0,0 C 24,1 km/h (4 Bft) 100,00 %
24.11.2016 14:14 6,7 C 95 % 1018,3 hPa 0,0 l/m 14,6 km/h (3 Bft) O 86 0 min 0,000 mm 0,0 UV-I 50 W/m 6,0 C 1,3 C 22,5 km/h (4 Bft) 98,00 %
24.11.2016 14:16 6,7 C 95 % 1018,3 hPa 0,0 l/m 17,1 km/h (3 Bft) O-NO 69 0 min 0,000 mm 0,0 UV-I 52 W/m 6,0 C 0,2 C 22,5 km/h (4 Bft) 100,00 %
24.11.2016 14:18 6,7 C 95 % 1018,3 hPa 0,0 l/m 15,1 km/h (3 Bft) O-NO 67 0 min 0,000 mm 0,0 UV-I 53 W/m 6,0 C 1,1 C 22,5 km/h (4 Bft) 100,00 %
24.11.2016 14:20 6,7 C 95 % 1018,2 hPa 0,0 l/m 16,5 km/h (3 Bft) O-NO 71 0 min 0,000 mm 0,0 UV-I 52 W/m 6,0 C 0,4 C 22,5 km/h (4 Bft) 100,00 %
24.11.2016 14:22 6,7 C 95 % 1018,2 hPa 0,0 l/m 16,6 km/h (3 Bft) O 81 0 min 0,000 mm 0,0 UV-I 48 W/m 6,0 C 0,4 C 24,1 km/h (4 Bft) 100,00 %
24.11.2016 14:24 6,7 C 95 % 1018,2 hPa 0,0 l/m 16,7 km/h (3 Bft) O 96 0 min 0,000 mm 0,0 UV-I 50 W/m 6,0 C 0,4 C 25,7 km/h (4 Bft) 98,00 %
24.11.2016 14:26 6,7 C 95 % 1018,3 hPa 0,0 l/m 11,2 km/h (2 Bft) O-NO 71 0 min 0,000 mm 0,0 UV-I 49 W/m 6,0 C 3,2 C 19,3 km/h (3 Bft) 96,00 %
24.11.2016 14:28 6,7 C 95 % 1018,2 hPa 0,0 l/m 12,0 km/h (2 Bft) O-NO 76 0 min 0,000 mm 0,0 UV-I 53 W/m 6,0 C 2,7 C 17,7 km/h (3 Bft) 100,00 %
24.11.2016 14:30 6,7 C 95 % 1018,2 hPa 0,0 l/m 14,7 km/h (3 Bft) O-NO 59 0 min 0,000 mm 0,0 UV-I 51 W/m 6,0 C 1,3 C 19,3 km/h (3 Bft) 95,83 %
24.11.2016 14:32 6,7 C 95 % 1018,2 hPa 0,0 l/m 13,2 km/h (3 Bft) O 99 0 min 0,000 mm 0,0 UV-I 51 W/m 6,0 C 2,0 C 20,9 km/h (4 Bft) 100,00 %
24.11.2016 14:34 6,7 C 95 % 1018,2 hPa 0,0 l/m 12,8 km/h (3 Bft) O-SO 111 0 min 0,000 mm 0,0 UV-I 50 W/m 6,0 C 2,3 C 17,7 km/h (3 Bft) 100,00 %
24.11.2016 14:36 6,7 C 95 % 1018,2 hPa 0,0 l/m 10,9 km/h (2 Bft) O 96 0 min 0,000 mm 0,0 UV-I 47 W/m 6,0 C 3,4 C 16,1 km/h (3 Bft) 100,00 %
24.11.2016 14:38 6,7 C 94 % 1018,1 hPa 0,0 l/m 13,1 km/h (3 Bft) O-SO 105 0 min 0,000 mm 0,0 UV-I 43 W/m 5,8 C 2,1 C 19,3 km/h (3 Bft) 98,00 %
24.11.2016 14:40 6,7 C 94 % 1018,1 hPa 0,0 l/m 9,7 km/h (2 Bft) O 92 0 min 0,000 mm 0,0 UV-I 42 W/m 5,8 C 4,2 C 14,5 km/h (3 Bft) 100,00 %
24.11.2016 14:42 6,7 C 94 % 1018,0 hPa 0,0 l/m 13,2 km/h (3 Bft) O-NO 73 0 min 0,000 mm 0,0 UV-I 42 W/m 5,8 C 2,0 C 22,5 km/h (4 Bft) 100,00 %
24.11.2016 14:44 6,7 C 94 % 1018,0 hPa 0,0 l/m 13,3 km/h (3 Bft) O-SO 103 0 min 0,000 mm 0,0 UV-I 42 W/m 5,8 C 2,0 C 22,5 km/h (4 Bft) 95,74 %
24.11.2016 14:46 6,7 C 94 % 1018,0 hPa 0,0 l/m 14,1 km/h (3 Bft) O-NO 71 0 min 0,000 mm 0,0 UV-I 40 W/m 5,8 C 1,6 C 20,9 km/h (4 Bft) 100,00 %
24.11.2016 14:48 6,7 C 94 % 1018,0 hPa 0,0 l/m 14,6 km/h (3 Bft) O-NO 73 0 min 0,000 mm 0,0 UV-I 38 W/m 5,8 C 1,3 C 22,5 km/h (4 Bft) 100,00 %
24.11.2016 14:50 6,7 C 94 % 1018,0 hPa 0,0 l/m 16,1 km/h (3 Bft) O-NO 67 0 min 0,000 mm 0,0 UV-I 39 W/m 5,8 C 0,6 C 25,7 km/h (4 Bft) 100,00 %
24.11.2016 14:54 6,8 C 94 % 1017,9 hPa 0,0 l/m 17,8 km/h (3 Bft) O 82 0 min 0,000 mm 0,0 UV-I 39 W/m 5,9 C 0,0 C 20,9 km/h (4 Bft) 97,22 %
24.11.2016 14:56 6,8 C 94 % 1017,9 hPa 0,0 l/m 16,0 km/h (3 Bft) O 90 0 min 0,000 mm 0,0 UV-I 39 W/m 5,9 C 0,8 C 20,9 km/h (4 Bft) 97,73 %
24.11.2016 14:58 6,8 C 94 % 1018,0 hPa 0,0 l/m 14,4 km/h (3 Bft) O 82 0 min 0,000 mm 0,0 UV-I 38 W/m 5,9 C 1,5 C 20,9 km/h (4 Bft) 95,45 %
24.11.2016 15:00 6,8 C 94 % 1017,9 hPa 0,0 l/m 13,9 km/h (3 Bft) O-NO 64 0 min 0,000 mm 0,0 UV-I 36 W/m 5,9 C 1,8 C 19,3 km/h (3 Bft) 98,11 %
24.11.2016 15:03 6,8 C 94 % 1017,9 hPa 0,0 l/m 13,3 km/h (3 Bft) O 88 0 min 0,025 mm 0,0 UV-I 32 W/m 5,9 C 2,1 C 20,9 km/h (4 Bft) 96,10 %
24.11.2016 15:04 6,8 C 94 % 1017,9 hPa 0,0 l/m 9,3 km/h (2 Bft) O 86 0 min 0,000 mm 0,0 UV-I 28 W/m 5,9 C 4,5 C 14,5 km/h (3 Bft) 95,65 %
24.11.2016 15:06 6,8 C 94 % 1017,9 hPa 0,0 l/m 15,8 km/h (3 Bft) O 81 0 min 0,000 mm 0,0 UV-I 28 W/m 5,9 C 0,9 C 20,9 km/h (4 Bft) 97,56 %
24.11.2016 15:08 6,8 C 94 % 1017,9 hPa 0,0 l/m 14,1 km/h (3 Bft) O-NO 71 0 min 0,000 mm 0,0 UV-I 26 W/m 5,9 C 1,7 C 19,3 km/h (3 Bft) 97,92 %
24.11.2016 15:10 6,8 C 94 % 1017,9 hPa 0,0 l/m 11,2 km/h (2 Bft) O-NO 65 0 min 0,000 mm 0,0 UV-I 25 W/m 5,9 C 3,3 C 17,7 km/h (3 Bft) 97,73 %
24.11.2016 15:12 6,7 C 94 % 1018,0 hPa 0,0 l/m 11,9 km/h (2 Bft) O 87 0 min 0,000 mm 0,0 UV-I 24 W/m 5,8 C 2,8 C 17,7 km/h (3 Bft) 98,11 %
24.11.2016 15:14 6,7 C 94 % 1018,0 hPa 0,0 l/m 14,0 km/h (3 Bft) O-SO 104 0 min 0,000 mm 0,0 UV-I 20 W/m 5,8 C 1,6 C 19,3 km/h (3 Bft) 97,56 %
24.11.2016 15:16 6,7 C 94 % 1018,0 hPa 0,0 l/m 14,4 km/h (3 Bft) O 86 0 min 0,000 mm 0,0 UV-I 20 W/m 5,8 C 1,4 C 22,5 km/h (4 Bft) 98,00 %
24.11.2016 15:18 6,7 C 94 % 1017,9 hPa 0,0 l/m 19,0 km/h (3 Bft) O-NO 78 0 min 0,000 mm 0,0 UV-I 19 W/m 5,8 C -0,6 C 22,5 km/h (4 Bft) 97,73 %
24.11.2016 15:20 6,7 C 94 % 1017,9 hPa 0,0 l/m 13,0 km/h (3 Bft) O-NO 65 0 min 0,000 mm 0,0 UV-I 17 W/m 5,8 C 2,2 C 20,9 km/h (4 Bft) 96,23 %
24.11.2016 15:22 6,7 C 94 % 1017,9 hPa 0,0 l/m 18,9 km/h (3 Bft) O-SO 110 0 min 0,000 mm 0,0 UV-I 14 W/m 5,8 C -0,6 C 32,2 km/h (5 Bft) 95,12 %
24.11.2016 15:24 6,7 C 94 % 1017,9 hPa 0,0 l/m 19,5 km/h (3 Bft) O-NO 59 0 min 0,000 mm 0,0 UV-I 15 W/m 5,8 C -0,8 C 25,7 km/h (4 Bft) 94,00 %
24.11.2016 15:26 6,6 C 95 % 1017,9 hPa 0,0 l/m 16,4 km/h (3 Bft) O-NO 65 0 min 0,000 mm 0,0 UV-I 14 W/m 5,9 C 0,4 C 20,9 km/h (4 Bft) 95,12 %
24.11.2016 15:28 6,6 C 95 % 1017,9 hPa 0,0 l/m 14,6 km/h (3 Bft) O-NO 69 0 min 0,000 mm 0,0 UV-I 15 W/m 5,9 C 1,2 C 24,1 km/h (4 Bft) 98,11 %
24.11.2016 15:30 6,6 C 95 % 1017,9 hPa 0,0 l/m 15,9 km/h (3 Bft) O 86 0 min 0,000 mm 0,0 UV-I 12 W/m 5,9 C 0,6 C 22,5 km/h (4 Bft) 97,37 %
24.11.2016 15:32 6,6 C 95 % 1017,9 hPa 0,0 l/m 14,5 km/h (3 Bft) NO 54 0 min 0,000 mm 0,0 UV-I 14 W/m 5,9 C 1,3 C 17,7 km/h (3 Bft) 98,31 %
24.11.2016 15:34 6,6 C 95 % 1017,9 hPa 0,0 l/m 13,0 km/h (3 Bft) O-NO 77 0 min 0,000 mm 0,0 UV-I 13 W/m 5,9 C 2,0 C 17,7 km/h (3 Bft) 100,00 %
24.11.2016 15:36 6,6 C 95 % 1017,9 hPa 0,0 l/m 14,3 km/h (3 Bft) O 88 0 min 0,000 mm 0,0 UV-I 12 W/m 5,9 C 1,4 C 20,9 km/h (4 Bft) 100,00 %
24.11.2016 15:38 6,6 C 95 % 1018,0 hPa 0,0 l/m 14,1 km/h (3 Bft) O-NO 61 0 min 0,000 mm 0,0 UV-I 12 W/m 5,9 C 1,5 C 19,3 km/h (3 Bft) 100,00 %
24.11.2016 15:40 6,6 C 95 % 1018,0 hPa 0,0 l/m 12,5 km/h (3 Bft) O-NO 71 0 min 0,000 mm 0,0 UV-I 11 W/m 5,9 C 2,3 C 22,5 km/h (4 Bft) 100,00 %
24.11.2016 15:42 6,6 C 95 % 1017,9 hPa 0,0 l/m 12,4 km/h (3 Bft) O-NO 63 0 min 0,000 mm 0,0 UV-I 11 W/m 5,9 C 2,4 C 19,3 km/h (3 Bft) 100,00 %
24.11.2016 15:44 6,6 C 95 % 1017,9 hPa 0,0 l/m 14,7 km/h (3 Bft) O 82 0 min 0,000 mm 0,0 UV-I 11 W/m 5,9 C 1,2 C 22,5 km/h (4 Bft) 100,00 %
24.11.2016 15:46 6,6 C 95 % 1018,0 hPa 0,0 l/m 13,7 km/h (3 Bft) O-NO 77 0 min 0,000 mm 0,0 UV-I 10 W/m 5,9 C 1,7 C 20,9 km/h (4 Bft) 100,00 %
24.11.2016 15:48 6,6 C 95 % 1017,9 hPa 0,0 l/m 17,1 km/h (3 Bft) O-NO 66 0 min 0,000 mm 0,0 UV-I 9 W/m 5,9 C 0,1 C 24,1 km/h (4 Bft) 100,00 %
24.11.2016 15:50 6,5 C 95 % 1017,9 hPa 0,0 l/m 12,2 km/h (2 Bft) O-NO 71 0 min 0,000 mm 0,0 UV-I 9 W/m 5,8 C 2,4 C 16,1 km/h (3 Bft) 100,00 %
24.11.2016 15:52 6,6 C 95 % 1017,9 hPa 0,0 l/m 12,9 km/h (3 Bft) O-NO 71 0 min 0,000 mm 0,0 UV-I 8 W/m 5,9 C 2,1 C 17,7 km/h (3 Bft) 100,00 %
24.11.2016 15:54 6,5 C 95 % 1017,8 hPa 0,0 l/m 16,5 km/h (3 Bft) O 89 0 min 0,000 mm 0,0 UV-I 7 W/m 5,8 C 0,2 C 24,1 km/h (4 Bft) 100,00 %
24.11.2016 15:56 6,5 C 95 % 1017,8 hPa 0,0 l/m 16,1 km/h (3 Bft) NO 54 0 min 0,000 mm 0,0 UV-I 7 W/m 5,8 C 0,4 C 20,9 km/h (4 Bft) 97,87 %
24.11.2016 15:58 6,5 C 95 % 1017,9 hPa 0,0 l/m 14,7 km/h (3 Bft) NO 53 0 min 0,000 mm 0,0 UV-I 7 W/m 5,8 C 1,0 C 20,9 km/h (4 Bft) 100,00 %
24.11.2016 16:00 6,5 C 95 % 1017,9 hPa 0,0 l/m 12,2 km/h (2 Bft) O-NO 73 0 min 0,026 mm 0,0 UV-I 5 W/m 5,8 C 2,4 C 16,1 km/h (3 Bft) 100,00 %
24.11.2016 16:02 6,5 C 95 % 1017,9 hPa 0,0 l/m 14,0 km/h (3 Bft) NO 49 0 min 0,000 mm 0,0 UV-I 5 W/m 5,8 C 1,4 C 17,7 km/h (3 Bft) 100,00 %
24.11.2016 16:04 6,5 C 95 % 1017,9 hPa 0,0 l/m 17,1 km/h (3 Bft) O-NO 77 0 min 0,000 mm 0,0 UV-I 5 W/m 5,8 C -0,1 C 22,5 km/h (4 Bft) 98,00 %
24.11.2016 16:06 6,5 C 95 % 1017,8 hPa 0,0 l/m 15,5 km/h (3 Bft) NO 46 0 min 0,000 mm 0,0 UV-I 5 W/m 5,8 C 0,7 C 22,5 km/h (4 Bft) 100,00 %
24.11.2016 16:08 6,5 C 95 % 1017,8 hPa 0,0 l/m 12,2 km/h (2 Bft) O-NO 62 0 min 0,000 mm 0,0 UV-I 5 W/m 5,8 C 2,4 C 17,7 km/h (3 Bft) 96,00 %
24.11.2016 16:10 6,5 C 95 % 1017,9 hPa 0,0 l/m 14,8 km/h (3 Bft) O-NO 74 0 min 0,000 mm 0,0 UV-I 3 W/m 5,8 C 1,0 C 20,9 km/h (4 Bft) 100,00 %
24.11.2016 16:12 6,5 C 95 % 1017,8 hPa 0,0 l/m 13,8 km/h (3 Bft) NO 47 0 min 0,000 mm 0,0 UV-I 0 W/m 5,8 C 1,5 C 20,9 km/h (4 Bft) 100,00 %
24.11.2016 16:14 6,4 C 95 % 1017,9 hPa 0,0 l/m 15,2 km/h (3 Bft) O-NO 66 0 min 0,000 mm 0,0 UV-I 0 W/m 5,7 C 0,7 C 22,5 km/h (4 Bft) 100,00 %
24.11.2016 16:16 6,4 C 95 % 1017,9 hPa 0,0 l/m 15,9 km/h (3 Bft) NO 49 0 min 0,000 mm 0,0 UV-I 0 W/m 5,7 C 0,3 C 22,5 km/h (4 Bft) 95,74 %
24.11.2016 16:18 6,4 C 95 % 1017,9 hPa 0,0 l/m 14,1 km/h (3 Bft) NO 54 0 min 0,000 mm 0,0 UV-I 0 W/m 5,7 C 1,2 C 20,9 km/h (4 Bft) 100,00 %
24.11.2016 16:20 6,4 C 95 % 1017,9 hPa 0,0 l/m 15,5 km/h (3 Bft) O-NO 57 0 min 0,000 mm 0,0 UV-I 0 W/m 5,7 C 0,5 C 22,5 km/h (4 Bft) 100,00 %
24.11.2016 16:22 6,4 C 95 % 1017,9 hPa 0,0 l/m 13,7 km/h (3 Bft) O-NO 62 0 min 0,000 mm 0,0 UV-I 0 W/m 5,7 C 1,4 C 19,3 km/h (3 Bft) 97,87 %
24.11.2016 16:24 6,4 C 95 % 1017,9 hPa 0,0 l/m 14,6 km/h (3 Bft) O-NO 74 0 min 0,000 mm 0,0 UV-I 0 W/m 5,7 C 1,0 C 17,7 km/h (3 Bft) 100,00 %
24.11.2016 16:26 6,4 C 95 % 1017,9 hPa 0,0 l/m 12,0 km/h (2 Bft) O-NO 76 0 min 0,000 mm 0,0 UV-I 0 W/m 5,7 C 2,4 C 16,1 km/h (3 Bft) 100,00 %
24.11.2016 16:28 6,4 C 95 % 1018,0 hPa 0,0 l/m 13,5 km/h (3 Bft) O 100 0 min 0,000 mm 0,0 UV-I 0 W/m 5,7 C 1,5 C 19,3 km/h (3 Bft) 97,87 %
24.11.2016 16:30 6,4 C 95 % 1018,0 hPa 0,0 l/m 15,2 km/h (3 Bft) O 82 0 min 0,000 mm 0,0 UV-I 0 W/m 5,7 C 0,7 C 20,9 km/h (4 Bft) 100,00 %
24.11.2016 16:32 6,4 C 95 % 1018,0 hPa 0,0 l/m 15,0 km/h (3 Bft) O-NO 65 0 min 0,000 mm 0,0 UV-I 0 W/m 5,7 C 0,8 C 20,9 km/h (4 Bft) 100,00 %
24.11.2016 16:34 6,4 C 95 % 1018,0 hPa 0,0 l/m 15,2 km/h (3 Bft) O-NO 72 0 min 0,000 mm 0,0 UV-I 0 W/m 5,7 C 0,7 C 22,5 km/h (4 Bft) 100,00 %
24.11.2016 16:36 6,4 C 95 % 1018,1 hPa 0,0 l/m 12,9 km/h (3 Bft) O 90 0 min 0,000 mm 0,0 UV-I 0 W/m 5,7 C 1,9 C 17,7 km/h (3 Bft) 100,00 %
24.11.2016 16:38 6,4 C 95 % 1018,1 hPa 0,0 l/m 13,5 km/h (3 Bft) O-NO 61 0 min 0,000 mm 0,0 UV-I 0 W/m 5,7 C 1,5 C 19,3 km/h (3 Bft) 98,00 %
24.11.2016 16:40 6,4 C 95 % 1018,0 hPa 0,0 l/m 13,9 km/h (3 Bft) O-NO 71 0 min 0,000 mm 0,0 UV-I 0 W/m 5,7 C 1,3 C 19,3 km/h (3 Bft) 100,00 %
24.11.2016 16:42 6,4 C 95 % 1018,1 hPa 0,0 l/m 13,4 km/h (3 Bft) O 79 0 min 0,000 mm 0,0 UV-I 0 W/m 5,7 C 1,6 C 19,3 km/h (3 Bft) 97,87 %
24.11.2016 16:44 6,4 C 95 % 1018,0 hPa 0,0 l/m 14,2 km/h (3 Bft) O-NO 66 0 min 0,000 mm 0,0 UV-I 0 W/m 5,7 C 1,2 C 17,7 km/h (3 Bft) 100,00 %
24.11.2016 16:46 6,4 C 95 % 1018,0 hPa 0,0 l/m 13,8 km/h (3 Bft) O-NO 75 0 min 0,000 mm 0,0 UV-I 0 W/m 5,7 C 1,4 C 19,3 km/h (3 Bft) 95,74 %
24.11.2016 16:48 6,3 C 95 % 1018,1 hPa 0,0 l/m 11,4 km/h (2 Bft) O 84 0 min 0,000 mm 0,0 UV-I 0 W/m 5,6 C 2,6 C 17,7 km/h (3 Bft) 100,00 %
24.11.2016 16:50 6,3 C 96 % 1018,1 hPa 0,0 l/m 12,6 km/h (3 Bft) O-NO 75 0 min 0,000 mm 0,0 UV-I 0 W/m 5,7 C 1,9 C 17,7 km/h (3 Bft) 98,00 %
24.11.2016 16:52 6,3 C 96 % 1018,1 hPa 0,0 l/m 11,5 km/h (2 Bft) O-NO 63 0 min 0,000 mm 0,0 UV-I 0 W/m 5,7 C 2,6 C 16,1 km/h (3 Bft) 100,00 %
24.11.2016 16:54 6,3 C 96 % 1018,1 hPa 0,0 l/m 14,8 km/h (3 Bft) O-NO 64 0 min 0,000 mm 0,0 UV-I 0 W/m 5,7 C 0,7 C 20,9 km/h (4 Bft) 97,87 %
24.11.2016 16:56 6,3 C 95 % 1018,1 hPa 0,0 l/m 16,0 km/h (3 Bft) O 89 0 min 0,000 mm 0,0 UV-I 0 W/m 5,6 C 0,2 C 22,5 km/h (4 Bft) 97,87 %
24.11.2016 16:58 6,3 C 95 % 1018,0 hPa 0,0 l/m 12,5 km/h (3 Bft) O 81 0 min 0,000 mm 0,0 UV-I 0 W/m 5,6 C 2,0 C 17,7 km/h (3 Bft) 95,74 %
24.11.2016 17:00 6,3 C 95 % 1018,0 hPa 0,0 l/m 14,1 km/h (3 Bft) O-NO 74 0 min 0,000 mm 0,0 UV-I 0 W/m 5,6 C 1,1 C 20,9 km/h (4 Bft) 95,74 %
24.11.2016 17:02 6,3 C 95 % 1018,0 hPa 0,0 l/m 12,7 km/h (3 Bft) O-NO 59 0 min 0,000 mm 0,0 UV-I 0 W/m 5,6 C 1,9 C 17,7 km/h (3 Bft) 97,87 %
24.11.2016 17:04 6,3 C 95 % 1018,0 hPa 0,0 l/m 13,7 km/h (3 Bft) O-NO 74 0 min 0,000 mm 0,0 UV-I 0 W/m 5,6 C 1,3 C 20,9 km/h (4 Bft) 97,87 %
24.11.2016 17:06 6,3 C 95 % 1018,1 hPa 0,0 l/m 16,3 km/h (3 Bft) O 82 0 min 0,000 mm 0,0 UV-I 0 W/m 5,6 C 0,0 C 20,9 km/h (4 Bft) 93,62 %
24.11.2016 17:08 6,3 C 95 % 1018,1 hPa 0,0 l/m 14,8 km/h (3 Bft) O-NO 58 0 min 0,000 mm 0,0 UV-I 0 W/m 5,6 C 0,7 C 20,9 km/h (4 Bft) 94,34 %
24.11.2016 17:10 6,3 C 95 % 1018,1 hPa 0,0 l/m 10,0 km/h (2 Bft) O-NO 65 0 min 0,000 mm 0,0 UV-I 0 W/m 5,6 C 3,5 C 16,1 km/h (3 Bft) 97,87 %
24.11.2016 17:12 6,3 C 95 % 1018,2 hPa 0,0 l/m 11,5 km/h (2 Bft) O-NO 67 0 min 0,000 mm 0,0 UV-I 0 W/m 5,6 C 2,6 C 16,1 km/h (3 Bft) 97,87 %
24.11.2016 17:14 6,3 C 95 % 1018,2 hPa 0,0 l/m 15,6 km/h (3 Bft) NO 44 0 min 0,000 mm 0,0 UV-I 0 W/m 5,6 C 0,4 C 22,5 km/h (4 Bft) 97,87 %
24.11.2016 17:16 6,3 C 95 % 1018,3 hPa 0,0 l/m 13,1 km/h (3 Bft) O-NO 57 0 min 0,000 mm 0,0 UV-I 0 W/m 5,6 C 1,6 C 19,3 km/h (3 Bft) 97,37 %
24.11.2016 17:18 6,3 C 95 % 1018,3 hPa 0,0 l/m 13,9 km/h (3 Bft) O-NO 64 0 min 0,000 mm 0,0 UV-I 0 W/m 5,6 C 1,2 C 19,3 km/h (3 Bft) 97,87 %
24.11.2016 17:20 6,3 C 95 % 1018,4 hPa 0,0 l/m 11,1 km/h (2 Bft) NO 55 0 min 0,000 mm 0,0 UV-I 0 W/m 5,6 C 2,8 C 14,5 km/h (3 Bft) 96,00 %
24.11.2016 17:22 6,3 C 95 % 1018,4 hPa 0,0 l/m 10,5 km/h (2 Bft) O-NO 67 0 min 0,000 mm 0,0 UV-I 0 W/m 5,6 C 3,2 C 14,5 km/h (3 Bft) 90,00 %
24.11.2016 17:24 6,3 C 95 % 1018,4 hPa 0,0 l/m 9,5 km/h (2 Bft) O-NO 62 0 min 0,000 mm 0,0 UV-I 0 W/m 5,6 C 3,9 C 16,1 km/h (3 Bft) 97,37 %
24.11.2016 17:26 6,3 C 95 % 1018,4 hPa 0,0 l/m 10,0 km/h (2 Bft) NO 46 0 min 0,000 mm 0,0 UV-I 0 W/m 5,6 C 3,5 C 16,1 km/h (3 Bft) 98,00 %
24.11.2016 17:28 6,3 C 95 % 1018,4 hPa 0,0 l/m 10,1 km/h (2 Bft) O-NO 67 0 min 0,000 mm 0,0 UV-I 0 W/m 5,6 C 3,4 C 14,5 km/h (3 Bft) 97,92 %
24.11.2016 17:30 6,3 C 95 % 1018,5 hPa 0,0 l/m 9,6 km/h (2 Bft) NO 56 0 min 0,000 mm 0,0 UV-I 0 W/m 5,6 C 3,8 C 12,9 km/h (3 Bft) 100,00 %
24.11.2016 17:32 6,3 C 95 % 1018,5 hPa 0,0 l/m 10,8 km/h (2 Bft) O-NO 74 0 min 0,000 mm 0,0 UV-I 0 W/m 5,6 C 3,0 C 17,7 km/h (3 Bft) 97,87 %
24.11.2016 17:34 6,3 C 95 % 1018,5 hPa 0,0 l/m 12,5 km/h (3 Bft) O-NO 70 0 min 0,000 mm 0,0 UV-I 0 W/m 5,6 C 2,0 C 17,7 km/h (3 Bft) 100,00 %
24.11.2016 17:36 6,3 C 96 % 1018,5 hPa 0,0 l/m 10,5 km/h (2 Bft) O-NO 78 0 min 0,000 mm 0,0 UV-I 0 W/m 5,7 C 3,2 C 12,9 km/h (3 Bft) 100,00 %
24.11.2016 17:38 6,3 C 96 % 1018,4 hPa 0,0 l/m 10,0 km/h (2 Bft) NO 53 0 min 0,000 mm 0,0 UV-I 0 W/m 5,7 C 3,5 C 14,5 km/h (3 Bft) 97,87 %
24.11.2016 17:40 6,2 C 96 % 1018,4 hPa 0,0 l/m 10,2 km/h (2 Bft) NO 54 0 min 0,000 mm 0,0 UV-I 0 W/m 5,6 C 3,3 C 14,5 km/h (3 Bft) 100,00 %
24.11.2016 17:42 6,2 C 96 % 1018,4 hPa 0,0 l/m 14,6 km/h (3 Bft) NO 44 0 min 0,000 mm 0,0 UV-I 0 W/m 5,6 C 0,7 C 17,7 km/h (3 Bft) 100,00 %
24.11.2016 17:44 6,2 C 96 % 1018,4 hPa 0,0 l/m 10,3 km/h (2 Bft) O-NO 62 0 min 0,000 mm 0,0 UV-I 0 W/m 5,6 C 3,2 C 16,1 km/h (3 Bft) 100,00 %
24.11.2016 17:46 6,2 C 96 % 1018,4 hPa 0,0 l/m 12,3 km/h (3 Bft) O-NO 58 0 min 0,000 mm 0,0 UV-I 0 W/m 5,6 C 2,0 C 16,1 km/h (3 Bft) 97,87 %
24.11.2016 17:48 6,2 C 96 % 1018,4 hPa 0,0 l/m 11,2 km/h (2 Bft) O-NO 69 0 min 0,000 mm 0,0 UV-I 0 W/m 5,6 C 2,6 C 16,1 km/h (3 Bft) 97,87 %
24.11.2016 17:50 6,2 C 96 % 1018,4 hPa 0,0 l/m 10,8 km/h (2 Bft) NO 55 0 min 0,000 mm 0,0 UV-I 0 W/m 5,6 C 2,9 C 16,1 km/h (3 Bft) 100,00 %
24.11.2016 17:52 6,2 C 96 % 1018,4 hPa 0,0 l/m 10,7 km/h (2 Bft) NO 42 0 min 0,000 mm 0,0 UV-I 0 W/m 5,6 C 2,9 C 19,3 km/h (3 Bft) 95,74 %
24.11.2016 17:54 6,2 C 96 % 1018,4 hPa 0,0 l/m 10,7 km/h (2 Bft) NO 46 0 min 0,000 mm 0,0 UV-I 0 W/m 5,6 C 2,9 C 16,1 km/h (3 Bft) 100,00 %
24.11.2016 17:56 6,2 C 96 % 1018,5 hPa 0,0 l/m 11,2 km/h (2 Bft) NO 53 0 min 0,000 mm 0,0 UV-I 0 W/m 5,6 C 2,6 C 16,1 km/h (3 Bft) 97,87 %
24.11.2016 17:58 6,2 C 96 % 1018,6 hPa 0,0 l/m 8,7 km/h (2 Bft) NO 47 0 min 0,000 mm 0,0 UV-I 0 W/m 5,6 C 4,3 C 14,5 km/h (3 Bft) 100,00 %
24.11.2016 18:00 6,1 C 96 % 1018,6 hPa 0,0 l/m 9,7 km/h (2 Bft) NO 49 0 min 0,000 mm 0,0 UV-I 0 W/m 5,5 C 3,5 C 16,1 km/h (3 Bft) 100,00 %
24.11.2016 18:02 6,2 C 96 % 1018,6 hPa 0,0 l/m 9,6 km/h (2 Bft) NO 42 0 min 0,000 mm 0,0 UV-I 0 W/m 5,6 C 3,7 C 16,1 km/h (3 Bft) 100,00 %
24.11.2016 18:04 6,2 C 96 % 1018,6 hPa 0,0 l/m 9,0 km/h (2 Bft) O-NO 59 0 min 0,000 mm 0,0 UV-I 0 W/m 5,6 C 4,1 C 16,1 km/h (3 Bft) 100,00 %
24.11.2016 18:06 6,2 C 96 % 1018,6 hPa 0,0 l/m 10,9 km/h (2 Bft) O-NO 74 0 min 0,000 mm 0,0 UV-I 0 W/m 5,6 C 2,8 C 16,1 km/h (3 Bft) 100,00 %
24.11.2016 18:08 6,2 C 96 % 1018,6 hPa 0,0 l/m 10,4 km/h (2 Bft) O-NO 57 0 min 0,000 mm 0,0 UV-I 0 W/m 5,6 C 3,1 C 16,1 km/h (3 Bft) 97,87 %
24.11.2016 18:10 6,2 C 96 % 1018,7 hPa 0,0 l/m 12,7 km/h (3 Bft) O-NO 71 0 min 0,000 mm 0,0 UV-I 0 W/m 5,6 C 1,7 C 17,7 km/h (3 Bft) 100,00 %
24.11.2016 18:12 6,1 C 96 % 1018,7 hPa 0,0 l/m 11,4 km/h (2 Bft) O 84 0 min 0,000 mm 0,0 UV-I 0 W/m 5,5 C 2,4 C 17,7 km/h (3 Bft) 100,00 %
24.11.2016 18:14 6,2 C 96 % 1018,6 hPa 0,0 l/m 12,6 km/h (3 Bft) O-NO 63 0 min 0,000 mm 0,0 UV-I 0 W/m 5,6 C 1,8 C 19,3 km/h (3 Bft) 98,00 %
24.11.2016 18:16 6,1 C 96 % 1018,6 hPa 0,0 l/m 11,1 km/h (2 Bft) O 84 0 min 0,000 mm 0,0 UV-I 0 W/m 5,5 C 2,6 C 19,3 km/h (3 Bft) 97,87 %
24.11.2016 18:18 6,1 C 96 % 1018,6 hPa 0,0 l/m 14,3 km/h (3 Bft) NO 46 0 min 0,000 mm 0,0 UV-I 0 W/m 5,5 C 0,8 C 19,3 km/h (3 Bft) 98,00 %
24.11.2016 18:20 6,1 C 96 % 1018,6 hPa 0,0 l/m 11,6 km/h (2 Bft) O-NO 58 0 min 0,000 mm 0,0 UV-I 0 W/m 5,5 C 2,3 C 17,7 km/h (3 Bft) 100,00 %
24.11.2016 18:22 6,1 C 96 % 1018,6 hPa 0,0 l/m 12,6 km/h (3 Bft) O-NO 59 0 min 0,000 mm 0,0 UV-I 0 W/m 5,5 C 1,7 C 16,1 km/h (3 Bft) 97,87 %
24.11.2016 18:24 6,1 C 96 % 1018,6 hPa 0,0 l/m 10,6 km/h (2 Bft) O-NO 76 0 min 0,000 mm 0,0 UV-I 0 W/m 5,5 C 2,9 C 17,7 km/h (3 Bft) 97,87 %
24.11.2016 18:26 6,1 C 96 % 1018,6 hPa 0,0 l/m 14,5 km/h (3 Bft) N-NO 26 0 min 0,000 mm 0,0 UV-I 0 W/m 5,5 C 0,7 C 20,9 km/h (4 Bft) 97,87 %
24.11.2016 18:28 6,1 C 96 % 1018,6 hPa 0,0 l/m 14,3 km/h (3 Bft) O-NO 69 0 min 0,000 mm 0,0 UV-I 0 W/m 5,5 C 0,8 C 17,7 km/h (3 Bft) 100,00 %
24.11.2016 18:30 6,1 C 96 % 1018,6 hPa 0,0 l/m 11,8 km/h (2 Bft) O-NO 77 0 min 0,000 mm 0,0 UV-I 0 W/m 5,5 C 2,1 C 17,7 km/h (3 Bft) 97,87 %
24.11.2016 18:32 6,1 C 96 % 1018,7 hPa 0,0 l/m 11,3 km/h (2 Bft) O-NO 65 0 min 0,000 mm 0,0 UV-I 0 W/m 5,5 C 2,4 C 17,7 km/h (3 Bft) 97,87 %
24.11.2016 18:34 6,1 C 96 % 1018,7 hPa 0,0 l/m 11,9 km/h (2 Bft) O-NO 63 0 min 0,000 mm 0,0 UV-I 0 W/m 5,5 C 2,1 C 17,7 km/h (3 Bft) 97,92 %
24.11.2016 18:36 6,1 C 96 % 1018,7 hPa 0,0 l/m 12,1 km/h (2 Bft) O-NO 67 0 min 0,000 mm 0,0 UV-I 0 W/m 5,5 C 2,0 C 17,7 km/h (3 Bft) 100,00 %
24.11.2016 18:38 6,1 C 96 % 1018,7 hPa 0,0 l/m 11,4 km/h (2 Bft) O-NO 58 0 min 0,000 mm 0,0 UV-I 0 W/m 5,5 C 2,4 C 17,7 km/h (3 Bft) 100,00 %
24.11.2016 18:40 6,1 C 96 % 1018,7 hPa 0,0 l/m 13,4 km/h (3 Bft) NO 44 0 min 0,000 mm 0,0 UV-I 0 W/m 5,5 C 1,2 C 19,3 km/h (3 Bft) 100,00 %
24.11.2016 18:42 6,1 C 96 % 1018,7 hPa 0,0 l/m 14,7 km/h (3 Bft) NO 47 0 min 0,000 mm 0,0 UV-I 0 W/m 5,5 C 0,6 C 20,9 km/h (4 Bft) 100,00 %
24.11.2016 18:44 6,1 C 96 % 1018,7 hPa 0,0 l/m 12,5 km/h (3 Bft) NO 46 0 min 0,000 mm 0,0 UV-I 0 W/m 5,5 C 1,7 C 19,3 km/h (3 Bft) 100,00 %
24.11.2016 18:46 6,1 C 96 % 1018,7 hPa 0,0 l/m 14,9 km/h (3 Bft) O-NO 69 0 min 0,000 mm 0,0 UV-I 0 W/m 5,5 C 0,5 C 20,9 km/h (4 Bft) 100,00 %
24.11.2016 18:48 6,1 C 96 % 1018,7 hPa 0,0 l/m 8,5 km/h (2 Bft) O-NO 61 0 min 0,000 mm 0,0 UV-I 0 W/m 5,5 C 4,4 C 14,5 km/h (3 Bft) 100,00 %
24.11.2016 18:50 6,1 C 96 % 1018,7 hPa 0,0 l/m 13,0 km/h (3 Bft) O-NO 71 0 min 0,000 mm 0,0 UV-I 0 W/m 5,5 C 1,5 C 19,3 km/h (3 Bft) 100,00 %
24.11.2016 18:52 6,1 C 96 % 1018,7 hPa 0,0 l/m 14,6 km/h (3 Bft) NO 49 0 min 0,000 mm 0,0 UV-I 0 W/m 5,5 C 0,6 C 20,9 km/h (4 Bft) 97,87 %
24.11.2016 18:54 6,1 C 96 % 1018,8 hPa 0,0 l/m 13,8 km/h (3 Bft) O-NO 58 0 min 0,000 mm 0,0 UV-I 0 W/m 5,5 C 1,0 C 19,3 km/h (3 Bft) 100,00 %
24.11.2016 18:56 6,1 C 96 % 1018,8 hPa 0,0 l/m 15,1 km/h (3 Bft) NO 54 0 min 0,000 mm 0,0 UV-I 0 W/m 5,5 C 0,4 C 20,9 km/h (4 Bft) 100,00 %
24.11.2016 18:58 6,1 C 95 % 1018,8 hPa 0,0 l/m 12,3 km/h (3 Bft) NO 40 0 min 0,000 mm 0,0 UV-I 0 W/m 5,4 C 1,8 C 17,7 km/h (3 Bft) 100,00 %
24.11.2016 19:00 6,1 C 95 % 1018,8 hPa 0,0 l/m 11,1 km/h (2 Bft) O 84 0 min 0,000 mm 0,0 UV-I 0 W/m 5,4 C 2,6 C 16,1 km/h (3 Bft) 97,87 %
24.11.2016 19:02 6,0 C 95 % 1018,8 hPa 0,0 l/m 10,9 km/h (2 Bft) O-NO 57 0 min 0,000 mm 0,0 UV-I 0 W/m 5,3 C 2,6 C 16,1 km/h (3 Bft) 95,12 %
24.11.2016 19:04 6,0 C 95 % 1018,9 hPa 0,0 l/m 10,9 km/h (2 Bft) O-NO 78 0 min 0,000 mm 0,0 UV-I 0 W/m 5,3 C 2,6 C 16,1 km/h (3 Bft) 97,87 %
24.11.2016 19:06 6,1 C 95 % 1018,9 hPa 0,0 l/m 9,9 km/h (2 Bft) O-NO 64 0 min 0,000 mm 0,0 UV-I 0 W/m 5,4 C 3,4 C 14,5 km/h (3 Bft) 95,74 %
24.11.2016 19:08 6,0 C 95 % 1018,9 hPa 0,0 l/m 9,6 km/h (2 Bft) NO 51 0 min 0,000 mm 0,0 UV-I 0 W/m 5,3 C 3,5 C 14,5 km/h (3 Bft) 97,87 %
24.11.2016 19:10 6,0 C 95 % 1018,9 hPa 0,0 l/m 12,1 km/h (2 Bft) O-NO 65 0 min 0,000 mm 0,0 UV-I 0 W/m 5,3 C 1,8 C 17,7 km/h (3 Bft) 97,87 %
24.11.2016 19:12 6,0 C 95 % 1018,9 hPa 0,0 l/m 10,3 km/h (2 Bft) NO 52 0 min 0,000 mm 0,0 UV-I 0 W/m 5,3 C 3,0 C 17,7 km/h (3 Bft) 98,08 %
24.11.2016 19:14 6,0 C 95 % 1018,9 hPa 0,0 l/m 13,0 km/h (3 Bft) O-NO 65 0 min 0,000 mm 0,0 UV-I 0 W/m 5,3 C 1,3 C 17,7 km/h (3 Bft) 97,87 %
24.11.2016 19:16 6,0 C 95 % 1018,8 hPa 0,0 l/m 12,7 km/h (3 Bft) O-NO 70 0 min 0,000 mm 0,0 UV-I 0 W/m 5,3 C 1,5 C 17,7 km/h (3 Bft) 94,29 %
24.11.2016 19:18 6,0 C 95 % 1018,9 hPa 0,0 l/m 11,7 km/h (2 Bft) NO 56 0 min 0,000 mm 0,0 UV-I 0 W/m 5,3 C 2,1 C 17,7 km/h (3 Bft) 97,87 %
24.11.2016 19:20 6,0 C 95 % 1018,8 hPa 0,0 l/m 10,6 km/h (2 Bft) NO 48 0 min 0,000 mm 0,0 UV-I 0 W/m 5,3 C 2,8 C 14,5 km/h (3 Bft) 95,74 %
24.11.2016 19:22 6,0 C 95 % 1018,8 hPa 0,0 l/m 11,4 km/h (2 Bft) NO 51 0 min 0,000 mm 0,0 UV-I 0 W/m 5,3 C 2,3 C 17,7 km/h (3 Bft) 95,74 %
24.11.2016 19:24 5,9 C 95 % 1018,8 hPa 0,0 l/m 10,4 km/h (2 Bft) O-NO 71 0 min 0,000 mm 0,0 UV-I 0 W/m 5,2 C 2,8 C 16,1 km/h (3 Bft) 96,00 %
24.11.2016 19:26 6,0 C 96 % 1018,9 hPa 0,0 l/m 9,5 km/h (2 Bft) O-NO 63 0 min 0,000 mm 0,0 UV-I 0 W/m 5,4 C 3,5 C 14,5 km/h (3 Bft) 93,62 %
24.11.2016 19:28 5,9 C 96 % 1018,9 hPa 0,0 l/m 11,0 km/h (2 Bft) NO 49 0 min 0,000 mm 0,0 UV-I 0 W/m 5,3 C 2,4 C 16,1 km/h (3 Bft) 97,22 %
24.11.2016 19:30 6,0 C 96 % 1018,8 hPa 0,0 l/m 11,1 km/h (2 Bft) NO 53 0 min 0,000 mm 0,0 UV-I 0 W/m 5,4 C 2,5 C 16,1 km/h (3 Bft) 98,39 %
24.11.2016 19:32 6,0 C 96 % 1018,8 hPa 0,0 l/m 9,3 km/h (2 Bft) NO 53 0 min 0,000 mm 0,0 UV-I 0 W/m 5,4 C 3,7 C 14,5 km/h (3 Bft) 97,87 %
24.11.2016 19:34 5,9 C 96 % 1018,8 hPa 0,0 l/m 12,4 km/h (3 Bft) O-NO 65 0 min 0,000 mm 0,0 UV-I 0 W/m 5,3 C 1,6 C 17,7 km/h (3 Bft) 95,74 %
24.11.2016 19:36 5,9 C 96 % 1018,8 hPa 0,0 l/m 11,1 km/h (2 Bft) NO 51 0 min 0,000 mm 0,0 UV-I 0 W/m 5,3 C 2,3 C 17,7 km/h (3 Bft) 100,00 %
24.11.2016 19:38 5,9 C 96 % 1018,9 hPa 0,0 l/m 9,6 km/h (2 Bft) NO 40 0 min 0,000 mm 0,0 UV-I 0 W/m 5,3 C 3,3 C 16,1 km/h (3 Bft) 100,00 %
24.11.2016 19:40 5,9 C 96 % 1018,9 hPa 0,0 l/m 11,0 km/h (2 Bft) O-NO 65 0 min 0,000 mm 0,0 UV-I 0 W/m 5,3 C 2,4 C 14,5 km/h (3 Bft) 97,87 %
24.11.2016 19:42 5,9 C 96 % 1018,9 hPa 0,0 l/m 8,5 km/h (2 Bft) NO 53 0 min 0,000 mm 0,0 UV-I 0 W/m 5,3 C 4,2 C 14,5 km/h (3 Bft) 96,00 %
24.11.2016 19:44 5,9 C 96 % 1019,0 hPa 0,0 l/m 10,0 km/h (2 Bft) O-NO 62 0 min 0,000 mm 0,0 UV-I 0 W/m 5,3 C 3,1 C 14,5 km/h (3 Bft) 100,00 %
24.11.2016 19:46 5,9 C 96 % 1018,9 hPa 0,0 l/m 11,8 km/h (2 Bft) NO 53 0 min 0,000 mm 0,0 UV-I 0 W/m 5,3 C 1,9 C 16,1 km/h (3 Bft) 100,00 %
24.11.2016 19:48 5,9 C 96 % 1018,9 hPa 0,0 l/m 10,6 km/h (2 Bft) NO 44 0 min 0,000 mm 0,0 UV-I 0 W/m 5,3 C 2,7 C 14,5 km/h (3 Bft) 100,00 %
24.11.2016 19:50 5,9 C 96 % 1018,9 hPa 0,0 l/m 8,2 km/h (2 Bft) O-NO 74 0 min 0,000 mm 0,0 UV-I 0 W/m 5,3 C 4,4 C 14,5 km/h (3 Bft) 100,00 %
24.11.2016 19:52 5,9 C 96 % 1018,9 hPa 0,0 l/m 10,5 km/h (2 Bft) O-NO 63 0 min 0,000 mm 0,0 UV-I 0 W/m 5,3 C 2,7 C 16,1 km/h (3 Bft) 97,87 %
24.11.2016 19:54 5,9 C 96 % 1019,0 hPa 0,0 l/m 12,3 km/h (3 Bft) O-NO 59 0 min 0,000 mm 0,0 UV-I 0 W/m 5,3 C 1,6 C 19,3 km/h (3 Bft) 97,87 %
24.11.2016 19:56 5,9 C 96 % 1019,0 hPa 0,0 l/m 11,9 km/h (2 Bft) O-NO 66 0 min 0,000 mm 0,0 UV-I 0 W/m 5,3 C 1,9 C 16,1 km/h (3 Bft) 97,87 %
24.11.2016 19:58 5,9 C 96 % 1019,0 hPa 0,0 l/m 12,2 km/h (2 Bft) O-NO 77 0 min 0,000 mm 0,0 UV-I 0 W/m 5,3 C 1,7 C 17,7 km/h (3 Bft) 100,00 %
24.11.2016 20:00 5,9 C 96 % 1019,0 hPa 0,0 l/m 16,1 km/h (3 Bft) O-NO 76 0 min 0,000 mm 0,0 UV-I 0 W/m 5,3 C -0,4 C 20,9 km/h (4 Bft) 98,11 %
24.11.2016 20:02 5,9 C 96 % 1019,0 hPa 0,0 l/m 13,6 km/h (3 Bft) O 84 0 min 0,000 mm 0,0 UV-I 0 W/m 5,3 C 0,9 C 17,7 km/h (3 Bft) 97,37 %
24.11.2016 20:04 5,9 C 96 % 1018,9 hPa 0,0 l/m 16,1 km/h (3 Bft) O-NO 71 0 min 0,000 mm 0,0 UV-I 0 W/m 5,3 C -0,4 C 22,5 km/h (4 Bft) 100,00 %
24.11.2016 20:06 5,9 C 96 % 1018,9 hPa 0,0 l/m 15,5 km/h (3 Bft) O-NO 61 0 min 0,000 mm 0,0 UV-I 0 W/m 5,3 C -0,1 C 17,7 km/h (3 Bft) 100,00 %
24.11.2016 20:08 5,9 C 96 % 1018,9 hPa 0,0 l/m 10,5 km/h (2 Bft) O-NO 69 0 min 0,000 mm 0,0 UV-I 0 W/m 5,3 C 2,7 C 16,1 km/h (3 Bft) 100,00 %
24.11.2016 20:10 5,9 C 96 % 1018,9 hPa 0,0 l/m 15,1 km/h (3 Bft) O-NO 76 0 min 0,000 mm 0,0 UV-I 0 W/m 5,3 C 0,1 C 22,5 km/h (4 Bft) 100,00 %
24.11.2016 20:12 5,9 C 96 % 1018,9 hPa 0,0 l/m 17,2 km/h (3 Bft) O 85 0 min 0,000 mm 0,0 UV-I 0 W/m 5,3 C -0,9 C 25,7 km/h (4 Bft) 93,62 %
24.11.2016 20:14 5,8 C 96 % 1018,8 hPa 0,0 l/m 12,4 km/h (3 Bft) O-NO 78 0 min 0,000 mm 0,0 UV-I 0 W/m 5,2 C 1,4 C 19,3 km/h (3 Bft) 100,00 %
24.11.2016 20:16 5,8 C 96 % 1018,8 hPa 0,0 l/m 17,7 km/h (3 Bft) O-NO 77 0 min 0,000 mm 0,0 UV-I 0 W/m 5,2 C -1,2 C 24,1 km/h (4 Bft) 100,00 %
24.11.2016 20:18 5,8 C 96 % 1018,8 hPa 0,0 l/m 18,1 km/h (3 Bft) O 91 0 min 0,000 mm 0,0 UV-I 0 W/m 5,2 C -1,4 C 25,7 km/h (4 Bft) 98,00 %
24.11.2016 20:20 5,8 C 96 % 1018,9 hPa 0,0 l/m 14,7 km/h (3 Bft) O-NO 74 0 min 0,000 mm 0,0 UV-I 0 W/m 5,2 C 0,2 C 20,9 km/h (4 Bft) 100,00 %
24.11.2016 20:22 5,8 C 96 % 1018,9 hPa 0,0 l/m 17,7 km/h (3 Bft) NO 55 0 min 0,000 mm 0,0 UV-I 0 W/m 5,2 C -1,2 C 24,1 km/h (4 Bft) 100,00 %
24.11.2016 20:24 5,8 C 96 % 1018,9 hPa 0,0 l/m 17,8 km/h (3 Bft) O 83 0 min 0,000 mm 0,0 UV-I 0 W/m 5,2 C -1,2 C 25,7 km/h (4 Bft) 97,87 %
24.11.2016 20:26 5,8 C 96 % 1019,0 hPa 0,0 l/m 12,2 km/h (2 Bft) O-NO 76 0 min 0,000 mm 0,0 UV-I 0 W/m 5,2 C 1,6 C 19,3 km/h (3 Bft) 97,87 %
24.11.2016 20:28 5,8 C 96 % 1018,9 hPa 0,0 l/m 13,9 km/h (3 Bft) O-NO 61 0 min 0,000 mm 0,0 UV-I 0 W/m 5,2 C 0,6 C 20,9 km/h (4 Bft) 100,00 %
24.11.2016 20:30 5,8 C 96 % 1018,9 hPa 0,0 l/m 17,3 km/h (3 Bft) O-NO 73 0 min 0,000 mm 0,0 UV-I 0 W/m 5,2 C -1,0 C 27,4 km/h (4 Bft) 100,00 %
24.11.2016 20:32 5,8 C 96 % 1019,0 hPa 0,0 l/m 13,1 km/h (3 Bft) O 97 0 min 0,000 mm 0,0 UV-I 0 W/m 5,2 C 1,0 C 19,3 km/h (3 Bft) 100,00 %
24.11.2016 20:34 5,8 C 96 % 1019,0 hPa 0,0 l/m 16,0 km/h (3 Bft) O-NO 59 0 min 0,000 mm 0,0 UV-I 0 W/m 5,2 C -0,4 C 22,5 km/h (4 Bft) 100,00 %
24.11.2016 20:36 5,8 C 96 % 1018,9 hPa 0,0 l/m 14,4 km/h (3 Bft) O-NO 69 0 min 0,000 mm 0,0 UV-I 0 W/m 5,2 C 0,3 C 19,3 km/h (3 Bft) 100,00 %
24.11.2016 20:38 5,8 C 96 % 1018,9 hPa 0,0 l/m 14,5 km/h (3 Bft) NO 51 0 min 0,000 mm 0,0 UV-I 0 W/m 5,2 C 0,3 C 22,5 km/h (4 Bft) 95,74 %
24.11.2016 20:40 5,8 C 96 % 1018,9 hPa 0,0 l/m 12,6 km/h (3 Bft) O 84 0 min 0,000 mm 0,0 UV-I 0 W/m 5,2 C 1,3 C 19,3 km/h (3 Bft) 97,87 %
24.11.2016 20:42 5,8 C 96 % 1018,9 hPa 0,0 l/m 16,6 km/h (3 Bft) O-NO 76 0 min 0,000 mm 0,0 UV-I 0 W/m 5,2 C -0,7 C 25,7 km/h (4 Bft) 100,00 %
24.11.2016 20:44 5,7 C 96 % 1018,9 hPa 0,0 l/m 13,3 km/h (3 Bft) O 79 0 min 0,000 mm 0,0 UV-I 0 W/m 5,1 C 0,8 C 22,5 km/h (4 Bft) 98,00 %
24.11.2016 20:46 5,7 C 96 % 1018,9 hPa 0,0 l/m 12,4 km/h (3 Bft) O 80 0 min 0,000 mm 0,0 UV-I 0 W/m 5,1 C 1,3 C 17,7 km/h (3 Bft) 97,87 %
24.11.2016 20:48 5,7 C 96 % 1018,8 hPa 0,0 l/m 19,0 km/h (3 Bft) O-NO 67 0 min 0,000 mm 0,0 UV-I 0 W/m 5,1 C -1,9 C 25,7 km/h (4 Bft) 98,00 %
24.11.2016 20:50 5,7 C 96 % 1018,8 hPa 0,0 l/m 13,5 km/h (3 Bft) O-NO 61 0 min 0,000 mm 0,0 UV-I 0 W/m 5,1 C 0,7 C 19,3 km/h (3 Bft) 97,87 %
24.11.2016 20:52 5,7 C 96 % 1018,9 hPa 0,0 l/m 15,0 km/h (3 Bft) O-NO 73 0 min 0,000 mm 0,0 UV-I 0 W/m 5,1 C -0,1 C 19,3 km/h (3 Bft) 100,00 %
24.11.2016 20:54 5,7 C 96 % 1018,9 hPa 0,0 l/m 12,8 km/h (3 Bft) O 90 0 min 0,000 mm 0,0 UV-I 0 W/m 5,1 C 1,1 C 19,3 km/h (3 Bft) 100,00 %
24.11.2016 20:56 5,7 C 96 % 1019,0 hPa 0,0 l/m 15,9 km/h (3 Bft) O-NO 61 0 min 0,000 mm 0,0 UV-I 0 W/m 5,1 C -0,5 C 22,5 km/h (4 Bft) 100,00 %
24.11.2016 20:58 5,7 C 96 % 1019,0 hPa 0,0 l/m 16,9 km/h (3 Bft) O 90 0 min 0,000 mm 0,0 UV-I 0 W/m 5,1 C -1,0 C 24,1 km/h (4 Bft) 100,00 %
24.11.2016 21:00 5,7 C 96 % 1019,0 hPa 0,0 l/m 13,7 km/h (3 Bft) O-NO 73 0 min 0,000 mm 0,0 UV-I 0 W/m 5,1 C 0,6 C 17,7 km/h (3 Bft) 94,29 %
24.11.2016 21:02 5,7 C 96 % 1019,0 hPa 0,0 l/m 10,0 km/h (2 Bft) NO 52 0 min 0,000 mm 0,0 UV-I 0 W/m 5,1 C 2,8 C 14,5 km/h (3 Bft) 97,96 %
24.11.2016 21:04 5,7 C 96 % 1019,0 hPa 0,0 l/m 15,5 km/h (3 Bft) O-NO 65 0 min 0,000 mm 0,0 UV-I 0 W/m 5,1 C -0,3 C 20,9 km/h (4 Bft) 95,74 %
24.11.2016 21:06 5,6 C 96 % 1019,0 hPa 0,0 l/m 16,4 km/h (3 Bft) O-NO 61 0 min 0,000 mm 0,0 UV-I 0 W/m 5,0 C -0,9 C 25,7 km/h (4 Bft) 97,87 %
24.11.2016 21:08 5,7 C 95 % 1019,0 hPa 0,0 l/m 14,7 km/h (3 Bft) O 80 0 min 0,000 mm 0,0 UV-I 0 W/m 5,0 C 0,1 C 20,9 km/h (4 Bft) 96,00 %
24.11.2016 21:10 5,7 C 95 % 1019,0 hPa 0,0 l/m 15,8 km/h (3 Bft) O-NO 76 0 min 0,000 mm 0,0 UV-I 0 W/m 5,0 C -0,5 C 19,3 km/h (3 Bft) 97,87 %
24.11.2016 21:12 5,7 C 95 % 1019,0 hPa 0,0 l/m 12,6 km/h (3 Bft) NO 53 0 min 0,000 mm 0,0 UV-I 0 W/m 5,0 C 1,2 C 17,7 km/h (3 Bft) 97,87 %
24.11.2016 21:14 5,7 C 95 % 1019,0 hPa 0,0 l/m 16,2 km/h (3 Bft) O-NO 62 0 min 0,000 mm 0,0 UV-I 0 W/m 5,0 C -0,7 C 22,5 km/h (4 Bft) 95,74 %
24.11.2016 21:16 5,7 C 95 % 1019,0 hPa 0,0 l/m 14,1 km/h (3 Bft) O-NO 61 0 min 0,000 mm 0,0 UV-I 0 W/m 5,0 C 0,4 C 20,9 km/h (4 Bft) 97,96 %
24.11.2016 21:18 5,7 C 95 % 1019,1 hPa 0,0 l/m 12,2 km/h (2 Bft) NO 53 0 min 0,000 mm 0,0 UV-I 0 W/m 5,0 C 1,4 C 17,7 km/h (3 Bft) 97,87 %
24.11.2016 21:20 5,7 C 95 % 1019,1 hPa 0,0 l/m 13,0 km/h (3 Bft) O-NO 65 0 min 0,000 mm 0,0 UV-I 0 W/m 5,0 C 1,0 C 19,3 km/h (3 Bft) 97,87 %
24.11.2016 21:22 5,7 C 95 % 1019,0 hPa 0,0 l/m 16,2 km/h (3 Bft) NO 53 0 min 0,000 mm 0,0 UV-I 0 W/m 5,0 C -0,7 C 24,1 km/h (4 Bft) 97,87 %
24.11.2016 21:24 5,7 C 95 % 1018,9 hPa 0,0 l/m 16,6 km/h (3 Bft) O 85 0 min 0,000 mm 0,0 UV-I 0 W/m 5,0 C -0,8 C 22,5 km/h (4 Bft) 95,74 %
24.11.2016 21:26 5,7 C 95 % 1019,0 hPa 0,0 l/m 15,0 km/h (3 Bft) O-NO 59 0 min 0,000 mm 0,0 UV-I 0 W/m 5,0 C -0,1 C 19,3 km/h (3 Bft) 95,74 %
24.11.2016 21:28 5,7 C 95 % 1019,0 hPa 0,0 l/m 15,1 km/h (3 Bft) O-NO 59 0 min 0,000 mm 0,0 UV-I 0 W/m 5,0 C -0,1 C 22,5 km/h (4 Bft) 97,22 %
24.11.2016 21:30 5,7 C 95 % 1019,0 hPa 0,0 l/m 15,6 km/h (3 Bft) O-NO 74 0 min 0,000 mm 0,0 UV-I 0 W/m 5,0 C -0,4 C 24,1 km/h (4 Bft) 98,00 %
24.11.2016 21:32 5,7 C 95 % 1019,0 hPa 0,0 l/m 15,2 km/h (3 Bft) O-NO 59 0 min 0,000 mm 0,0 UV-I 0 W/m 5,0 C -0,2 C 24,1 km/h (4 Bft) 96,00 %
24.11.2016 21:34 5,7 C 95 % 1019,0 hPa 0,0 l/m 16,6 km/h (3 Bft) O-NO 59 0 min 0,000 mm 0,0 UV-I 0 W/m 5,0 C -0,8 C 22,5 km/h (4 Bft) 97,87 %
24.11.2016 21:36 5,7 C 95 % 1019,0 hPa 0,0 l/m 16,0 km/h (3 Bft) O-NO 58 0 min 0,000 mm 0,0 UV-I 0 W/m 5,0 C -0,6 C 22,5 km/h (4 Bft) 97,87 %
24.11.2016 21:38 5,7 C 95 % 1019,0 hPa 0,0 l/m 19,3 km/h (3 Bft) NO 53 0 min 0,000 mm 0,0 UV-I 0 W/m 5,0 C -2,0 C 27,4 km/h (4 Bft) 98,00 %
24.11.2016 21:40 5,7 C 95 % 1019,0 hPa 0,0 l/m 15,1 km/h (3 Bft) O-NO 74 0 min 0,000 mm 0,0 UV-I 0 W/m 5,0 C -0,1 C 20,9 km/h (4 Bft) 95,74 %
24.11.2016 21:42 5,7 C 95 % 1019,0 hPa 0,0 l/m 15,9 km/h (3 Bft) O-NO 64 0 min 0,000 mm 0,0 UV-I 0 W/m 5,0 C -0,5 C 22,5 km/h (4 Bft) 100,00 %
24.11.2016 21:44 5,7 C 95 % 1018,9 hPa 0,0 l/m 16,6 km/h (3 Bft) NO 49 0 min 0,000 mm 0,0 UV-I 0 W/m 5,0 C -0,8 C 24,1 km/h (4 Bft) 95,74 %
24.11.2016 21:46 5,7 C 95 % 1018,9 hPa 0,0 l/m 16,6 km/h (3 Bft) NO 56 0 min 0,000 mm 0,0 UV-I 0 W/m 5,0 C -0,8 C 22,5 km/h (4 Bft) 100,00 %
24.11.2016 21:48 5,7 C 95 % 1018,9 hPa 0,0 l/m 13,6 km/h (3 Bft) NO 53 0 min 0,000 mm 0,0 UV-I 0 W/m 5,0 C 0,7 C 17,7 km/h (3 Bft) 97,87 %
24.11.2016 21:50 5,7 C 95 % 1018,8 hPa 0,0 l/m 13,6 km/h (3 Bft) O 79 0 min 0,000 mm 0,0 UV-I 0 W/m 5,0 C 0,7 C 20,9 km/h (4 Bft) 100,00 %
24.11.2016 21:52 5,7 C 95 % 1018,9 hPa 0,0 l/m 15,9 km/h (3 Bft) O-NO 65 0 min 0,000 mm 0,0 UV-I 0 W/m 5,0 C -0,5 C 20,9 km/h (4 Bft) 100,00 %
24.11.2016 21:54 5,7 C 95 % 1018,9 hPa 0,0 l/m 15,2 km/h (3 Bft) NO 49 0 min 0,000 mm 0,0 UV-I 0 W/m 5,0 C -0,2 C 22,5 km/h (4 Bft) 100,00 %
24.11.2016 21:56 5,7 C 95 % 1018,9 hPa 0,0 l/m 14,8 km/h (3 Bft) O-NO 77 0 min 0,000 mm 0,0 UV-I 0 W/m 5,0 C 0,0 C 20,9 km/h (4 Bft) 100,00 %
24.11.2016 21:58 5,7 C 95 % 1018,9 hPa 0,0 l/m 11,1 km/h (2 Bft) O-NO 59 0 min 0,000 mm 0,0 UV-I 0 W/m 5,0 C 2,1 C 14,5 km/h (3 Bft) 97,87 %
24.11.2016 22:00 5,6 C 95 % 1018,9 hPa 0,0 l/m 13,6 km/h (3 Bft) O-NO 57 0 min 0,000 mm 0,0 UV-I 0 W/m 4,9 C 0,5 C 19,3 km/h (3 Bft) 100,00 %
24.11.2016 22:02 5,6 C 95 % 1018,9 hPa 0,0 l/m 14,7 km/h (3 Bft) O-NO 59 0 min 0,000 mm 0,0 UV-I 0 W/m 4,9 C -0,0 C 20,9 km/h (4 Bft) 97,37 %
24.11.2016 22:04 5,7 C 95 % 1018,9 hPa 0,0 l/m 15,8 km/h (3 Bft) NO 49 0 min 0,000 mm 0,0 UV-I 0 W/m 5,0 C -0,5 C 22,5 km/h (4 Bft) 100,00 %
24.11.2016 22:06 5,6 C 95 % 1018,9 hPa 0,0 l/m 14,4 km/h (3 Bft) O-NO 71 0 min 0,000 mm 0,0 UV-I 0 W/m 4,9 C 0,1 C 19,3 km/h (3 Bft) 100,00 %
24.11.2016 22:08 5,6 C 95 % 1019,0 hPa 0,0 l/m 12,1 km/h (2 Bft) O-NO 63 0 min 0,000 mm 0,0 UV-I 0 W/m 4,9 C 1,4 C 17,7 km/h (3 Bft) 96,00 %
24.11.2016 22:10 5,6 C 95 % 1019,0 hPa 0,0 l/m 12,5 km/h (3 Bft) O-NO 59 0 min 0,000 mm 0,0 UV-I 0 W/m 4,9 C 1,2 C 17,7 km/h (3 Bft) 100,00 %
24.11.2016 22:12 5,6 C 95 % 1018,9 hPa 0,0 l/m 10,5 km/h (2 Bft) O-NO 67 0 min 0,000 mm 0,0 UV-I 0 W/m 4,9 C 2,4 C 16,1 km/h (3 Bft) 100,00 %
24.11.2016 22:14 5,6 C 95 % 1018,9 hPa 0,0 l/m 13,8 km/h (3 Bft) O-NO 70 0 min 0,000 mm 0,0 UV-I 0 W/m 4,9 C 0,4 C 19,3 km/h (3 Bft) 97,87 %
24.11.2016 22:16 5,6 C 95 % 1018,9 hPa 0,0 l/m 12,2 km/h (2 Bft) O-NO 69 0 min 0,000 mm 0,0 UV-I 0 W/m 4,9 C 1,3 C 17,7 km/h (3 Bft) 94,74 %
24.11.2016 22:18 5,6 C 95 % 1018,9 hPa 0,0 l/m 14,8 km/h (3 Bft) O 85 0 min 0,000 mm 0,0 UV-I 0 W/m 4,9 C -0,1 C 22,5 km/h (4 Bft) 100,00 %
24.11.2016 22:20 5,6 C 95 % 1018,9 hPa 0,0 l/m 15,6 km/h (3 Bft) O-NO 74 0 min 0,000 mm 0,0 UV-I 0 W/m 4,9 C -0,5 C 20,9 km/h (4 Bft) 100,00 %
24.11.2016 22:22 5,6 C 95 % 1018,9 hPa 0,0 l/m 15,9 km/h (3 Bft) NO 53 0 min 0,000 mm 0,0 UV-I 0 W/m 4,9 C -0,6 C 20,9 km/h (4 Bft) 97,87 %
24.11.2016 22:24 5,6 C 95 % 1018,9 hPa 0,0 l/m 14,4 km/h (3 Bft) O 80 0 min 0,000 mm 0,0 UV-I 0 W/m 4,9 C 0,1 C 19,3 km/h (3 Bft) 97,87 %
24.11.2016 22:26 5,6 C 95 % 1019,0 hPa 0,0 l/m 12,9 km/h (3 Bft) O 94 0 min 0,000 mm 0,0 UV-I 0 W/m 4,9 C 0,9 C 20,9 km/h (4 Bft) 100,00 %
24.11.2016 22:28 5,6 C 95 % 1019,0 hPa 0,0 l/m 13,6 km/h (3 Bft) O-SO 103 0 min 0,000 mm 0,0 UV-I 0 W/m 4,9 C 0,5 C 19,3 km/h (3 Bft) 100,00 %
24.11.2016 22:30 5,6 C 95 % 1019,0 hPa 0,0 l/m 12,3 km/h (3 Bft) O-NO 77 0 min 0,000 mm 0,0 UV-I 0 W/m 4,9 C 1,3 C 19,3 km/h (3 Bft) 100,00 %
24.11.2016 22:32 5,6 C 95 % 1019,1 hPa 0,0 l/m 12,7 km/h (3 Bft) O-NO 67 0 min 0,000 mm 0,0 UV-I 0 W/m 4,9 C 1,0 C 17,7 km/h (3 Bft) 100,00 %
24.11.2016 22:34 5,6 C 95 % 1019,1 hPa 0,0 l/m 12,8 km/h (3 Bft) NO 46 0 min 0,000 mm 0,0 UV-I 0 W/m 4,9 C 1,0 C 19,3 km/h (3 Bft) 100,00 %
24.11.2016 22:36 5,6 C 95 % 1019,1 hPa 0,0 l/m 14,4 km/h (3 Bft) O-NO 65 0 min 0,000 mm 0,0 UV-I 0 W/m 4,9 C 0,1 C 19,3 km/h (3 Bft) 97,87 %
24.11.2016 22:38 5,6 C 95 % 1019,1 hPa 0,0 l/m 11,3 km/h (2 Bft) O-NO 65 0 min 0,000 mm 0,0 UV-I 0 W/m 4,9 C 1,9 C 16,1 km/h (3 Bft) 100,00 %
24.11.2016 22:40 5,6 C 95 % 1019,1 hPa 0,0 l/m 9,9 km/h (2 Bft) NO 44 0 min 0,000 mm 0,0 UV-I 0 W/m 4,9 C 2,8 C 16,1 km/h (3 Bft) 97,87 %
24.11.2016 22:42 5,6 C 95 % 1019,1 hPa 0,0 l/m 14,1 km/h (3 Bft) O-SO 105 0 min 0,000 mm 0,0 UV-I 0 W/m 4,9 C 0,3 C 19,3 km/h (3 Bft) 95,74 %
24.11.2016 22:44 5,6 C 95 % 1019,1 hPa 0,0 l/m 11,4 km/h (2 Bft) O-NO 71 0 min 0,000 mm 0,0 UV-I 0 W/m 4,9 C 1,8 C 16,1 km/h (3 Bft) 100,00 %
24.11.2016 22:46 5,6 C 95 % 1019,1 hPa 0,0 l/m 12,8 km/h (3 Bft) NO 46 0 min 0,000 mm 0,0 UV-I 0 W/m 4,9 C 1,0 C 19,3 km/h (3 Bft) 100,00 %
24.11.2016 22:48 5,6 C 95 % 1019,0 hPa 0,0 l/m 14,1 km/h (3 Bft) O-NO 78 0 min 0,000 mm 0,0 UV-I 0 W/m 4,9 C 0,3 C 20,9 km/h (4 Bft) 97,87 %
24.11.2016 22:50 5,6 C 95 % 1019,1 hPa 0,0 l/m 14,4 km/h (3 Bft) O-NO 61 0 min 0,000 mm 0,0 UV-I 0 W/m 4,9 C 0,1 C 19,3 km/h (3 Bft) 100,00 %
24.11.2016 22:52 5,6 C 95 % 1019,0 hPa 0,0 l/m 11,5 km/h (2 Bft) O 82 0 min 0,000 mm 0,0 UV-I 0 W/m 4,9 C 1,8 C 16,1 km/h (3 Bft) 100,00 %
24.11.2016 22:54 5,6 C 95 % 1019,1 hPa 0,0 l/m 12,5 km/h (3 Bft) NO 49 0 min 0,000 mm 0,0 UV-I 0 W/m 4,9 C 1,2 C 17,7 km/h (3 Bft) 100,00 %
24.11.2016 22:56 5,6 C 95 % 1019,1 hPa 0,0 l/m 11,8 km/h (2 Bft) NO 55 0 min 0,000 mm 0,0 UV-I 0 W/m 4,9 C 1,6 C 19,3 km/h (3 Bft) 100,00 %
24.11.2016 22:58 5,6 C 95 % 1019,0 hPa 0,0 l/m 9,9 km/h (2 Bft) O-NO 72 0 min 0,000 mm 0,0 UV-I 0 W/m 4,9 C 2,8 C 16,1 km/h (3 Bft) 97,87 %
24.11.2016 23:00 5,6 C 95 % 1019,0 hPa 0,0 l/m 7,8 km/h (2 Bft) O-NO 67 0 min 0,000 mm 0,0 UV-I 0 W/m 4,9 C 4,4 C 12,9 km/h (3 Bft) 97,87 %
24.11.2016 23:02 5,6 C 95 % 1019,1 hPa 0,0 l/m 13,4 km/h (3 Bft) O-NO 64 0 min 0,000 mm 0,0 UV-I 0 W/m 4,9 C 0,6 C 17,7 km/h (3 Bft) 97,87 %
24.11.2016 23:04 5,6 C 95 % 1019,1 hPa 0,0 l/m 15,3 km/h (3 Bft) O 86 0 min 0,000 mm 0,0 UV-I 0 W/m 4,9 C -0,3 C 19,3 km/h (3 Bft) 97,87 %
24.11.2016 23:06 5,6 C 95 % 1019,1 hPa 0,0 l/m 12,3 km/h (3 Bft) NO 52 0 min 0,000 mm 0,0 UV-I 0 W/m 4,9 C 1,3 C 17,7 km/h (3 Bft) 95,74 %
24.11.2016 23:08 5,6 C 95 % 1019,1 hPa 0,0 l/m 14,0 km/h (3 Bft) NO 38 0 min 0,000 mm 0,0 UV-I 0 W/m 4,9 C 0,3 C 19,3 km/h (3 Bft) 94,29 %
24.11.2016 23:10 5,6 C 95 % 1019,1 hPa 0,0 l/m 13,7 km/h (3 Bft) NO 47 0 min 0,000 mm 0,0 UV-I 0 W/m 4,9 C 0,5 C 17,7 km/h (3 Bft) 97,87 %
24.11.2016 23:12 5,6 C 95 % 1019,1 hPa 0,0 l/m 14,8 km/h (3 Bft) O-NO 59 0 min 0,000 mm 0,0 UV-I 0 W/m 4,9 C -0,1 C 20,9 km/h (4 Bft) 91,49 %
24.11.2016 23:14 5,6 C 95 % 1019,1 hPa 0,0 l/m 12,9 km/h (3 Bft) O-NO 64 0 min 0,000 mm 0,0 UV-I 0 W/m 4,9 C 0,9 C 17,7 km/h (3 Bft) 97,87 %
24.11.2016 23:16 5,6 C 95 % 1019,1 hPa 0,0 l/m 15,2 km/h (3 Bft) NO 43 0 min 0,000 mm 0,0 UV-I 0 W/m 4,9 C -0,3 C 20,9 km/h (4 Bft) 96,00 %
24.11.2016 23:18 5,5 C 95 % 1019,1 hPa 0,0 l/m 14,7 km/h (3 Bft) O-NO 71 0 min 0,000 mm 0,0 UV-I 0 W/m 4,8 C -0,2 C 19,3 km/h (3 Bft) 95,74 %
24.11.2016 23:20 5,5 C 95 % 1019,1 hPa 0,0 l/m 14,9 km/h (3 Bft) NO 53 0 min 0,000 mm 0,0 UV-I 0 W/m 4,8 C -0,3 C 19,3 km/h (3 Bft) 97,87 %
24.11.2016 23:22 5,5 C 95 % 1019,0 hPa 0,0 l/m 13,5 km/h (3 Bft) NO 37 0 min 0,000 mm 0,0 UV-I 0 W/m 4,8 C 0,5 C 19,3 km/h (3 Bft) 97,87 %
24.11.2016 23:24 5,5 C 95 % 1019,0 hPa 0,0 l/m 14,5 km/h (3 Bft) O-NO 72 0 min 0,000 mm 0,0 UV-I 0 W/m 4,8 C -0,1 C 19,3 km/h (3 Bft) 95,74 %
24.11.2016 23:26 5,5 C 95 % 1019,1 hPa 0,0 l/m 15,7 km/h (3 Bft) O-NO 66 0 min 0,000 mm 0,0 UV-I 0 W/m 4,8 C -0,7 C 20,9 km/h (4 Bft) 95,83 %
24.11.2016 23:28 5,5 C 95 % 1019,1 hPa 0,0 l/m 13,3 km/h (3 Bft) NO 53 0 min 0,000 mm 0,0 UV-I 0 W/m 4,8 C 0,6 C 17,7 km/h (3 Bft) 96,00 %
24.11.2016 23:30 5,5 C 95 % 1019,1 hPa 0,0 l/m 14,0 km/h (3 Bft) O-SO 102 0 min 0,000 mm 0,0 UV-I 0 W/m 4,8 C 0,2 C 19,3 km/h (3 Bft) 96,00 %
24.11.2016 23:32 5,5 C 95 % 1019,1 hPa 0,0 l/m 14,8 km/h (3 Bft) O-NO 70 0 min 0,000 mm 0,0 UV-I 0 W/m 4,8 C -0,2 C 20,9 km/h (4 Bft) 95,74 %
24.11.2016 23:34 5,5 C 95 % 1019,1 hPa 0,0 l/m 13,8 km/h (3 Bft) NO 53 0 min 0,000 mm 0,0 UV-I 0 W/m 4,8 C 0,3 C 20,9 km/h (4 Bft) 97,37 %
24.11.2016 23:36 5,5 C 95 % 1019,1 hPa 0,0 l/m 15,1 km/h (3 Bft) O-NO 65 0 min 0,000 mm 0,0 UV-I 0 W/m 4,8 C -0,4 C 20,9 km/h (4 Bft) 97,87 %
24.11.2016 23:38 5,4 C 95 % 1019,1 hPa 0,0 l/m 16,7 km/h (3 Bft) O-NO 71 0 min 0,000 mm 0,0 UV-I 0 W/m 4,7 C -1,3 C 25,7 km/h (4 Bft) 98,00 %
24.11.2016 23:40 5,4 C 95 % 1019,1 hPa 0,0 l/m 16,3 km/h (3 Bft) NO 54 0 min 0,000 mm 0,0 UV-I 0 W/m 4,7 C -1,1 C 24,1 km/h (4 Bft) 95,74 %
24.11.2016 23:42 5,4 C 95 % 1019,1 hPa 0,0 l/m 18,7 km/h (3 Bft) O-NO 62 0 min 0,000 mm 0,0 UV-I 0 W/m 4,7 C -2,1 C 24,1 km/h (4 Bft) 100,00 %
24.11.2016 23:44 5,4 C 95 % 1019,1 hPa 0,0 l/m 16,0 km/h (3 Bft) O-NO 70 0 min 0,000 mm 0,0 UV-I 0 W/m 4,7 C -0,9 C 20,9 km/h (4 Bft) 94,00 %
24.11.2016 23:46 5,4 C 95 % 1019,1 hPa 0,0 l/m 14,3 km/h (3 Bft) O-NO 76 0 min 0,000 mm 0,0 UV-I 0 W/m 4,7 C -0,1 C 20,9 km/h (4 Bft) 97,87 %
24.11.2016 23:48 5,4 C 95 % 1019,1 hPa 0,0 l/m 13,6 km/h (3 Bft) O 83 0 min 0,000 mm 0,0 UV-I 0 W/m 4,7 C 0,3 C 19,3 km/h (3 Bft) 100,00 %
24.11.2016 23:50 5,4 C 95 % 1019,0 hPa 0,0 l/m 16,6 km/h (3 Bft) O-NO 78 0 min 0,000 mm 0,0 UV-I 0 W/m 4,7 C -1,2 C 24,1 km/h (4 Bft) 100,00 %
24.11.2016 23:52 5,5 C 95 % 1019,0 hPa 0,0 l/m 14,4 km/h (3 Bft) NO 55 0 min 0,000 mm 0,0 UV-I 0 W/m 4,8 C -0,0 C 20,9 km/h (4 Bft) 100,00 %
24.11.2016 23:54 5,4 C 95 % 1018,9 hPa 0,0 l/m 15,2 km/h (3 Bft) O-NO 69 0 min 0,000 mm 0,0 UV-I 0 W/m 4,7 C -0,5 C 20,9 km/h (4 Bft) 100,00 %
24.11.2016 23:56 5,4 C 95 % 1018,9 hPa 0,0 l/m 14,5 km/h (3 Bft) O-NO 76 0 min 0,000 mm 0,0 UV-I 0 W/m 4,7 C -0,2 C 19,3 km/h (3 Bft) 97,87 %
24.11.2016 23:58 5,4 C 95 % 1018,9 hPa 0,0 l/m 16,1 km/h (3 Bft) O-NO 75 0 min 0,000 mm 0,0 UV-I 0 W/m 4,7 C -1,0 C 20,9 km/h (4 Bft) 100,00 %
_ Min-Zeit 03:24 12:36 05:14 - 02:06 - - - - - - 23:38 13:16 01:24 17:22
Minimum _ 5,4 C 94 % 1017,7 hPa - 0,9 km/h (0 Bft) - - - - - - 4,7 C -2,1 C 3,2 km/h (1 Bft) 90,00 %
_ Max-Zeit 12:32 00:00 10:22 00:00 13:16 - - 00:00 11:02 00:00 12:30 10:22 10:30 15:22 00:00
Maximum _ 6,8 C 99 % 1019,1 hPa 0,0 l/m 23,4 km/h
O-NO (4 Bft)
- - 0 min 0,026 mm 0,0 UV-I 101 W/m 6,2 C 6,6 C 32,2 km/h
O (5 Bft)
100,00 %
Durchschnitt _ 6,0 C 97 % 1018,5 hPa #0,0 l/m 10,4 km/h (2 Bft) O-NO - #0 min. #0,178 mm 0,0 UV-I 41 W/m 5,6 C 3,0 C 15,2 km/h (3 Bft) 98,57 %